Detalle de ayer:

17/6/19
Time         Wind Dir  Wind Gust   Humidity       Temp   Tot Rain Wind Chill Heat Index  Dew Point   Barom SL Temp Out H Temp Out L  DailyRain   HourRain   24HrRain   RainRate   Wind Run   Deg Heat   Deg Cool  MonthRain
                          km/hr          %         C         mm         C         C         C         mb         C         C         mm         mm         mm      mm/hr         km         C         C         mm
0:00              226        4.8         71       16.8      122.8       16.8       18.5       11.5     1016.7       16.8       16.8        0.0        0.0        0.0       0.00      113.1       0.43       2.15        0.0
0:01              227        6.4         71       16.7      122.8       16.7       18.4       11.4     1016.8       16.8       16.7        0.0        0.0        0.0       0.00        0.1       0.01       0.00        0.0
0:04              227        3.2         72       16.7      122.8       16.7       18.5       11.7     1016.7       16.8       16.7        0.0        0.0        0.0       0.00        0.2       0.01       0.00        0.0
0:06              227        4.8         72       16.7      122.8       16.7       18.4       11.6     1016.7       16.8       16.7        0.0        0.0        0.0       0.00        0.3       0.01       0.00        0.0
0:08              227        8.0         73       16.6      122.8       16.6       18.5       11.8     1016.7       16.8       16.6        0.0        0.0        0.0       0.00        0.4       0.01       0.00        0.0
0:10              227        0.0         73       16.6      122.8       16.6       18.5       11.8     1016.7       16.8       16.6        0.0        0.0        0.0       0.00        0.5       0.01       0.00        0.0
0:12              227        1.6         74       16.6      122.8       16.6       18.5       11.9     1016.7       16.8       16.6        0.0        0.0        0.0       0.00        0.5       0.01       0.00        0.0
0:14              227        3.2         74       16.6      122.8       16.6       18.5       11.9     1016.8       16.8       16.6        0.0        0.0        0.0       0.00        0.6       0.01       0.00        0.0
0:16              227        3.2         74       16.5      122.8       16.5       18.4       11.9     1016.7       16.8       16.5        0.0        0.0        0.0       0.00        0.6       0.03       0.00        0.0
0:18              227        3.2         74       16.5      122.8       16.5       18.4       11.9     1016.7       16.8       16.5        0.0        0.0        0.0       0.00        0.7       0.03       0.00        0.0
0:20              227        1.6         75       16.4      122.8       16.4       18.4       12.0     1016.7       16.8       16.4        0.0        0.0        0.0       0.00        0.7       0.03       0.00        0.0
0:22              227        0.0         75       16.4      122.8       16.4       18.4       12.0     1016.7       16.8       16.4        0.0        0.0        0.0       0.00        0.7       0.03       0.00        0.0
0:24              227        1.6         75       16.4      122.8       16.4       18.4       12.0     1016.7       16.8       16.4        0.0        0.0        0.0       0.00        0.7       0.03       0.00        0.0
0:26              227        1.6         75       16.3      122.8       16.3       18.3       11.9     1016.7       16.8       16.3        0.0        0.0        0.0       0.00        0.8       0.03       0.00        0.0
0:28              227        6.4         76       16.3      122.8       16.3       18.4       12.1     1016.7       16.8       16.3        0.0        0.0        0.0       0.00        0.9       0.03       0.00        0.0
0:30              227        3.2         76       16.3      122.8       16.3       18.4       12.1     1016.7       16.8       16.3        0.0        0.0        0.0       0.00        1.0       0.03       0.00        0.0
0:32              227        4.8         76       16.3      122.8       16.3       18.3       12.0     1016.6       16.8       16.3        0.0        0.0        0.0       0.00        1.0       0.05       0.00        0.0
0:33              227        1.6         77       16.3      122.8       16.3       18.4       12.2     1016.7       16.8       16.3        0.0        0.0        0.0       0.00        1.1       0.05       0.00        0.0
0:36              227        1.6         77       16.2      122.8       16.2       18.4       12.2     1016.6       16.8       16.2        0.0        0.0        0.0       0.00        1.2       0.05       0.00        0.0
0:38              227        4.8         77       16.2      122.8       16.2       18.4       12.2     1016.6       16.8       16.2        0.0        0.0        0.0       0.00        1.3       0.05       0.00        0.0
0:40              227        1.6         78       16.2      122.8       16.2       18.4       12.4     1016.7       16.8       16.2        0.0        0.0        0.0       0.00        1.4       0.05       0.00        0.0
0:42              227        1.6         78       16.2      122.8       16.2       18.4       12.4     1016.6       16.8       16.2        0.0        0.0        0.0       0.00        1.4       0.05       0.00        0.0
0:44              227        1.6         78       16.2      122.8       16.2       18.4       12.4     1016.5       16.8       16.2        0.0        0.0        0.0       0.00        1.4       0.05       0.00        0.0
0:46              227        4.8         79       16.2      122.8       16.2       18.5       12.6     1016.5       16.8       16.2        0.0        0.0        0.0       0.00        1.5       0.06       0.00        0.0
0:48              227        3.2         79       16.2      122.8       16.2       18.4       12.5     1016.5       16.8       16.2        0.0        0.0        0.0       0.00        1.6       0.06       0.00        0.0
0:50              227        0.0         79       16.2      122.8       16.2       18.4       12.5     1016.5       16.8       16.2        0.0        0.0        0.0       0.00        1.6       0.06       0.00        0.0
0:52              227        4.8         79       16.2      122.8       16.2       18.4       12.5     1016.5       16.8       16.2        0.0        0.0        0.0       0.00        1.7       0.06       0.00        0.0
0:54              227        3.2         79       16.2      122.8       16.2       18.4       12.5     1016.6       16.8       16.2        0.0        0.0        0.0       0.00        1.7       0.06       0.00        0.0
0:56              227        3.2         80       16.2      122.8       16.2       18.5       12.7     1016.6       16.8       16.2        0.0        0.0        0.0       0.00        1.8       0.06       0.00        0.0
0:58              227        3.2         80       16.2      122.8       16.2       18.5       12.7     1016.5       16.8       16.1        0.0        0.0        0.0       0.00        1.9       0.06       0.00        0.0
1:00              227        3.2         80       16.1      122.8       16.1       18.5       12.7     1016.4       16.8       16.1        0.0        0.0        0.0       0.00        2.0       0.06       0.00        0.0
1:02              227        3.2         80       16.1      122.8       16.1       18.5       12.7     1016.5       16.8       16.1        0.0        0.0        0.0       0.00        2.1       0.08       0.00        0.0
1:04              227        3.2         80       16.1      122.8       16.1       18.5       12.7     1016.5       16.8       16.1        0.0        0.0        0.0       0.00        2.2       0.08       0.00        0.0
1:06              227        0.0         81       16.1      122.8       16.1       18.5       12.9     1016.5       16.8       16.1        0.0        0.0        0.0       0.00        2.2       0.08       0.00        0.0
1:08              227        4.8         81       16.1      122.8       16.1       18.5       12.9     1016.4       16.8       16.1        0.0        0.0        0.0       0.00        2.3       0.08       0.00        0.0
1:10              227        1.6         81       16.1      122.8       16.1       18.5       12.8     1016.4       16.8       16.1        0.0        0.0        0.0       0.00        2.3       0.08       0.00        0.0
1:12              227        1.6         81       16.1      122.8       16.1       18.5       12.8     1016.5       16.8       16.1        0.0        0.0        0.0       0.00        2.3       0.08       0.00        0.0
1:14              227        1.6         81       16.1      122.8       16.1       18.5       12.8     1016.5       16.8       16.1        0.0        0.0        0.0       0.00        2.4       0.08       0.00        0.0
1:16              227        1.6         81       16.1      122.8       16.1       18.5       12.8     1016.4       16.8       16.1        0.0        0.0        0.0       0.00        2.4       0.10       0.00        0.0
1:18              227        1.6         81       16.0      122.8       16.0       18.4       12.7     1016.4       16.8       16.0        0.0        0.0        0.0       0.00        2.5       0.10       0.00        0.0
1:20              227        1.6         81       16.0      122.8       16.0       18.4       12.7     1016.4       16.8       16.0        0.0        0.0        0.0       0.00        2.5       0.10       0.00        0.0
1:22              227        3.2         81       16.0      122.8       16.0       18.4       12.7     1016.4       16.8       16.0        0.0        0.0        0.0       0.00        2.6       0.10       0.00        0.0
1:24              227        1.6         81       16.0      122.8       16.0       18.4       12.7     1016.4       16.8       16.0        0.0        0.0        0.0       0.00        2.7       0.10       0.00        0.0
1:26              227        3.2         81       16.0      122.8       16.0       18.4       12.7     1016.5       16.8       15.9        0.0        0.0        0.0       0.00        2.7       0.10       0.00        0.0
1:28              227        1.6         82       16.0      122.8       16.0       18.5       12.9     1016.4       16.8       15.9        0.0        0.0        0.0       0.00        2.7       0.10       0.00        0.0
1:30              227        1.6         82       15.9      122.8       15.9       18.4       12.9     1016.4       16.8       15.9        0.0        0.0        0.0       0.00        2.8       0.10       0.00        0.0
1:32              227        1.6         82       15.9      122.8       15.9       18.4       12.9     1016.5       16.8       15.9        0.0        0.0        0.0       0.00        2.8       0.13       0.00        0.0
1:34              227        3.2         82       15.9      122.8       15.9       18.4       12.8     1016.4       16.8       15.9        0.0        0.0        0.0       0.00        2.9       0.13       0.00        0.0
1:36              227        0.0         82       15.9      122.8       15.9       18.4       12.8     1016.3       16.8       15.9        0.0        0.0        0.0       0.00        2.9       0.13       0.00        0.0
1:38              227        3.2         82       15.9      122.8       15.9       18.4       12.8     1016.4       16.8       15.9        0.0        0.0        0.0       0.00        2.9       0.13       0.00        0.0
1:40              227        3.2         82       15.8      122.8       15.8       18.3       12.8     1016.4       16.8       15.8        0.0        0.0        0.0       0.00        3.0       0.13       0.00        0.0
1:41              227        3.2         82       15.8      122.8       15.8       18.3       12.8     1016.3       16.8       15.8        0.0        0.0        0.0       0.00        3.0       0.13       0.00        0.0
1:44              227        4.8         82       15.8      122.8       15.8       18.3       12.8     1016.3       16.8       15.8        0.0        0.0        0.0       0.00        3.1       0.13       0.00        0.0
1:46              227        3.2         83       15.8      122.8       15.8       18.4       13.0     1016.3       16.8       15.8        0.0        0.0        0.0       0.00        3.2       0.15       0.00        0.0
1:48              227        1.6         83       15.8      122.8       15.8       18.4       13.0     1016.3       16.8       15.8        0.0        0.0        0.0       0.00        3.2       0.15       0.00        0.0
1:50              227        3.2         83       15.8      122.8       15.8       18.4       13.0     1016.4       16.8       15.8        0.0        0.0        0.0       0.00        3.3       0.15       0.00        0.0
1:52              227        1.6         83       15.8      122.8       15.8       18.4       13.0     1016.4       16.8       15.8        0.0        0.0        0.0       0.00        3.3       0.15       0.00        0.0
1:54              227        3.2         83       15.8      122.8       15.8       18.4       13.0     1016.3       16.8       15.8        0.0        0.0        0.0       0.00        3.4       0.15       0.00        0.0
1:56              227        3.2         83       15.8      122.8       15.8       18.4       13.0     1016.4       16.8       15.8        0.0        0.0        0.0       0.00        3.5       0.15       0.00        0.0
1:58              227        3.2         83       15.8      122.8       15.8       18.4       13.0     1016.4       16.8       15.8        0.0        0.0        0.0       0.00        3.5       0.15       0.00        0.0
2:00              227        3.2         83       15.8      122.8       15.8       18.4       13.0     1016.4       16.8       15.8        0.0        0.0        0.0       0.00        3.6       0.15       0.00        0.0
2:02              227        3.2         83       15.8      122.8       15.8       18.4       13.0     1016.4       16.8       15.8        0.0        0.0        0.0       0.00        3.7       0.17       0.00        0.0
2:04              227        3.2         83       15.8      122.8       15.8       18.4       13.0     1016.4       16.8       15.8        0.0        0.0        0.0       0.00        3.8       0.17       0.00        0.0
2:06              227        3.2         83       15.8      122.8       15.8       18.4       13.0     1016.3       16.8       15.8        0.0        0.0        0.0       0.00        3.8       0.17       0.00        0.0
2:08              227        3.2         83       15.8      122.8       15.8       18.4       13.0     1016.4       16.8       15.8        0.0        0.0        0.0       0.00        3.9       0.17       0.00        0.0
2:10              227        3.2         83       15.8      122.8       15.8       18.4       13.0     1016.4       16.8       15.8        0.0        0.0        0.0       0.00        4.0       0.17       0.00        0.0
2:12              227        3.2         83       15.8      122.8       15.8       18.4       13.0     1016.4       16.8       15.8        0.0        0.0        0.0       0.00        4.1       0.17       0.00        0.0
2:14              227        0.0         83       15.8      122.8       15.8       18.4       13.0     1016.3       16.8       15.8        0.0        0.0        0.0       0.00        4.2       0.17       0.00        0.0
2:16              227        0.0         84       15.8      122.8       15.8       18.5       13.1     1016.3       16.8       15.8        0.0        0.0        0.0       0.00        4.2       0.19       0.00        0.0
2:18              227        0.0         83       15.8      122.8       15.8       18.4       13.0     1016.3       16.8       15.8        0.0        0.0        0.0       0.00        4.2       0.19       0.00        0.0
2:19              227        1.6         84       15.8      122.8       15.8       18.5       13.1     1016.3       16.8       15.8        0.0        0.0        0.0       0.00        4.2       0.19       0.00        0.0
2:22              227        0.0         83       15.8      122.8       15.8       18.4       13.0     1016.3       16.8       15.8        0.0        0.0        0.0       0.00        4.2       0.19       0.00        0.0
2:24              227        3.2         83       15.8      122.8       15.8       18.4       13.0     1016.3       16.8       15.8        0.0        0.0        0.0       0.00        4.3       0.19       0.00        0.0
2:25              227        3.2         83       15.8      122.8       15.8       18.4       13.0     1016.3       16.8       15.8        0.0        0.0        0.0       0.00        4.3       0.19       0.00        0.0
2:28              227        1.6         84       15.8      122.8       15.8       18.5       13.1     1016.3       16.8       15.8        0.0        0.0        0.0       0.00        4.4       0.19       0.00        0.0
2:30              227        3.2         84       15.8      122.8       15.8       18.5       13.1     1016.3       16.8       15.8        0.0        0.0        0.0       0.00        4.4       0.19       0.00        0.0
2:32              227        0.0         84       15.8      122.8       15.8       18.5       13.1     1016.1       16.8       15.8        0.0        0.0        0.0       0.00        4.4       0.22       0.00        0.0
2:34              227        3.2         84       15.8      122.8       15.8       18.5       13.1     1016.2       16.8       15.8        0.0        0.0        0.0       0.00        4.5       0.22       0.00        0.0
2:36              227        3.2         84       15.8      122.8       15.8       18.5       13.1     1016.2       16.8       15.8        0.0        0.0        0.0       0.00        4.6       0.22       0.00        0.0
2:38              227        3.2         84       15.8      122.8       15.8       18.5       13.1     1016.1       16.8       15.8        0.0        0.0        0.0       0.00        4.6       0.22       0.00        0.0
2:40              227        0.0         84       15.8      122.8       15.8       18.5       13.1     1016.1       16.8       15.8        0.0        0.0        0.0       0.00        4.6       0.22       0.00        0.0
2:42              227        0.0         84       15.8      122.8       15.8       18.5       13.1     1016.0       16.8       15.8        0.0        0.0        0.0       0.00        4.6       0.22       0.00        0.0
2:44              227        0.0         84       15.8      122.8       15.8       18.5       13.1     1016.1       16.8       15.8        0.0        0.0        0.0       0.00        4.6       0.22       0.00        0.0
2:46              227        0.0         84       15.8      122.8       15.8       18.5       13.1     1016.0       16.8       15.8        0.0        0.0        0.0       0.00        4.6       0.24       0.00        0.0
2:48              227        0.0         84       15.8      122.8       15.8       18.5       13.1     1016.0       16.8       15.8        0.0        0.0        0.0       0.00        4.6       0.24       0.00        0.0
2:50              227        0.0         84       15.8      122.8       15.8       18.5       13.1     1016.0       16.8       15.8        0.0        0.0        0.0       0.00        4.6       0.24       0.00        0.0
2:52              227        0.0         84       15.8      122.8       15.8       18.5       13.1     1016.0       16.8       15.8        0.0        0.0        0.0       0.00        4.6       0.24       0.00        0.0
2:54              227        0.0         84       15.8      122.8       15.8       18.5       13.1     1016.0       16.8       15.8        0.0        0.0        0.0       0.00        4.6       0.24       0.00        0.0
2:56              227        0.0         84       15.9      122.8       15.9       18.5       13.2     1016.1       16.8       15.8        0.0        0.0        0.0       0.00        4.6       0.24       0.00        0.0
2:58              227        0.0         84       15.9      122.8       15.9       18.5       13.2     1016.1       16.8       15.8        0.0        0.0        0.0       0.00        4.6       0.24       0.00        0.0
3:00              227        0.0         84       15.9      122.8       15.9       18.5       13.2     1016.0       16.8       15.8        0.0        0.0        0.0       0.00        4.6       0.24       0.00        0.0
3:02              227        0.0         84       15.9      122.8       15.9       18.5       13.2     1016.0       16.8       15.8        0.0        0.0        0.0       0.00        4.6       0.26       0.00        0.0
3:04              227        0.0         84       15.9      122.8       15.9       18.5       13.2     1016.1       16.8       15.8        0.0        0.0        0.0       0.00        4.6       0.26       0.00        0.0
3:06              227        0.0         85       15.8      122.8       15.8       18.6       13.3     1016.1       16.8       15.8        0.0        0.0        0.0       0.00        4.6       0.26       0.00        0.0
3:08              227        0.0         85       15.8      122.8       15.8       18.6       13.3     1016.1       16.8       15.8        0.0        0.0        0.0       0.00        4.6       0.26       0.00        0.0
3:10              227        0.0         85       15.8      122.8       15.8       18.6       13.3     1016.0       16.8       15.8        0.0        0.0        0.0       0.00        4.6       0.26       0.00        0.0
3:12              227        0.0         85       15.8      122.8       15.8       18.6       13.3     1016.0       16.8       15.8        0.0        0.0        0.0       0.00        4.6       0.26       0.00        0.0
3:14              227        0.0         85       15.8      122.8       15.8       18.6       13.3     1016.0       16.8       15.8        0.0        0.0        0.0       0.00        4.6       0.26       0.00        0.0
3:16              227        0.0         85       15.8      122.8       15.8       18.6       13.3     1016.1       16.8       15.8        0.0        0.0        0.0       0.00        4.6       0.28       0.00        0.0
3:18              227        0.0         85       15.8      122.8       15.8       18.6       13.3     1016.1       16.8       15.8        0.0        0.0        0.0       0.00        4.6       0.28       0.00        0.0
3:20              227        0.0         85       15.8      122.8       15.8       18.6       13.3     1016.1       16.8       15.8        0.0        0.0        0.0       0.00        4.6       0.28       0.00        0.0
3:21              227        0.0         85       15.8      122.8       15.8       18.6       13.3     1016.1       16.8       15.8        0.0        0.0        0.0       0.00        4.6       0.28       0.00        0.0
3:24              227        0.0         85       15.8      122.8       15.8       18.6       13.3     1016.1       16.8       15.8        0.0        0.0        0.0       0.00        4.6       0.28       0.00        0.0
3:26              227        0.0         85       15.8      122.8       15.8       18.5       13.3     1016.1       16.8       15.8        0.0        0.0        0.0       0.00        4.6       0.28       0.00        0.0
3:28              227        0.0         85       15.8      122.8       15.8       18.5       13.3     1016.1       16.8       15.8        0.0        0.0        0.0       0.00        4.6       0.28       0.00        0.0
3:30              227        0.0         85       15.8      122.8       15.8       18.5       13.3     1016.1       16.8       15.8        0.0        0.0        0.0       0.00        4.6       0.28       0.00        0.0
3:32              227        0.0         85       15.8      122.8       15.8       18.5       13.3     1016.1       16.8       15.7        0.0        0.0        0.0       0.00        4.6       0.31       0.00        0.0
3:34              227        0.0         85       15.7      122.8       15.7       18.5       13.2     1016.1       16.8       15.7        0.0        0.0        0.0       0.00        4.6       0.31       0.00        0.0
3:36              227        0.0         85       15.7      122.8       15.7       18.5       13.2     1016.1       16.8       15.7        0.0        0.0        0.0       0.00        4.6       0.31       0.00        0.0
3:38              227        0.0         85       15.7      122.8       15.7       18.5       13.2     1016.2       16.8       15.7        0.0        0.0        0.0       0.00        4.6       0.31       0.00        0.0
3:40              227        0.0         85       15.7      122.8       15.7       18.4       13.2     1016.1       16.8       15.7        0.0        0.0        0.0       0.00        4.6       0.31       0.00        0.0
3:41              227        0.0         85       15.7      122.8       15.7       18.5       13.2     1016.2       16.8       15.7        0.0        0.0        0.0       0.00        4.6       0.31       0.00        0.0
3:44              227        0.0         85       15.7      122.8       15.7       18.5       13.2     1016.2       16.8       15.7        0.0        0.0        0.0       0.00        4.6       0.31       0.00        0.0
3:46              227        0.0         85       15.7      122.8       15.7       18.5       13.2     1016.2       16.8       15.7        0.0        0.0        0.0       0.00        4.6       0.33       0.00        0.0
3:48              227        0.0         85       15.7      122.8       15.7       18.5       13.2     1016.3       16.8       15.7        0.0        0.0        0.0       0.00        4.6       0.33       0.00        0.0
3:50              227        0.0         85       15.7      122.8       15.7       18.5       13.2     1016.3       16.8       15.7        0.0        0.0        0.0       0.00        4.6       0.33       0.00        0.0
3:52              227        0.0         85       15.7      122.8       15.7       18.5       13.2     1016.2       16.8       15.7        0.0        0.0        0.0       0.00        4.6       0.33       0.00        0.0
3:53              227        0.0         85       15.8      122.8       15.8       18.5       13.3     1016.1       16.8       15.7        0.0        0.0        0.0       0.00        4.6       0.33       0.00        0.0
3:56              227        0.0         85       15.8      122.8       15.8       18.5       13.3     1016.2       16.8       15.7        0.0        0.0        0.0       0.00        4.6       0.33       0.00        0.0
3:58              227        0.0         85       15.7      122.8       15.7       18.5       13.2     1016.2       16.8       15.7        0.0        0.0        0.0       0.00        4.6       0.33       0.00        0.0
4:00              227        0.0         85       15.7      122.8       15.7       18.5       13.2     1016.2       16.8       15.7        0.0        0.0        0.0       0.00        4.6       0.33       0.00        0.0
4:02              227        0.0         85       15.7      122.8       15.7       18.4       13.2     1016.3       16.8       15.7        0.0        0.0        0.0       0.00        4.6       0.35       0.00        0.0
4:04              227        0.0         85       15.7      122.8       15.7       18.4       13.2     1016.2       16.8       15.7        0.0        0.0        0.0       0.00        4.6       0.35       0.00        0.0
4:06              227        0.0         85       15.6      122.8       15.6       18.3       13.1     1016.2       16.8       15.6        0.0        0.0        0.0       0.00        4.6       0.35       0.00        0.0
4:08              227        0.0         85       15.6      122.8       15.6       18.3       13.1     1016.2       16.8       15.6        0.0        0.0        0.0       0.00        4.6       0.35       0.00        0.0
4:10              227        0.0         85       15.6      122.8       15.6       18.3       13.0     1016.2       16.8       15.6        0.0        0.0        0.0       0.00        4.6       0.35       0.00        0.0
4:12              227        0.0         85       15.6      122.8       15.6       18.3       13.0     1016.2       16.8       15.6        0.0        0.0        0.0       0.00        4.6       0.35       0.00        0.0
4:14              227        0.0         85       15.6      122.8       15.6       18.3       13.0     1016.2       16.8       15.6        0.0        0.0        0.0       0.00        4.6       0.35       0.00        0.0
4:16              227        0.0         85       15.5      122.8       15.5       18.2       13.0     1016.1       16.8       15.5        0.0        0.0        0.0       0.00        4.6       0.38       0.00        0.0
4:18              227        0.0         85       15.5      122.8       15.5       18.2       13.0     1016.2       16.8       15.5        0.0        0.0        0.0       0.00        4.6       0.38       0.00        0.0
4:20              227        0.0         85       15.4      122.8       15.4       18.2       12.9     1016.2       16.8       15.4        0.0        0.0        0.0       0.00        4.6       0.38       0.00        0.0
4:22              227        0.0         85       15.4      122.8       15.4       18.2       12.9     1016.1       16.8       15.4        0.0        0.0        0.0       0.00        4.6       0.38       0.00        0.0
4:24              227        0.0         85       15.4      122.8       15.4       18.2       12.9     1016.1       16.8       15.4        0.0        0.0        0.0       0.00        4.6       0.38       0.00        0.0
4:26              227        0.0         85       15.4      122.8       15.4       18.2       12.9     1016.1       16.8       15.4        0.0        0.0        0.0       0.00        4.6       0.38       0.00        0.0
4:28              227        0.0         86       15.4      122.8       15.4       18.3       13.1     1016.0       16.8       15.4        0.0        0.0        0.0       0.00        4.6       0.38       0.00        0.0
4:30              227        0.0         86       15.4      122.8       15.4       18.3       13.1     1016.0       16.8       15.4        0.0        0.0        0.0       0.00        4.6       0.38       0.00        0.0
4:32              227        0.0         86       15.4      122.8       15.4       18.3       13.1     1016.0       16.8       15.4        0.0        0.0        0.0       0.00        4.6       0.41       0.00        0.0
4:34              227        0.0         86       15.4      122.8       15.4       18.3       13.1     1016.2       16.8       15.4        0.0        0.0        0.0       0.00        4.6       0.41       0.00        0.0
4:35              227        0.0         86       15.4      122.8       15.4       18.3       13.1     1016.2       16.8       15.4        0.0        0.0        0.0       0.00        4.6       0.41       0.00        0.0
4:38              227        0.0         86       15.4      122.8       15.4       18.3       13.1     1016.2       16.8       15.4        0.0        0.0        0.0       0.00        4.6       0.41       0.00        0.0
4:39              227        0.0         86       15.4      122.8       15.4       18.3       13.1     1016.2       16.8       15.4        0.0        0.0        0.0       0.00        4.6       0.41       0.00        0.0
4:42              227        0.0         86       15.4      122.8       15.4       18.3       13.1     1016.2       16.8       15.4        0.0        0.0        0.0       0.00        4.6       0.41       0.00        0.0
4:44              227        0.0         86       15.4      122.8       15.4       18.3       13.1     1016.2       16.8       15.4        0.0        0.0        0.0       0.00        4.6       0.41       0.00        0.0
4:46              227        0.0         86       15.4      122.8       15.4       18.3       13.1     1016.3       16.8       15.4        0.0        0.0        0.0       0.00        4.6       0.43       0.00        0.0
4:47              227        0.0         86       15.4      122.8       15.4       18.2       13.1     1016.2       16.8       15.4        0.0        0.0        0.0       0.00        4.6       0.43       0.00        0.0
4:49              227        0.0         86       15.4      122.8       15.4       18.2       13.1     1016.1       16.8       15.4        0.0        0.0        0.0       0.00        4.6       0.43       0.00        0.0
4:52              227        0.0         86       15.4      122.8       15.4       18.2       13.1     1016.2       16.8       15.4        0.0        0.0        0.0       0.00        4.6       0.43       0.00        0.0
4:54              227        0.0         86       15.4      122.8       15.4       18.2       13.1     1016.2       16.8       15.4        0.0        0.0        0.0       0.00        4.6       0.43       0.00        0.0
4:56              227        0.0         86       15.4      122.8       15.4       18.2       13.1     1016.2       16.8       15.4        0.0        0.0        0.0       0.00        4.6       0.43       0.00        0.0
4:58              227        0.0         86       15.4      122.8       15.4       18.2       13.1     1016.3       16.8       15.4        0.0        0.0        0.0       0.00        4.6       0.43       0.00        0.0
5:00              227        0.0         86       15.4      122.8       15.4       18.2       13.1     1016.2       16.8       15.4        0.0        0.0        0.0       0.00        4.6       0.43       0.00        0.0
5:02              227        0.0         87       15.4      122.8       15.4       18.3       13.2     1016.2       16.8       15.4        0.0        0.0        0.0       0.00        4.6       0.46       0.00        0.0
5:04              227        0.0         87       15.4      122.8       15.4       18.3       13.2     1016.2       16.8       15.4        0.0        0.0        0.0       0.00        4.6       0.46       0.00        0.0
5:06              227        0.0         87       15.4      122.8       15.4       18.3       13.2     1016.2       16.8       15.4        0.0        0.0        0.0       0.00        4.6       0.46       0.00        0.0
5:07              227        0.0         87       15.4      122.8       15.4       18.3       13.2     1016.2       16.8       15.4        0.0        0.0        0.0       0.00        4.6       0.46       0.00        0.0
5:10              227        0.0         87       15.4      122.8       15.4       18.3       13.2     1016.2       16.8       15.4        0.0        0.0        0.0       0.00        4.6       0.46       0.00        0.0
5:12              227        0.0         87       15.4      122.8       15.4       18.3       13.2     1016.1       16.8       15.4        0.0        0.0        0.0       0.00        4.6       0.46       0.00        0.0
5:13              227        0.0         87       15.4      122.8       15.4       18.3       13.2     1016.2       16.8       15.4        0.0        0.0        0.0       0.00        4.6       0.46       0.00        0.0
5:16              227        0.0         87       15.4      122.8       15.4       18.3       13.2     1016.2       16.8       15.4        0.0        0.0        0.0       0.00        4.6       0.49       0.00        0.0
5:18              227        3.2         87       15.4      122.8       15.4       18.3       13.2     1016.2       16.8       15.4        0.0        0.0        0.0       0.00        4.7       0.49       0.00        0.0
5:20              227        0.0         87       15.4      122.8       15.4       18.3       13.2     1016.2       16.8       15.4        0.0        0.0        0.0       0.00        4.7       0.49       0.00        0.0
5:22              227        0.0         87       15.4      122.8       15.4       18.3       13.2     1016.1       16.8       15.4        0.0        0.0        0.0       0.00        4.7       0.49       0.00        0.0
5:24              227        0.0         87       15.4      122.8       15.4       18.3       13.2     1016.3       16.8       15.4        0.0        0.0        0.0       0.00        4.7       0.49       0.00        0.0
5:26              227        0.0         86       15.3      122.8       15.3       18.1       13.0     1016.3       16.8       15.3        0.0        0.0        0.0       0.00        4.7       0.49       0.00        0.0
5:28              227        0.0         86       15.3      122.8       15.3       18.1       13.0     1016.3       16.8       15.3        0.0        0.0        0.0       0.00        4.7       0.49       0.00        0.0
5:30              227        0.0         86       15.3      122.8       15.3       18.1       13.0     1016.3       16.8       15.3        0.0        0.0        0.0       0.00        4.7       0.49       0.00        0.0
5:32              227        0.0         86       15.3      122.8       15.3       18.1       13.0     1016.3       16.8       15.3        0.0        0.0        0.0       0.00        4.7       0.52       0.00        0.0
5:34              227        0.0         86       15.3      122.8       15.3       18.1       13.0     1016.4       16.8       15.3        0.0        0.0        0.0       0.00        4.7       0.52       0.00        0.0
5:35              227        0.0         86       15.3      122.8       15.3       18.1       13.0     1016.3       16.8       15.3        0.0        0.0        0.0       0.00        4.7       0.52       0.00        0.0
5:38              227        0.0         86       15.3      122.8       15.3       18.1       13.0     1016.3       16.8       15.3        0.0        0.0        0.0       0.00        4.7       0.52       0.00        0.0
5:40              227        0.0         86       15.3      122.8       15.3       18.1       13.0     1016.5       16.8       15.3        0.0        0.0        0.0       0.00        4.7       0.52       0.00        0.0
5:42              227        0.0         86       15.3      122.8       15.3       18.1       13.0     1016.4       16.8       15.3        0.0        0.0        0.0       0.00        4.7       0.52       0.00        0.0
5:43              227        0.0         86       15.3      122.8       15.3       18.1       13.0     1016.4       16.8       15.3        0.0        0.0        0.0       0.00        4.7       0.52       0.00        0.0
5:46              227        0.0         86       15.3      122.8       15.3       18.1       13.0     1016.4       16.8       15.3        0.0        0.0        0.0       0.00        4.7       0.54       0.00        0.0
5:48              227        0.0         86       15.3      122.8       15.3       18.1       13.0     1016.4       16.8       15.3        0.0        0.0        0.0       0.00        4.7       0.54       0.00        0.0
5:50              227        0.0         86       15.3      122.8       15.3       18.1       13.0     1016.3       16.8       15.3        0.0        0.0        0.0       0.00        4.7       0.54       0.00        0.0
5:52              227        0.0         86       15.3      122.8       15.3       18.1       13.0     1016.3       16.8       15.3        0.0        0.0        0.0       0.00        4.7       0.54       0.00        0.0
5:53              227        0.0         86       15.4      122.8       15.4       18.2       13.1     1016.5       16.8       15.3        0.0        0.0        0.0       0.00        4.7       0.54       0.00        0.0
5:56              227        0.0         86       15.4      122.8       15.4       18.2       13.1     1016.4       16.8       15.3        0.0        0.0        0.0       0.00        4.7       0.54       0.00        0.0
5:58              227        0.0         86       15.4      122.8       15.4       18.2       13.1     1016.4       16.8       15.3        0.0        0.0        0.0       0.00        4.7       0.54       0.00        0.0
6:00              227        0.0         86       15.4      122.8       15.4       18.3       13.1     1016.4       16.8       15.3        0.0        0.0        0.0       0.00        4.7       0.54       0.00        0.0
6:02              227        0.0         86       15.4      122.8       15.4       18.3       13.1     1016.3       16.8       15.3        0.0        0.0        0.0       0.00        4.7       0.57       0.00        0.0
6:04              227        0.0         85       15.4      122.8       15.4       18.2       12.9     1016.4       16.8       15.3        0.0        0.0        0.0       0.00        4.7       0.57       0.00        0.0
6:06              227        0.0         85       15.4      122.8       15.4       18.2       12.9     1016.4       16.8       15.3        0.0        0.0        0.0       0.00        4.7       0.57       0.00        0.0
6:08              227        0.0         84       15.5      122.8       15.5       18.2       12.8     1016.3       16.8       15.3        0.0        0.0        0.0       0.00        4.7       0.57       0.00        0.0
6:09              227        0.0         84       15.5      122.8       15.5       18.2       12.8     1016.4       16.8       15.3        0.0        0.0        0.0       0.00        4.7       0.57       0.00        0.0
6:12              227        0.0         84       15.6      122.8       15.6       18.2       12.9     1016.4       16.8       15.3        0.0        0.0        0.0       0.00        4.7       0.57       0.00        0.0
6:14              227        0.0         84       15.6      122.8       15.6       18.2       12.9     1016.3       16.8       15.3        0.0        0.0        0.0       0.00        4.7       0.57       0.00        0.0
6:16              227        0.0         83       15.6      122.8       15.6       18.2       12.7     1016.3       16.8       15.3        0.0        0.0        0.0       0.00        4.7       0.60       0.00        0.0
6:18              227        0.0         83       15.6      122.8       15.6       18.2       12.7     1016.4       16.8       15.3        0.0        0.0        0.0       0.00        4.7       0.60       0.00        0.0
6:20              227        0.0         83       15.7      122.8       15.7       18.2       12.8     1016.4       16.8       15.3        0.0        0.0        0.0       0.00        4.7       0.60       0.00        0.0
6:21              227        0.0         82       15.7      122.8       15.7       18.2       12.7     1016.4       16.8       15.3        0.0        0.0        0.0       0.00        4.7       0.60       0.00        0.0
6:24              227        0.0         82       15.8      122.8       15.8       18.3       12.7     1016.6       16.8       15.3        0.0        0.0        0.0       0.00        4.7       0.60       0.00        0.0
6:26              227        0.0         81       15.8      122.8       15.8       18.2       12.5     1016.5       16.8       15.3        0.0        0.0        0.0       0.00        4.7       0.60       0.00        0.0
6:28              227        0.0         80       15.8      122.8       15.8       18.1       12.3     1016.5       16.8       15.3        0.0        0.0        0.0       0.00        4.7       0.60       0.00        0.0
6:30              227        0.0         80       15.8      122.8       15.8       18.1       12.3     1016.5       16.8       15.3        0.0        0.0        0.0       0.00        4.7       0.60       0.00        0.0
6:32              227        0.0         79       15.8      122.8       15.8       18.1       12.1     1016.5       16.8       15.3        0.0        0.0        0.0       0.00        4.7       0.62       0.00        0.0
6:34              227        0.0         79       15.8      122.8       15.8       18.1       12.2     1016.5       16.8       15.3        0.0        0.0        0.0       0.00        4.7       0.62       0.00        0.0
6:36              227        0.0         78       15.9      122.8       15.9       18.1       12.1     1016.5       16.8       15.3        0.0        0.0        0.0       0.00        4.7       0.62       0.00        0.0
6:37              227        0.0         78       15.9      122.8       15.9       18.1       12.1     1016.4       16.8       15.3        0.0        0.0        0.0       0.00        4.7       0.62       0.00        0.0
6:40              227        0.0         78       16.0      122.8       16.0       18.2       12.2     1016.4       16.8       15.3        0.0        0.0        0.0       0.00        4.7       0.62       0.00        0.0
6:42              227        0.0         77       16.1      122.8       16.1       18.2       12.0     1016.4       16.8       15.3        0.0        0.0        0.0       0.00        4.7       0.62       0.00        0.0
6:44              227        0.0         77       16.1      122.8       16.1       18.2       12.1     1016.4       16.8       15.3        0.0        0.0        0.0       0.00        4.7       0.62       0.00        0.0
6:45              227        0.0         77       16.2      122.8       16.2       18.3       12.1     1016.5       16.8       15.3        0.0        0.0        0.0       0.00        4.7       0.64       0.00        0.0
6:48              227        0.0         76       16.3      122.8       16.3       18.3       12.0     1016.5       16.8       15.3        0.0        0.0        0.0       0.00        4.7       0.64       0.00        0.0
6:49              227        0.0         76       16.3      122.8       16.3       18.4       12.1     1016.5       16.8       15.3        0.0        0.0        0.0       0.00        4.7       0.64       0.00        0.0
6:52              227        0.0         76       16.4      122.8       16.4       18.5       12.2     1016.5       16.8       15.3        0.0        0.0        0.0       0.00        4.7       0.64       0.00        0.0
6:54              227        0.0         76       16.6      122.8       16.6       18.6       12.3     1016.5       16.8       15.3        0.0        0.0        0.0       0.00        4.7       0.64       0.00        0.0
6:56              227        0.0         75       16.7      122.8       16.7       18.7       12.2     1016.5       16.8       15.3        0.0        0.0        0.0       0.00        4.7       0.64       0.00        0.0
6:58              227        0.0         75       16.8      122.8       16.8       18.8       12.4     1016.5       16.8       15.3        0.0        0.0        0.0       0.00        4.7       0.64       0.00        0.0
7:00              227        0.0         74       16.9      122.8       16.9       18.8       12.2     1016.4       16.9       15.3        0.0        0.0        0.0       0.00        4.7       0.64       0.00        0.0
7:02              227        0.0         74       17.1      122.8       17.1       19.0       12.4     1016.5       17.1       15.3        0.0        0.0        0.0       0.00        4.7       0.65       0.00        0.0
7:04              227        0.0         74       17.1      122.8       17.1       19.0       12.4     1016.5       17.1       15.3        0.0        0.0        0.0       0.00        4.7       0.65       0.00        0.0
7:06              227        0.0         74       17.3      122.8       17.3       19.2       12.6     1016.6       17.3       15.3        0.0        0.0        0.0       0.00        4.7       0.65       0.00        0.0
7:07              227        0.0         73       17.4      122.8       17.4       19.2       12.5     1016.5       17.4       15.3        0.0        0.0        0.0       0.00        4.7       0.65       0.00        0.0
7:09              227        0.0         73       17.4      122.8       17.4       19.3       12.6     1016.6       17.4       15.3        0.0        0.0        0.0       0.00        4.7       0.65       0.00        0.0
7:12              227        0.0         73       17.5      122.8       17.5       19.3       12.6     1016.5       17.5       15.3        0.0        0.0        0.0       0.00        4.7       0.65       0.00        0.0
7:13              227        0.0         73       17.6      122.8       17.6       19.5       12.7     1016.5       17.6       15.3        0.0        0.0        0.0       0.00        4.7       0.65       0.00        0.0
7:16              227        0.0         73       17.7      122.8       17.7       19.6       12.8     1016.5       17.7       15.3        0.0        0.0        0.0       0.00        4.7       0.65       0.00        0.0
7:18              227        0.0         72       17.8      122.8       17.8       19.6       12.7     1016.6       17.8       15.3        0.0        0.0        0.0       0.00        4.7       0.65       0.00        0.0
7:20              227        0.0         72       17.9      122.8       17.9       19.7       12.8     1016.5       17.9       15.3        0.0        0.0        0.0       0.00        4.7       0.65       0.00        0.0
7:22              227        0.0         72       18.0      122.8       18.0       19.8       12.9     1016.5       18.0       15.3        0.0        0.0        0.0       0.00        4.7       0.65       0.00        0.0
7:24              227        0.0         72       18.1      122.8       18.1       19.9       13.0     1016.5       18.1       15.3        0.0        0.0        0.0       0.00        4.7       0.65       0.00        0.0
7:25              227        0.0         72       18.2      122.8       18.2       20.0       13.1     1016.5       18.2       15.3        0.0        0.0        0.0       0.00        4.7       0.65       0.00        0.0
7:28              227        0.0         71       18.3      122.8       18.3       20.0       13.0     1016.5       18.3       15.3        0.0        0.0        0.0       0.00        4.7       0.65       0.00        0.0
7:30              227        0.0         71       18.5      122.8       18.5       20.2       13.1     1016.6       18.5       15.3        0.0        0.0        0.0       0.00        4.7       0.65       0.00        0.0
7:32              227        0.0         71       18.6      122.8       18.6       20.3       13.2     1016.6       18.6       15.3        0.0        0.0        0.0       0.00        4.7       0.65       0.00        0.0
7:34              227        0.0         71       18.7      122.8       18.7       20.4       13.3     1016.7       18.7       15.3        0.0        0.0        0.0       0.00        4.7       0.65       0.00        0.0
7:36              227        0.0         71       18.8      122.8       18.8       20.5       13.4     1016.7       18.8       15.3        0.0        0.0        0.0       0.00        4.7       0.65       0.00        0.0
7:38              227        0.0         71       18.9      122.8       18.9       20.6       13.5     1016.7       18.9       15.3        0.0        0.0        0.0       0.00        4.7       0.65       0.00        0.0
7:40              227        0.0         70       19.0      122.8       19.0       20.6       13.4     1016.6       19.0       15.3        0.0        0.0        0.0       0.00        4.7       0.65       0.00        0.0
7:42              227        0.0         70       19.1      122.8       19.1       20.8       13.5     1016.7       19.1       15.3        0.0        0.0        0.0       0.00        4.7       0.65       0.00        0.0
7:44              227        0.0         70       19.3      122.8       19.3       20.9       13.7     1016.6       19.3       15.3        0.0        0.0        0.0       0.00        4.7       0.65       0.00        0.0
7:45              227        0.0         70       19.4      122.8       19.4       21.0       13.8     1016.7       19.4       15.3        0.0        0.0        0.0       0.00        4.7       0.65       0.00        0.0
7:48              227        0.0         69       19.5      122.8       19.5       21.1       13.7     1016.7       19.5       15.3        0.0        0.0        0.0       0.00        4.7       0.65       0.00        0.0
7:49              227        0.0         69       19.6      122.8       19.6       21.2       13.8     1016.7       19.6       15.3        0.0        0.0        0.0       0.00        4.7       0.65       0.00        0.0
7:51              227        0.0         69       19.7      122.8       19.7       21.3       13.9     1016.8       19.7       15.3        0.0        0.0        0.0       0.00        4.7       0.65       0.00        0.0
7:54              227        0.0         69       19.8      122.8       19.8       21.4       13.9     1016.8       19.8       15.3        0.0        0.0        0.0       0.00        4.7       0.65       0.00        0.0
7:56              227        0.0         68       19.9      122.8       19.9       21.5       13.9     1016.8       19.9       15.3        0.0        0.0        0.0       0.00        4.7       0.65       0.00        0.0
7:58              227        0.0         67       20.1      122.8       20.1       21.6       13.8     1016.8       20.1       15.3        0.0        0.0        0.0       0.00        4.7       0.65       0.00        0.0
8:00              227        0.0         67       20.2      122.8       20.2       21.7       13.9     1016.8       20.2       15.3        0.0        0.0        0.0       0.00        4.7       0.65       0.00        0.0
8:02              227        0.0         66       20.4      122.8       20.4       21.8       13.8     1016.8       20.4       15.3        0.0        0.0        0.0       0.00        4.7       0.65       0.00        0.0
8:03              227        0.0         66       20.4      122.8       20.4       21.8       13.8     1016.8       20.4       15.3        0.0        0.0        0.0       0.00        4.7       0.65       0.00        0.0
8:06              227        0.0         65       20.4      122.8       20.4       21.7       13.6     1016.8       20.4       15.3        0.0        0.0        0.0       0.00        4.7       0.65       0.00        0.0
8:08              227        0.0         65       20.4      122.8       20.4       21.8       13.6     1016.7       20.4       15.3        0.0        0.0        0.0       0.00        4.7       0.65       0.00        0.0
8:09              227        0.0         65       20.5      122.8       20.5       21.8       13.7     1016.7       20.5       15.3        0.0        0.0        0.0       0.00        4.7       0.65       0.00        0.0
8:12              227        0.0         64       20.6      122.8       20.6       21.8       13.5     1016.7       20.6       15.3        0.0        0.0        0.0       0.00        4.7       0.65       0.00        0.0
8:14              227        0.0         63       20.6      122.8       20.6       21.7       13.3     1016.6       20.6       15.3        0.0        0.0        0.0       0.00        4.7       0.65       0.00        0.0
8:16              227        0.0         63       20.6      122.8       20.6       21.8       13.3     1016.6       20.6       15.3        0.0        0.0        0.0       0.00        4.7       0.65       0.00        0.0
8:18              227        0.0         63       20.6      122.8       20.6       21.8       13.3     1016.6       20.6       15.3        0.0        0.0        0.0       0.00        4.7       0.65       0.00        0.0
8:20              227        0.0         63       20.7      122.8       20.7       21.9       13.4     1016.6       20.7       15.3        0.0        0.0        0.0       0.00        4.7       0.65       0.00        0.0
8:22              227        0.0         63       20.7      122.8       20.7       21.9       13.4     1016.5       20.7       15.3        0.0        0.0        0.0       0.00        4.7       0.65       0.00        0.0
8:23              227        0.0         63       20.8      122.8       20.8       22.0       13.5     1016.5       20.8       15.3        0.0        0.0        0.0       0.00        4.7       0.65       0.00        0.0
8:26              227        0.0         62       20.9      122.8       20.9       22.0       13.3     1016.5       20.9       15.3        0.0        0.0        0.0       0.00        4.7       0.65       0.00        0.0
8:28              227        0.0         62       21.0      122.8       21.0       22.1       13.4     1016.4       21.0       15.3        0.0        0.0        0.0       0.00        4.7       0.65       0.00        0.0
8:30              227        4.8         61       21.1      122.8       21.1       22.1       13.3     1016.5       21.1       15.3        0.0        0.0        0.0       0.00        4.8       0.65       0.00        0.0
8:32              227        0.0         60       21.1      122.8       21.1       22.1       13.1     1016.5       21.1       15.3        0.0        0.0        0.0       0.00        4.8       0.65       0.00        0.0
8:34              227        0.0         60       21.1      122.8       21.1       22.1       13.1     1016.6       21.1       15.3        0.0        0.0        0.0       0.00        4.8       0.65       0.00        0.0
8:36              227        1.6         60       21.2      122.8       21.2       22.2       13.2     1016.6       21.2       15.3        0.0        0.0        0.0       0.00        4.8       0.65       0.00        0.0
8:38              227        3.2         60       21.3      122.8       21.3       22.3       13.3     1016.6       21.3       15.3        0.0        0.0        0.0       0.00        4.9       0.65       0.00        0.0
8:40              227        3.2         59       21.4      122.8       21.4       22.3       13.1     1016.6       21.4       15.3        0.0        0.0        0.0       0.00        5.0       0.65       0.00        0.0
8:41              227        1.6         57       21.5      122.8       21.5       22.3       12.6     1016.5       21.5       15.3        0.0        0.0        0.0       0.00        5.0       0.65       0.00        0.0
8:44              227        4.8         57       21.6      122.8       21.6       22.4       12.7     1016.6       21.6       15.3        0.0        0.0        0.0       0.00        5.0       0.65       0.00        0.0
8:46              227        3.2         56       21.6      122.8       21.6       22.3       12.4     1016.5       21.6       15.3        0.0        0.0        0.0       0.00        5.1       0.65       0.00        0.0
8:48              227        3.2         56       21.6      122.8       21.6       22.3       12.4     1016.5       21.6       15.3        0.0        0.0        0.0       0.00        5.2       0.65       0.00        0.0
8:50              227        1.6         55       21.5      122.8       21.5       22.2       12.1     1016.5       21.6       15.3        0.0        0.0        0.0       0.00        5.3       0.65       0.00        0.0
8:52              227        0.0         56       21.5      122.8       21.5       22.3       12.4     1016.5       21.6       15.3        0.0        0.0        0.0       0.00        5.3       0.65       0.00        0.0
8:54              227        1.6         56       21.6      122.8       21.6       22.4       12.5     1016.5       21.6       15.3        0.0        0.0        0.0       0.00        5.3       0.65       0.00        0.0
8:56              227        8.0         56       21.7      122.8       21.1       22.5       12.6     1016.5       21.7       15.3        0.0        0.0        0.0       0.00        5.4       0.65       0.00        0.0
8:58              227        4.8         54       21.8      122.8       21.8       22.5       12.1     1016.5       21.8       15.3        0.0        0.0        0.0       0.00        5.6       0.65       0.00        0.0
9:00              227        1.6         53       21.9      122.8       21.9       22.6       11.9     1016.4       21.9       15.3        0.0        0.0        0.0       0.00        5.7       0.65       0.00        0.0
9:02              227        6.4         52       22.0      122.8       22.0       22.6       11.7     1016.5       22.0       15.3        0.0        0.0        0.0       0.00        5.7       0.65       0.00        0.0
9:04              227        8.0         52       22.1      122.8       22.1       22.6       11.8     1016.5       22.1       15.3        0.0        0.0        0.0       0.00        5.9       0.65       0.00        0.0
9:06              225        6.4         52       22.2      122.8       22.2       22.7       11.9     1016.5       22.2       15.3        0.0        0.0        0.0       0.00        6.1       0.65       0.00        0.0
9:08              204       14.5         52       22.2      122.8       21.2       22.8       11.9     1016.5       22.2       15.3        0.0        0.0        0.0       0.00        6.3       0.65       0.00        0.0
9:10              192        8.0         51       22.3      122.8       22.3       22.8       11.7     1016.5       22.3       15.3        0.0        0.0        0.0       0.00        6.5       0.65       0.00        0.0
9:12              191        3.2         50       22.3      122.8       22.3       22.8       11.4     1016.5       22.3       15.3        0.0        0.0        0.0       0.00        6.6       0.65       0.00        0.0
9:14              189        3.2         51       22.4      122.8       22.4       22.9       11.8     1016.4       22.4       15.3        0.0        0.0        0.0       0.00        6.7       0.65       0.00        0.0
9:16              189        3.2         51       22.4      122.8       22.4       22.9       11.8     1016.5       22.4       15.3        0.0        0.0        0.0       0.00        6.8       0.65       0.00        0.0
9:17              189        3.2         51       22.5      122.8       22.5       23.0       11.9     1016.5       22.5       15.3        0.0        0.0        0.0       0.00        6.9       0.65       0.00        0.0
9:20              189        0.0         50       22.6      122.8       22.6       23.0       11.6     1016.5       22.6       15.3        0.0        0.0        0.0       0.00        6.9       0.65       0.00        0.0
9:22              189        0.0         50       22.6      122.8       22.6       23.0       11.6     1016.5       22.6       15.3        0.0        0.0        0.0       0.00        6.9       0.65       0.00        0.0
9:24              189        0.0         50       22.6      122.8       22.6       23.0       11.6     1016.4       22.6       15.3        0.0        0.0        0.0       0.00        6.9       0.65       0.00        0.0
9:26              189        0.0         50       22.6      122.8       22.6       23.0       11.6     1016.5       22.6       15.3        0.0        0.0        0.0       0.00        6.9       0.65       0.00        0.0
9:27              189        0.0         50       22.6      122.8       22.6       23.0       11.6     1016.5       22.6       15.3        0.0        0.0        0.0       0.00        6.9       0.65       0.00        0.0
9:30              189        0.0         50       22.6      122.8       22.6       23.0       11.6     1016.5       22.6       15.3        0.0        0.0        0.0       0.00        6.9       0.65       0.00        0.0
9:32              195        3.2         50       22.6      122.8       22.6       23.0       11.6     1016.5       22.6       15.3        0.0        0.0        0.0       0.00        7.0       0.65       0.01        0.0
9:34              196        0.0         50       22.7      122.8       22.7       23.2       11.8     1016.5       22.7       15.3        0.0        0.0        0.0       0.00        7.1       0.65       0.01        0.0
9:36              196        6.4         48       22.7      122.8       22.7       23.1       11.2     1016.4       22.7       15.3        0.0        0.0        0.0       0.00        7.2       0.65       0.01        0.0
9:37              195        3.2         48       22.9      122.8       22.9       23.2       11.3     1016.3       22.9       15.3        0.0        0.0        0.0       0.00        7.3       0.65       0.01        0.0
9:40              194        3.2         47       23.1      122.8       23.1       23.3       11.1     1016.2       23.1       15.3        0.0        0.0        0.0       0.00        7.5       0.65       0.01        0.0
9:42              195        0.0         47       23.1      122.8       23.1       23.3       11.1     1016.3       23.1       15.3        0.0        0.0        0.0       0.00        7.5       0.65       0.01        0.0
9:44              195        0.0         47       23.1      122.8       23.1       23.3       11.1     1016.2       23.1       15.3        0.0        0.0        0.0       0.00        7.5       0.65       0.01        0.0
9:46              192       11.3         45       23.5      122.8       23.5       23.7       10.9     1016.1       23.5       15.3        0.0        0.0        0.0       0.00        7.7       0.65       0.02        0.0
9:48              188       11.3         44       23.6      122.8       22.4       23.8       10.7     1016.2       23.6       15.3        0.0        0.0        0.0       0.00        7.8       0.65       0.02        0.0
9:50              190        8.0         43       23.7      122.8       23.7       23.8       10.4     1016.1       23.7       15.3        0.0        0.0        0.0       0.00        8.1       0.65       0.02        0.0
9:52              196        0.0         43       23.7      122.8       23.7       23.8       10.4     1016.2       23.7       15.3        0.0        0.0        0.0       0.00        8.2       0.65       0.02        0.0
9:53              206        6.4         43       23.7      122.8       23.7       23.8       10.4     1016.2       23.7       15.3        0.0        0.0        0.0       0.00        8.3       0.65       0.02        0.0
9:56              206        3.2         43       23.6      122.8       23.6       23.7       10.3     1016.1       23.7       15.3        0.0        0.0        0.0       0.00        8.4       0.65       0.02        0.0
9:58              206        6.4         43       23.5      122.8       23.5       23.6       10.2     1016.2       23.7       15.3        0.0        0.0        0.0       0.00        8.5       0.65       0.02        0.0
10:00             187        8.0         44       23.5      122.8       23.0       23.6       10.6     1016.1       23.7       15.3        0.0        0.0        0.0       0.00        8.7       0.65       0.02        0.0
10:02             165        6.4         44       23.6      122.8       23.6       23.8       10.7     1016.0       23.7       15.3        0.0        0.0        0.0       0.00        8.9       0.65       0.04        0.0
10:04             165        6.4         44       23.7      122.8       23.7       23.8       10.7     1016.0       23.7       15.3        0.0        0.0        0.0       0.00        9.0       0.65       0.04        0.0
10:06             167       12.9         43       23.8      122.8       23.8       23.9       10.5     1016.0       23.8       15.3        0.0        0.0        0.0       0.00        9.2       0.65       0.04        0.0
10:07             166        8.0         43       23.9      122.8       23.9       24.0       10.6     1015.9       23.9       15.3        0.0        0.0        0.0       0.00        9.3       0.65       0.04        0.0
10:10             166        9.7         43       24.0      122.8       23.5       24.1       10.7     1015.9       24.0       15.3        0.0        0.0        0.0       0.00        9.5       0.65       0.04        0.0
10:12             165        6.4         42       24.2      122.8       24.2       24.2       10.5     1016.0       24.2       15.3        0.0        0.0        0.0       0.00        9.7       0.65       0.04        0.0
10:14             162        3.2         42       24.3      122.8       24.3       24.3       10.6     1016.0       24.3       15.3        0.0        0.0        0.0       0.00        9.9       0.65       0.04        0.0
10:15             157       11.3         42       24.4      122.8       23.3       24.4       10.7     1015.9       24.4       15.3        0.0        0.0        0.0       0.00       10.1       0.65       0.06        0.0
10:18             158       11.3         41       24.5      122.8       23.4       24.5       10.4     1015.9       24.5       15.3        0.0        0.0        0.0       0.00       10.3       0.65       0.06        0.0
10:20             159        9.7         42       24.6      122.8       24.6       24.7       10.9     1015.9       24.6       15.3        0.0        0.0        0.0       0.00       10.5       0.65       0.06        0.0
10:22             159        6.4         42       24.7      122.8       24.7       24.7       10.9     1015.8       24.7       15.3        0.0        0.0        0.0       0.00       10.7       0.65       0.06        0.0
10:24             159        3.2         41       24.7      122.8       24.7       24.7       10.5     1015.9       24.7       15.3        0.0        0.0        0.0       0.00       10.8       0.65       0.06        0.0
10:26             159        8.0         42       24.6      122.8       24.2       24.7       10.9     1015.9       24.7       15.3        0.0        0.0        0.0       0.00       10.9       0.65       0.06        0.0
10:28             158        9.7         42       24.6      122.8       23.8       24.7       10.9     1015.9       24.7       15.3        0.0        0.0        0.0       0.00       11.0       0.65       0.06        0.0
10:30             178       12.9         42       24.7      122.8       24.3       24.8       11.0     1016.0       24.7       15.3        0.0        0.0        0.0       0.00       11.4       0.65       0.06        0.0
10:32             182        4.8         41       24.7      122.8       24.7       24.7       10.6     1016.0       24.7       15.3        0.0        0.0        0.0       0.00       11.5       0.65       0.09        0.0
10:34             184        4.8         41       24.8      122.8       24.8       24.8       10.6     1015.9       24.8       15.3        0.0        0.0        0.0       0.00       11.7       0.65       0.09        0.0
10:36             178        8.0         41       24.8      122.8       24.8       24.8       10.6     1015.9       24.8       15.3        0.0        0.0        0.0       0.00       11.9       0.65       0.09        0.0
10:38             180        1.6         41       24.8      122.8       24.8       24.8       10.7     1015.9       24.8       15.3        0.0        0.0        0.0       0.00       12.0       0.65       0.09        0.0
10:40             172       11.3         41       24.8      122.8       23.8       24.8       10.7     1015.8       24.8       15.3        0.0        0.0        0.0       0.00       12.2       0.65       0.09        0.0
10:42             172        9.7         41       24.8      122.8       24.4       24.8       10.7     1015.8       24.8       15.3        0.0        0.0        0.0       0.00       12.5       0.65       0.09        0.0
10:44             169        8.0         41       24.9      122.8       24.9       24.9       10.7     1015.9       24.9       15.3        0.0        0.0        0.0       0.00       12.7       0.65       0.09        0.0
10:46             169        1.6         41       24.9      122.8       24.9       24.9       10.8     1015.9       24.9       15.3        0.0        0.0        0.0       0.00       12.8       0.65       0.12        0.0
10:47             169       11.3         42       25.1      122.8       25.1       25.1       11.3     1015.9       25.1       15.3        0.0        0.0        0.0       0.00       12.9       0.65       0.12        0.0
10:50             199        4.8         41       25.1      122.8       25.1       25.1       10.9     1015.9       25.1       15.3        0.0        0.0        0.0       0.00       13.1       0.65       0.12        0.0
10:52             209        1.6         41       24.9      122.8       24.9       24.9       10.8     1015.9       25.1       15.3        0.0        0.0        0.0       0.00       13.2       0.65       0.12        0.0
10:54             209        3.2         41       24.9      122.8       24.9       24.9       10.8     1016.0       25.1       15.3        0.0        0.0        0.0       0.00       13.3       0.65       0.12        0.0
10:56             217        6.4         42       24.8      122.8       24.8       24.9       11.1     1016.0       25.1       15.3        0.0        0.0        0.0       0.00       13.5       0.65       0.12        0.0
10:58             222        4.8         42       24.7      122.8       24.7       24.8       11.0     1016.0       25.1       15.3        0.0        0.0        0.0       0.00       13.7       0.65       0.12        0.0
11:00             215        8.0         43       24.6      122.8       24.6       24.7       11.2     1016.0       25.1       15.3        0.0        0.0        0.0       0.00       13.9       0.65       0.12        0.0
11:02             215        9.7         43       24.6      122.8       24.6       24.7       11.2     1016.0       25.1       15.3        0.0        0.0        0.0       0.00       14.0       0.65       0.15        0.0
11:04             217        8.0         43       24.6      122.8       24.2       24.7       11.2     1015.9       25.1       15.3        0.0        0.0        0.0       0.00       14.1       0.65       0.15        0.0
11:06             161       12.9         41       24.7      122.8       23.3       24.7       10.5     1016.0       25.1       15.3        0.0        0.0        0.0       0.00       14.4       0.65       0.15        0.0
11:08             151        6.4         42       24.9      122.8       24.9       24.9       11.1     1016.0       25.1       15.3        0.0        0.0        0.0       0.00       14.6       0.65       0.15        0.0
11:10             151        3.2         41       25.1      122.8       25.1       25.1       10.9     1016.0       25.1       15.3        0.0        0.0        0.0       0.00       14.7       0.65       0.15        0.0
11:12             175        9.7         39       25.2      122.8       25.2       25.1       10.3     1016.0       25.2       15.3        0.0        0.0        0.0       0.00       15.0       0.65       0.15        0.0
11:14             175       16.1         38       25.3      122.8       23.5       25.2       10.0     1016.0       25.3       15.3        0.0        0.0        0.0       0.00       15.1       0.65       0.15        0.0
11:16             184       11.3         36       25.4      122.8       24.8       25.2        9.3     1016.0       25.4       15.3        0.0        0.0        0.0       0.00       15.5       0.65       0.19        0.0
11:18             175       11.3         36       25.6      122.8       25.6       25.3        9.4     1015.9       25.6       15.3        0.0        0.0        0.0       0.00       15.9       0.65       0.19        0.0
11:20             159        6.4         37       25.7      122.8       25.7       25.5        9.9     1015.8       25.7       15.3        0.0        0.0        0.0       0.00       16.1       0.65       0.19        0.0
11:21             150        6.4         38       25.7      122.8       25.7       25.6       10.4     1015.8       25.7       15.3        0.0        0.0        0.0       0.00       16.3       0.65       0.19        0.0
11:24             150        4.8         39       25.8      122.8       25.8       25.7       10.8     1015.8       25.8       15.3        0.0        0.0        0.0       0.00       16.4       0.65       0.19        0.0
11:26             152        8.0         39       25.9      122.8       25.6       25.9       10.9     1015.8       25.9       15.3        0.0        0.0        0.0       0.00       16.5       0.65       0.19        0.0
11:28             171       11.3         38       26.1      122.8       25.2       25.9       10.6     1015.8       26.1       15.3        0.0        0.0        0.0       0.00       16.8       0.65       0.19        0.0
11:30             163       14.5         35       26.1      122.8       25.5       25.9        9.5     1015.7       26.1       15.3        0.0        0.0        0.0       0.00       17.2       0.65       0.19        0.0
11:32             179       12.9         36       26.2      122.8       25.8       26.0        9.9     1015.7       26.2       15.3        0.0        0.0        0.0       0.00       17.6       0.65       0.23        0.0
11:34             189       12.9         37       26.2      122.8       25.8       26.0       10.3     1015.8       26.2       15.3        0.0        0.0        0.0       0.00       17.8       0.65       0.23        0.0
11:36             175       17.7         37       26.2      122.8       25.0       26.0       10.3     1015.8       26.2       15.3        0.0        0.0        0.0       0.00       18.1       0.65       0.23        0.0
11:37             173       12.9         36       26.2      122.8       25.5       26.0        9.9     1015.8       26.2       15.3        0.0        0.0        0.0       0.00       18.3       0.65       0.23        0.0
11:40             172        8.0         37       26.2      122.8       26.2       26.1       10.4     1015.7       26.2       15.3        0.0        0.0        0.0       0.00       18.5       0.65       0.23        0.0
11:42             168       11.3         38       26.3      122.8       26.3       26.2       10.9     1015.7       26.3       15.3        0.0        0.0        0.0       0.00       18.7       0.65       0.23        0.0
11:44             171        6.4         36       26.4      122.8       26.4       26.2       10.1     1015.7       26.4       15.3        0.0        0.0        0.0       0.00       18.9       0.65       0.23        0.0
11:46             174       16.1         37       26.5      122.8       25.2       26.3       10.6     1015.6       26.5       15.3        0.0        0.0        0.0       0.00       19.2       0.65       0.27        0.0
11:48             209       12.9         37       26.6      122.8       26.2       26.4       10.7     1015.7       26.6       15.3        0.0        0.0        0.0       0.00       19.6       0.65       0.27        0.0
11:49             213        9.7         37       26.6      122.8       26.6       26.4       10.7     1015.6       26.6       15.3        0.0        0.0        0.0       0.00       19.8       0.65       0.27        0.0
11:52             173       22.5         37       26.5      122.8       24.4       26.3       10.6     1015.5       26.6       15.3        0.0        0.0        0.0       0.00       20.2       0.65       0.27        0.0
11:54             179       16.1         37       26.5      122.8       25.4       26.3       10.6     1015.6       26.6       15.3        0.0        0.0        0.0       0.00       20.7       0.65       0.27        0.0
11:56             169        8.0         37       26.5      122.8       26.1       26.3       10.6     1015.6       26.6       15.3        0.0        0.0        0.0       0.00       20.9       0.65       0.27        0.0
11:58             173       20.9         37       26.6      122.8       25.5       26.4       10.7     1015.5       26.6       15.3        0.0        0.0        0.0       0.00       21.2       0.65       0.27        0.0
12:00             202       16.1         37       26.6      122.8       26.2       26.4       10.7     1015.5       26.6       15.3        0.0        0.0        0.0       0.00       21.5       0.65       0.27        0.0
12:01             208        6.4         36       26.6      122.8       26.6       26.4       10.3     1015.5       26.6       15.3        0.0        0.0        0.0       0.00       21.8       0.65       0.32        0.0
12:04             213        9.7         37       26.6      122.8       26.2       26.4       10.7     1015.4       26.6       15.3        0.0        0.0        0.0       0.00       21.9       0.65       0.32        0.0
12:06             219        9.7         37       26.4      122.8       26.4       26.3       10.6     1015.4       26.6       15.3        0.0        0.0        0.0       0.00       22.1       0.65       0.32        0.0
12:08             216       20.9         38       26.4      122.8       24.5       26.3       10.9     1015.4       26.6       15.3        0.0        0.0        0.0       0.00       22.3       0.65       0.32        0.0
12:10             180       16.1         38       26.4      122.8       26.0       26.3       10.9     1015.4       26.6       15.3        0.0        0.0        0.0       0.00       22.7       0.65       0.32        0.0
12:12             192        9.7         38       26.5      122.8       26.5       26.4       11.0     1015.5       26.6       15.3        0.0        0.0        0.0       0.00       23.0       0.65       0.32        0.0
12:14             246       16.1         37       26.6      122.8       25.5       26.4       10.7     1015.4       26.6       15.3        0.0        0.0        0.0       0.00       23.4       0.65       0.32        0.0
12:16             175       17.7         38       26.5      122.8       25.7       26.4       11.0     1015.4       26.6       15.3        0.0        0.0        0.0       0.00       23.7       0.65       0.37        0.0
12:18             178       17.7         38       26.5      122.8       26.5       26.4       11.0     1015.5       26.6       15.3        0.0        0.0        0.0       0.00       24.1       0.65       0.37        0.0
12:20             215        9.7         37       26.6      122.8       26.0       26.4       10.7     1015.4       26.6       15.3        0.0        0.0        0.0       0.00       24.4       0.65       0.37        0.0
12:21             210       14.5         38       26.5      122.8       25.9       26.4       11.0     1015.3       26.6       15.3        0.0        0.0        0.0       0.00       24.6       0.65       0.37        0.0
12:24             197       17.7         38       26.5      122.8       25.4       26.4       11.0     1015.3       26.6       15.3        0.0        0.0        0.0       0.00       25.0       0.65       0.37        0.0
12:26             217       11.3         38       26.6      122.8       26.2       26.4       11.1     1015.2       26.6       15.3        0.0        0.0        0.0       0.00       25.3       0.65       0.37        0.0
12:28             191       20.9         37       26.5      122.8       25.2       26.3       10.6     1015.2       26.6       15.3        0.0        0.0        0.0       0.00       25.7       0.65       0.37        0.0
12:30             184       16.1         38       26.5      122.8       25.4       26.4       11.0     1015.2       26.6       15.3        0.0        0.0        0.0       0.00       26.2       0.65       0.37        0.0
12:32             217       24.1         38       26.5      122.8       25.4       26.4       11.0     1015.2       26.6       15.3        0.0        0.0        0.0       0.00       26.6       0.65       0.42        0.0
12:34             214       16.1         38       26.5      122.8       25.7       26.4       11.0     1015.2       26.6       15.3        0.0        0.0        0.0       0.00       27.0       0.65       0.42        0.0
12:36             188       19.3         38       26.4      122.8       25.1       26.3       11.0     1015.0       26.6       15.3        0.0        0.0        0.0       0.00       27.4       0.65       0.42        0.0
12:38             209       12.9         39       26.4      122.8       26.1       26.4       11.4     1015.0       26.6       15.3        0.0        0.0        0.0       0.00       27.8       0.65       0.42        0.0
12:40             203        9.7         39       26.5      122.8       26.1       26.4       11.4     1015.0       26.6       15.3        0.0        0.0        0.0       0.00       28.2       0.65       0.42        0.0
12:42             203       11.3         38       26.6      122.8       26.6       26.4       11.1     1015.0       26.6       15.3        0.0        0.0        0.0       0.00       28.6       0.65       0.42        0.0
12:43             188       12.9         39       26.7      122.8       25.6       26.6       11.6     1015.0       26.7       15.3        0.0        0.0        0.0       0.00       29.0       0.65       0.42        0.0
12:46             184       14.5         39       26.7      122.8       25.4       26.6       11.6     1014.9       26.7       15.3        0.0        0.0        0.0       0.00       29.4       0.65       0.47        0.0
12:48             191       16.1         39       26.7      122.8       25.4       26.6       11.6     1015.0       26.7       15.3        0.0        0.0        0.0       0.00       29.8       0.65       0.47        0.0
12:50             196       14.5         38       26.7      122.8       25.7       26.6       11.2     1015.0       26.7       15.3        0.0        0.0        0.0       0.00       30.2       0.65       0.47        0.0
12:52             202       14.5         39       26.8      122.8       26.4       26.7       11.7     1014.9       26.8       15.3        0.0        0.0        0.0       0.00       30.6       0.65       0.47        0.0
12:54             198        9.7         39       26.8      122.8       26.5       26.7       11.7     1014.8       26.8       15.3        0.0        0.0        0.0       0.00       30.9       0.65       0.47        0.0
12:56             190       11.3         39       27.0      122.8       27.0       26.8       11.9     1014.9       27.0       15.3        0.0        0.0        0.0       0.00       31.3       0.65       0.47        0.0
12:58             185       14.5         39       27.1      122.8       26.8       26.9       12.0     1014.8       27.1       15.3        0.0        0.0        0.0       0.00       31.6       0.65       0.47        0.0
13:00             196       12.9         38       27.2      122.8       26.3       26.9       11.7     1014.7       27.2       15.3        0.0        0.0        0.0       0.00       31.9       0.65       0.47        0.0
13:02             167       24.1         38       27.3      122.8       25.5       27.0       11.7     1014.7       27.3       15.3        0.0        0.0        0.0       0.00       32.4       0.65       0.52        0.0
13:04             175       20.9         38       27.4      122.8       26.9       27.0       11.8     1014.6       27.4       15.3        0.0        0.0        0.0       0.00       33.0       0.65       0.52        0.0
13:06             207       12.9         38       27.4      122.8       27.4       27.1       11.9     1014.6       27.4       15.3        0.0        0.0        0.0       0.00       33.3       0.65       0.52        0.0
13:08             186       11.3         37       27.5      122.8       27.5       27.1       11.5     1014.6       27.5       15.3        0.0        0.0        0.0       0.00       33.6       0.65       0.52        0.0
13:10             171       20.9         37       27.6      122.8       26.4       27.1       11.6     1014.6       27.6       15.3        0.0        0.0        0.0       0.00       34.1       0.65       0.52        0.0
13:12             179       17.7         37       27.7      122.8       26.6       27.2       11.7     1014.5       27.7       15.3        0.0        0.0        0.0       0.00       34.7       0.65       0.52        0.0
13:14             188       12.9         38       27.7      122.8       27.2       27.3       12.1     1014.5       27.7       15.3        0.0        0.0        0.0       0.00       35.2       0.65       0.52        0.0
13:16             177       16.1         38       27.8      122.8       27.3       27.4       12.2     1014.5       27.8       15.3        0.0        0.0        0.0       0.00       35.5       0.65       0.58        0.0
13:18             182       16.1         37       27.9      122.8       27.7       27.4       11.9     1014.4       27.9       15.3        0.0        0.0        0.0       0.00       35.8       0.65       0.58        0.0
13:20             177       16.1         37       28.1      122.8       26.9       27.5       12.0     1014.4       28.1       15.3        0.0        0.0        0.0       0.00       36.1       0.65       0.58        0.0
13:22             194       16.1         37       28.1      122.8       27.7       27.6       12.1     1014.4       28.1       15.3        0.0        0.0        0.0       0.00       36.4       0.65       0.58        0.0
13:23             222        8.0         36       28.2      122.8       27.9       27.5       11.7     1014.3       28.2       15.3        0.0        0.0        0.0       0.00       36.8       0.65       0.58        0.0
13:26             173       24.1         37       28.1      122.8       26.9       27.6       12.1     1014.4       28.2       15.3        0.0        0.0        0.0       0.00       37.3       0.65       0.58        0.0
13:28             178       11.3         36       28.2      122.8       27.5       27.5       11.7     1014.3       28.2       15.3        0.0        0.0        0.0       0.00       37.8       0.65       0.58        0.0
13:30             173       16.1         36       28.2      122.8       27.3       27.6       11.7     1014.1       28.2       15.3        0.0        0.0        0.0       0.00       38.2       0.65       0.58        0.0
13:32             176       19.3         36       28.3      122.8       28.1       27.7       11.8     1014.2       28.3       15.3        0.0        0.0        0.0       0.00       38.6       0.65       0.64        0.0
13:34             179       14.5         36       28.4      122.8       28.0       27.7       11.9     1014.2       28.4       15.3        0.0        0.0        0.0       0.00       39.1       0.65       0.64        0.0
13:35             185       16.1         36       28.4      122.8       28.0       27.8       11.9     1014.2       28.4       15.3        0.0        0.0        0.0       0.00       39.5       0.65       0.64        0.0
13:38             202       17.7         35       28.4      122.8       28.2       27.7       11.5     1014.1       28.4       15.3        0.0        0.0        0.0       0.00       39.9       0.65       0.64        0.0
13:40             167       25.7         35       28.4      122.8       26.9       27.7       11.5     1014.2       28.4       15.3        0.0        0.0        0.0       0.00       40.2       0.65       0.64        0.0
13:42             160       20.9         36       28.3      122.8       27.0       27.7       11.8     1014.0       28.4       15.3        0.0        0.0        0.0       0.00       40.8       0.65       0.64        0.0
13:44             146       14.5         36       28.3      122.8       28.3       27.7       11.8     1014.0       28.4       15.3        0.0        0.0        0.0       0.00       41.1       0.65       0.64        0.0
13:46             213       19.3         36       28.4      122.8       27.1       27.7       11.9     1014.0       28.4       15.3        0.0        0.0        0.0       0.00       41.3       0.65       0.71        0.0
13:48             178       16.1         36       28.4      122.8       28.0       27.8       11.9     1013.9       28.4       15.3        0.0        0.0        0.0       0.00       41.7       0.65       0.71        0.0
13:50             204        9.7         35       28.4      122.8       28.4       27.7       11.5     1013.9       28.4       15.3        0.0        0.0        0.0       0.00       41.9       0.65       0.71        0.0
13:52             180       16.1         36       28.5      122.8       27.6       27.8       12.0     1013.8       28.5       15.3        0.0        0.0        0.0       0.00       42.3       0.65       0.71        0.0
13:54             197       11.3         35       28.6      122.8       28.6       27.8       11.6     1013.9       28.6       15.3        0.0        0.0        0.0       0.00       42.6       0.65       0.71        0.0
13:56             188       16.1         35       28.7      122.8       28.3       27.9       11.7     1013.8       28.7       15.3        0.0        0.0        0.0       0.00       42.8       0.65       0.71        0.0
13:58             234        9.7         35       28.7      122.8       28.7       28.0       11.8     1013.8       28.7       15.3        0.0        0.0        0.0       0.00       43.1       0.65       0.71        0.0
14:00             229        6.4         32       28.7      122.8       28.7       27.8       10.4     1013.8       28.8       15.3        0.0        0.0        0.0       0.00       43.4       0.65       0.71        0.0
14:02             229       14.5         33       28.7      122.8       28.2       27.8       10.9     1013.8       28.8       15.3        0.0        0.0        0.0       0.00       43.6       0.65       0.78        0.0
14:04             169       19.3         33       28.7      122.8       27.9       27.8       10.9     1013.7       28.8       15.3        0.0        0.0        0.0       0.00       44.2       0.65       0.78        0.0
14:06             167       17.7         34       28.8      122.8       27.8       28.0       11.4     1013.7       28.8       15.3        0.0        0.0        0.0       0.00       44.5       0.65       0.78        0.0
14:07             165       16.1         34       28.9      122.8       28.7       28.1       11.5     1013.7       28.9       15.3        0.0        0.0        0.0       0.00       44.8       0.65       0.78        0.0
14:10             168       17.7         34       29.1      122.8       28.6       28.2       11.7     1013.7       29.1       15.3        0.0        0.0        0.0       0.00       45.1       0.65       0.78        0.0
14:12             173       17.7         33       29.3      122.8       29.1       28.4       11.4     1013.7       29.3       15.3        0.0        0.0        0.0       0.00       45.5       0.65       0.78        0.0
14:14             210        9.7         34       29.4      122.8       29.4       28.5       11.9     1013.6       29.4       15.3        0.0        0.0        0.0       0.00       45.7       0.65       0.78        0.0
14:16             194       12.9         34       29.4      122.8       29.2       28.5       11.9     1013.5       29.4       15.3        0.0        0.0        0.0       0.00       46.0       0.65       0.86        0.0
14:18             220       17.7         34       29.4      122.8       29.0       28.5       12.0     1013.6       29.4       15.3        0.0        0.0        0.0       0.00       46.3       0.65       0.86        0.0
14:20             199       14.5         33       29.4      122.8       29.4       28.5       11.5     1013.5       29.4       15.3        0.0        0.0        0.0       0.00       46.6       0.65       0.86        0.0
14:22             184        4.8         33       29.5      122.8       29.5       28.5       11.6     1013.6       29.5       15.3        0.0        0.0        0.0       0.00       46.9       0.65       0.86        0.0
14:24             196       11.3         33       29.5      122.8       29.3       28.5       11.6     1013.5       29.5       15.3        0.0        0.0        0.0       0.00       47.2       0.65       0.86        0.0
14:26             208       11.3         34       29.5      122.8       29.5       28.6       12.0     1013.5       29.5       15.3        0.0        0.0        0.0       0.00       47.5       0.65       0.86        0.0
14:28             215       17.7         33       29.5      122.8       28.7       28.5       11.6     1013.5       29.5       15.3        0.0        0.0        0.0       0.00       47.8       0.65       0.86        0.0
14:30             207        3.2         34       29.4      122.8       29.4       28.5       12.0     1013.5       29.5       15.3        0.0        0.0        0.0       0.00       48.1       0.65       0.86        0.0
14:32             227       12.9         37       29.4      122.8       29.1       28.8       13.2     1013.4       29.5       15.3        0.0        0.0        0.0       0.00       48.3       0.65       0.94        0.0
14:34             234        6.4         36       29.4      122.8       29.4       28.6       12.8     1013.5       29.5       15.3        0.0        0.0        0.0       0.00       48.6       0.65       0.94        0.0
14:36             221        9.7         36       29.3      122.8       29.3       28.5       12.7     1013.5       29.5       15.3        0.0        0.0        0.0       0.00       48.9       0.65       0.94        0.0
14:38             191        9.7         36       29.3      122.8       29.1       28.5       12.7     1013.4       29.5       15.3        0.0        0.0        0.0       0.00       49.3       0.65       0.94        0.0
14:40             227       16.1         36       29.3      122.8       28.4       28.5       12.7     1013.4       29.5       15.3        0.0        0.0        0.0       0.00       49.6       0.65       0.94        0.0
14:42             192       11.3         32       29.3      122.8       29.0       28.3       10.9     1013.5       29.5       15.3        0.0        0.0        0.0       0.00       50.0       0.65       0.94        0.0
14:44             214       12.9         33       29.4      122.8       29.4       28.4       11.5     1013.3       29.5       15.3        0.0        0.0        0.0       0.00       50.2       0.65       0.94        0.0
14:46             252       14.5         34       29.4      122.8       28.7       28.5       11.9     1013.3       29.5       15.3        0.0        0.0        0.0       0.00       50.5       0.65       1.01        0.0
14:48             259       12.9         35       29.4      122.8       29.1       28.6       12.3     1013.2       29.5       15.3        0.0        0.0        0.0       0.00       50.8       0.65       1.01        0.0
14:50             234       12.9         35       29.3      122.8       29.0       28.5       12.3     1013.3       29.5       15.3        0.0        0.0        0.0       0.00       51.2       0.65       1.01        0.0
14:52             226       11.3         36       29.2      122.8       29.0       28.5       12.6     1013.4       29.5       15.3        0.0        0.0        0.0       0.00       51.5       0.65       1.01        0.0
14:54             231        6.4         36       29.2      122.8       29.2       28.4       12.6     1013.2       29.5       15.3        0.0        0.0        0.0       0.00       51.8       0.65       1.01        0.0
14:56             226        9.7         36       29.2      122.8       29.2       28.4       12.6     1013.3       29.5       15.3        0.0        0.0        0.0       0.00       52.0       0.65       1.01        0.0
14:57             227        8.0         34       29.2      122.8       29.2       28.3       11.7     1013.2       29.5       15.3        0.0        0.0        0.0       0.00       52.2       0.65       1.01        0.0
15:00             222       14.5         35       29.2      122.8       28.4       28.4       12.2     1013.2       29.5       15.3        0.0        0.0        0.0       0.00       52.5       0.65       1.01        0.0
15:02             213       11.3         35       29.2      122.8       29.2       28.4       12.2     1013.4       29.5       15.3        0.0        0.0        0.0       0.00       52.9       0.65       1.09        0.0
15:03             215        6.4         35       29.3      122.8       29.3       28.5       12.3     1013.2       29.5       15.3        0.0        0.0        0.0       0.00       53.1       0.65       1.09        0.0
15:06             217       12.9         35       29.4      122.8       28.8       28.6       12.3     1013.1       29.5       15.3        0.0        0.0        0.0       0.00       53.4       0.65       1.09        0.0
15:08             205       16.1         35       29.4      122.8       28.5       28.6       12.3     1013.2       29.5       15.3        0.0        0.0        0.0       0.00       53.8       0.65       1.09        0.0
15:09             242       14.5         35       29.5      122.8       29.2       28.7       12.4     1013.0       29.5       15.3        0.0        0.0        0.0       0.00       54.2       0.65       1.09        0.0
15:12             232       11.3         35       29.4      122.8       29.4       28.6       12.4     1013.0       29.5       15.3        0.0        0.0        0.0       0.00       54.4       0.65       1.09        0.0
15:14             225       11.3         36       29.5      122.8       29.0       28.8       12.9     1013.0       29.5       15.3        0.0        0.0        0.0       0.00       54.6       0.65       1.09        0.0
15:16             232       11.3         36       29.6      122.8       29.6       28.9       13.0     1013.0       29.6       15.3        0.0        0.0        0.0       0.00       54.9       0.65       1.17        0.0
15:18             243       12.9         35       29.6      122.8       29.0       28.8       12.5     1012.9       29.6       15.3        0.0        0.0        0.0       0.00       55.2       0.65       1.17        0.0
15:20             200        6.4         35       29.7      122.8       29.7       28.8       12.6     1012.9       29.7       15.3        0.0        0.0        0.0       0.00       55.5       0.65       1.17        0.0
15:22             246        8.0         34       29.8      122.8       29.8       28.9       12.2     1012.9       29.8       15.3        0.0        0.0        0.0       0.00       55.7       0.65       1.17        0.0
15:23             238       16.1         34       29.8      122.8       29.0       28.9       12.2     1012.9       29.8       15.3        0.0        0.0        0.0       0.00       55.9       0.65       1.17        0.0
15:26             176       24.1         35       29.8      122.8       29.0       28.9       12.7     1012.9       29.8       15.3        0.0        0.0        0.0       0.00       56.3       0.65       1.17        0.0
15:28             205        9.7         34       29.8      122.8       29.8       28.9       12.3     1012.9       29.8       15.3        0.0        0.0        0.0       0.00       56.7       0.65       1.17        0.0
15:30             207        8.0         35       29.8      122.8       29.8       29.0       12.7     1012.9       29.8       15.3        0.0        0.0        0.0       0.00       57.0       0.65       1.17        0.0
15:32             230       19.3         36       29.9      122.8       29.0       29.1       13.2     1012.9       29.9       15.3        0.0        0.0        0.0       0.00       57.2       0.65       1.25        0.0
15:34             230        9.7         33       29.9      122.8       29.7       28.9       11.9     1012.9       29.9       15.3        0.0        0.0        0.0       0.00       57.6       0.65       1.25        0.0
15:36             215        9.7         32       29.9      122.8       29.8       28.9       11.5     1012.9       29.9       15.3        0.0        0.0        0.0       0.00       57.9       0.65       1.25        0.0
15:38             217       11.3         32       29.9      122.8       29.7       28.8       11.4     1012.9       29.9       15.3        0.0        0.0        0.0       0.00       58.3       0.65       1.25        0.0
15:40             200       12.9         32       29.9      122.8       29.7       28.8       11.4     1013.0       29.9       15.3        0.0        0.0        0.0       0.00       58.7       0.65       1.25        0.0
15:41             239       17.7         33       29.9      122.8       29.2       28.9       11.9     1013.0       29.9       15.3        0.0        0.0        0.0       0.00       59.0       0.65       1.25        0.0
15:44             231       12.9         32       29.9      122.8       29.6       28.8       11.4     1012.9       29.9       15.3        0.0        0.0        0.0       0.00       59.5       0.65       1.25        0.0
15:45             237       14.5         33       29.8      122.8       29.2       28.8       11.8     1012.8       29.9       15.3        0.0        0.0        0.0       0.00       59.8       0.65       1.33        0.0
15:48             240       24.1         33       29.8      122.8       28.7       28.8       11.8     1012.9       29.9       15.3        0.0        0.0        0.0       0.00       60.3       0.65       1.33        0.0
15:50             224       11.3         34       29.6      122.8       29.3       28.7       12.1     1012.8       29.9       15.3        0.0        0.0        0.0       0.00       60.7       0.65       1.33        0.0
15:52             217        9.7         34       29.6      122.8       29.6       28.6       12.1     1012.8       29.9       15.3        0.0        0.0        0.0       0.00       61.0       0.65       1.33        0.0
15:53             198       12.9         34       29.6      122.8       29.0       28.6       12.1     1012.7       29.9       15.3        0.0        0.0        0.0       0.00       61.3       0.65       1.33        0.0
15:56             239       14.5         34       29.6      122.8       29.0       28.7       12.1     1012.8       29.9       15.3        0.0        0.0        0.0       0.00       61.8       0.65       1.33        0.0
15:57             223       14.5         34       29.6      122.8       28.9       28.7       12.1     1012.8       29.9       15.3        0.0        0.0        0.0       0.00       62.2       0.65       1.33        0.0
16:00             231       16.1         35       29.5      122.8       29.2       28.7       12.4     1012.8       29.9       15.3        0.0        0.0        0.0       0.00       62.6       0.65       1.33        0.0
16:02             223        9.7         34       29.5      122.8       29.2       28.6       12.0     1012.8       29.9       15.3        0.0        0.0        0.0       0.00       63.0       0.65       1.41        0.0
16:04             208        8.0         34       29.4      122.8       29.4       28.5       12.0     1012.7       29.9       15.3        0.0        0.0        0.0       0.00       63.3       0.65       1.41        0.0
16:06             259       12.9         34       29.5      122.8       28.9       28.6       12.0     1012.7       29.9       15.3        0.0        0.0        0.0       0.00       63.6       0.65       1.41        0.0
16:08             251       14.5         34       29.4      122.8       28.7       28.5       11.9     1012.6       29.9       15.3        0.0        0.0        0.0       0.00       63.9       0.65       1.41        0.0
16:10             213       17.7         34       29.3      122.8       28.4       28.4       11.9     1012.7       29.9       15.3        0.0        0.0        0.0       0.00       64.3       0.65       1.41        0.0
16:12             202       16.1         35       29.4      122.8       28.9       28.6       12.4     1012.6       29.9       15.3        0.0        0.0        0.0       0.00       64.6       0.65       1.41        0.0
16:14             187       17.7         35       29.5      122.8       28.9       28.7       12.4     1012.7       29.9       15.3        0.0        0.0        0.0       0.00       65.0       0.65       1.41        0.0
16:16             207       17.7         35       29.6      122.8       28.9       28.8       12.5     1012.6       29.9       15.3        0.0        0.0        0.0       0.00       65.4       0.65       1.49        0.0
16:18             256       20.9         36       29.6      122.8       28.7       28.8       12.9     1012.8       29.9       15.3        0.0        0.0        0.0       0.00       65.9       0.65       1.49        0.0
16:20             238        9.7         36       29.4      122.8       29.3       28.7       12.8     1012.7       29.9       15.3        0.0        0.0        0.0       0.00       66.4       0.65       1.49        0.0
16:22             241        6.4         37       29.3      122.8       29.3       28.7       13.1     1012.6       29.9       15.3        0.0        0.0        0.0       0.00       66.6       0.65       1.49        0.0
16:24             212       22.5         36       29.4      122.8       28.4       28.6       12.8     1012.6       29.9       15.3        0.0        0.0        0.0       0.00       67.1       0.65       1.49        0.0
16:26             221       11.3         36       29.4      122.8       29.1       28.6       12.8     1012.7       29.9       15.3        0.0        0.0        0.0       0.00       67.6       0.65       1.49        0.0
16:28             218       14.5         36       29.4      122.8       28.7       28.6       12.8     1012.7       29.9       15.3        0.0        0.0        0.0       0.00       67.9       0.65       1.49        0.0
16:30             207       17.7         36       29.4      122.8       28.5       28.6       12.8     1012.6       29.9       15.3        0.0        0.0        0.0       0.00       68.3       0.65       1.49        0.0
16:31             234        8.0         36       29.3      122.8       29.3       28.6       12.7     1012.6       29.9       15.3        0.0        0.0        0.0       0.00       68.7       0.65       1.56        0.0
16:34             216       14.5         36       29.4      122.8       29.2       28.6       12.8     1012.5       29.9       15.3        0.0        0.0        0.0       0.00       69.1       0.65       1.56        0.0
16:36             236       17.7         36       29.4      122.8       29.2       28.6       12.8     1012.6       29.9       15.3        0.0        0.0        0.0       0.00       69.4       0.65       1.56        0.0
16:37             226       20.9         36       29.3      122.8       28.2       28.6       12.7     1012.6       29.9       15.3        0.0        0.0        0.0       0.00       69.8       0.65       1.56        0.0
16:40             221       12.9         35       29.3      122.8       28.8       28.5       12.2     1012.6       29.9       15.3        0.0        0.0        0.0       0.00       70.3       0.65       1.56        0.0
16:42             265       19.3         35       29.2      122.8       28.1       28.4       12.2     1012.7       29.9       15.3        0.0        0.0        0.0       0.00       70.8       0.65       1.56        0.0
16:43             254       24.1         36       29.0      122.8       27.8       28.3       12.4     1012.7       29.9       15.3        0.0        0.0        0.0       0.00       71.4       0.65       1.56        0.0
16:46             250       19.3         34       28.8      122.8       28.6       28.0       11.4     1012.6       29.9       15.3        0.0        0.0        0.0       0.00       71.9       0.65       1.63        0.0
16:48             223       11.3         33       28.8      122.8       28.3       27.9       11.0     1012.6       29.9       15.3        0.0        0.0        0.0       0.00       72.2       0.65       1.63        0.0
16:50             227       19.3         34       28.8      122.8       28.1       28.0       11.4     1012.5       29.9       15.3        0.0        0.0        0.0       0.00       72.6       0.65       1.63        0.0
16:52             219       16.1         34       28.9      122.8       28.5       28.0       11.5     1012.5       29.9       15.3        0.0        0.0        0.0       0.00       73.0       0.65       1.63        0.0
16:54             202       19.3         35       28.9      122.8       27.7       28.1       11.9     1012.6       29.9       15.3        0.0        0.0        0.0       0.00       73.5       0.65       1.63        0.0
16:56             253       11.3         35       29.1      122.8       28.8       28.2       12.1     1012.5       29.9       15.3        0.0        0.0        0.0       0.00       73.8       0.65       1.63        0.0
16:57             265        6.4         35       29.1      122.8       29.1       28.2       12.1     1012.5       29.9       15.3        0.0        0.0        0.0       0.00       74.1       0.65       1.63        0.0
17:00             261        9.7         35       29.0      122.8       29.0       28.2       12.0     1012.6       29.9       15.3        0.0        0.0        0.0       0.00       74.3       0.65       1.63        0.0
17:02             224       19.3         36       29.1      122.8       28.7       28.3       12.5     1012.6       29.9       15.3        0.0        0.0        0.0       0.00       74.8       0.65       1.71        0.0
17:04             252       19.3         36       29.1      122.8       28.3       28.4       12.5     1012.6       29.9       15.3        0.0        0.0        0.0       0.00       75.3       0.65       1.71        0.0
17:06             240       16.1         35       29.1      122.8       28.1       28.2       12.1     1012.5       29.9       15.3        0.0        0.0        0.0       0.00       75.7       0.65       1.71        0.0
17:08             246       25.7         35       29.1      122.8       27.8       28.2       12.1     1012.5       29.9       15.3        0.0        0.0        0.0       0.00       76.0       0.65       1.71        0.0
17:10             257       14.5         35       28.9      122.8       28.1       28.1       12.0     1012.5       29.9       15.3        0.0        0.0        0.0       0.00       76.5       0.65       1.71        0.0
17:12             222       16.1         36       28.9      122.8       28.2       28.2       12.3     1012.5       29.9       15.3        0.0        0.0        0.0       0.00       76.8       0.65       1.71        0.0
17:14             214       16.1         35       28.9      122.8       28.7       28.1       11.9     1012.5       29.9       15.3        0.0        0.0        0.0       0.00       77.2       0.65       1.71        0.0
17:15             207       14.5         35       28.9      122.8       28.7       28.1       11.9     1012.5       29.9       15.3        0.0        0.0        0.0       0.00       77.6       0.65       1.78        0.0
17:18             234       25.7         35       28.8      122.8       27.3       28.0       11.9     1012.6       29.9       15.3        0.0        0.0        0.0       0.00       78.1       0.65       1.78        0.0
17:20             229       12.9         34       28.8      122.8       28.8       27.9       11.4     1012.6       29.9       15.3        0.0        0.0        0.0       0.00       78.6       0.65       1.78        0.0
17:22             233       25.7         34       28.8      122.8       27.6       27.9       11.4     1012.6       29.9       15.3        0.0        0.0        0.0       0.00       79.1       0.65       1.78        0.0
17:24             248       16.1         34       28.7      122.8       27.9       27.8       11.3     1012.7       29.9       15.3        0.0        0.0        0.0       0.00       79.6       0.65       1.78        0.0
17:26             229       11.3         34       28.6      122.8       28.2       27.8       11.2     1012.6       29.9       15.3        0.0        0.0        0.0       0.00       79.9       0.65       1.78        0.0
17:27             218       24.1         35       28.6      122.8       27.4       27.9       11.7     1012.6       29.9       15.3        0.0        0.0        0.0       0.00       80.3       0.65       1.78        0.0
17:30             221       11.3         33       28.6      122.8       28.6       27.7       10.8     1012.6       29.9       15.3        0.0        0.0        0.0       0.00       80.6       0.65       1.78        0.0
17:32             219       16.1         33       28.7      122.8       27.8       27.8       10.8     1012.6       29.9       15.3        0.0        0.0        0.0       0.00       80.9       0.65       1.85        0.0
17:34             234       19.3         33       28.7      122.8       27.7       27.8       10.9     1012.5       29.9       15.3        0.0        0.0        0.0       0.00       81.3       0.65       1.85        0.0
17:36             231       16.1         33       28.7      122.8       28.2       27.8       10.9     1012.6       29.9       15.3        0.0        0.0        0.0       0.00       81.7       0.65       1.85        0.0
17:38             240        8.0         33       28.7      122.8       28.7       27.8       10.8     1012.6       29.9       15.3        0.0        0.0        0.0       0.00       82.1       0.65       1.85        0.0
17:40             245       14.5         33       28.6      122.8       28.0       27.7       10.7     1012.6       29.9       15.3        0.0        0.0        0.0       0.00       82.5       0.65       1.85        0.0
17:42             240       17.7         32       28.4      122.8       27.5       27.5       10.2     1012.6       29.9       15.3        0.0        0.0        0.0       0.00       82.9       0.65       1.85        0.0
17:44             247       17.7         30       28.4      122.8       28.1       27.4        9.2     1012.6       29.9       15.3        0.0        0.0        0.0       0.00       83.4       0.65       1.85        0.0
17:46             240       14.5         30       28.3      122.8       28.0       27.3        9.1     1012.5       29.9       15.3        0.0        0.0        0.0       0.00       83.8       0.65       1.91        0.0
17:48             256       14.5         31       28.2      122.8       27.3       27.3        9.5     1012.5       29.9       15.3        0.0        0.0        0.0       0.00       84.1       0.65       1.91        0.0
17:50             227       19.3         28       28.2      122.8       27.8       27.2        8.0     1012.5       29.9       15.3        0.0        0.0        0.0       0.00       84.6       0.65       1.91        0.0
17:52             232       16.1         28       28.2      122.8       27.5       27.1        8.0     1012.6       29.9       15.3        0.0        0.0        0.0       0.00       85.0       0.65       1.91        0.0
17:54             220       16.1         28       28.2      122.8       27.1       27.2        8.0     1012.5       29.9       15.3        0.0        0.0        0.0       0.00       85.4       0.65       1.91        0.0
17:56             224       14.5         28       28.2      122.8       27.4       27.2        8.0     1012.5       29.9       15.3        0.0        0.0        0.0       0.00       85.8       0.65       1.91        0.0
17:58             230       14.5         29       28.2      122.8       27.3       27.2        8.5     1012.5       29.9       15.3        0.0        0.0        0.0       0.00       86.1       0.65       1.91        0.0
18:00             243       11.3         29       28.2      122.8       28.0       27.2        8.5     1012.5       29.9       15.3        0.0        0.0        0.0       0.00       86.5       0.65       1.91        0.0
18:02             225       14.5         29       28.3      122.8       27.3       27.3        8.6     1012.5       29.9       15.3        0.0        0.0        0.0       0.00       86.8       0.65       1.98        0.0
18:04             246       24.1         29       28.2      122.8       27.0       27.2        8.5     1012.5       29.9       15.3        0.0        0.0        0.0       0.00       87.3       0.65       1.98        0.0
18:05             249       22.5         28       28.2      122.8       26.6       27.1        8.0     1012.5       29.9       15.3        0.0        0.0        0.0       0.00       87.8       0.65       1.98        0.0
18:08             245       17.7         28       28.1      122.8       27.8       27.0        7.9     1012.5       29.9       15.3        0.0        0.0        0.0       0.00       88.2       0.65       1.98        0.0
18:10             231       17.7         29       28.0      122.8       26.7       27.1        8.3     1012.5       29.9       15.3        0.0        0.0        0.0       0.00       88.6       0.65       1.98        0.0
18:11             229       19.3         29       28.0      122.8       26.7       27.1        8.3     1012.5       29.9       15.3        0.0        0.0        0.0       0.00       89.2       0.65       1.98        0.0
18:14             232        9.7         29       27.9      122.8       27.4       27.0        8.2     1012.5       29.9       15.3        0.0        0.0        0.0       0.00       89.5       0.65       1.98        0.0
18:16             228       17.7         29       27.8      122.8       27.2       26.9        8.2     1012.5       29.9       15.3        0.0        0.0        0.0       0.00       89.9       0.65       2.04        0.0
18:17             211       20.9         29       27.8      122.8       26.2       26.9        8.1     1012.5       29.9       15.3        0.0        0.0        0.0       0.00       90.2       0.65       2.04        0.0
18:20             241        8.0         30       27.7      122.8       27.4       26.9        8.6     1012.5       29.9       15.3        0.0        0.0        0.0       0.00       90.6       0.65       2.04        0.0
18:22             252       16.1         29       27.7      122.8       27.0       26.9        8.1     1012.5       29.9       15.3        0.0        0.0        0.0       0.00       91.0       0.65       2.04        0.0
18:24             257       14.5         29       27.7      122.8       27.7       26.8        8.0     1012.5       29.9       15.3        0.0        0.0        0.0       0.00       91.3       0.65       2.04        0.0
18:26             237       14.5         29       27.6      122.8       27.6       26.8        8.0     1012.5       29.9       15.3        0.0        0.0        0.0       0.00       91.8       0.65       2.04        0.0
18:28             221       17.7         29       27.6      122.8       26.9       26.7        7.9     1012.6       29.9       15.3        0.0        0.0        0.0       0.00       92.1       0.65       2.04        0.0
18:30             240       16.1         29       27.6      122.8       27.1       26.7        7.9     1012.5       29.9       15.3        0.0        0.0        0.0       0.00       92.5       0.65       2.04        0.0
18:32             246       20.9         29       27.5      122.8       26.4       26.7        7.9     1012.6       29.9       15.3        0.0        0.0        0.0       0.00       92.9       0.65       2.10        0.0
18:34             262       17.7         28       27.4      122.8       25.9       26.6        7.3     1012.5       29.9       15.3        0.0        0.0        0.0       0.00       93.3       0.65       2.10        0.0
18:36             257       20.9         29       27.3      122.8       25.6       26.6        7.8     1012.5       29.9       15.3        0.0        0.0        0.0       0.00       93.7       0.65       2.10        0.0
18:38             248       16.1         29       27.3      122.8       26.0       26.6        7.8     1012.5       29.9       15.3        0.0        0.0        0.0       0.00       94.1       0.65       2.10        0.0
18:40             225       11.3         29       27.2      122.8       26.4       26.5        7.6     1012.6       29.9       15.3        0.0        0.0        0.0       0.00       94.5       0.65       2.10        0.0
18:42             232       12.9         26       27.1      122.8       26.6       26.3        6.0     1012.6       29.9       15.3        0.0        0.0        0.0       0.00       94.9       0.65       2.10        0.0
18:44             222       14.5         26       27.1      122.8       27.1       26.3        6.0     1012.5       29.9       15.3        0.0        0.0        0.0       0.00       95.2       0.65       2.10        0.0
18:46             232       14.5         26       27.1      122.8       26.1       26.3        6.0     1012.5       29.9       15.3        0.0        0.0        0.0       0.00       95.5       0.65       2.15        0.0
18:48             229       12.9         27       27.1      122.8       26.5       26.3        6.5     1012.5       29.9       15.3        0.0        0.0        0.0       0.00       95.9       0.65       2.15        0.0
18:49             241       17.7         26       27.1      122.8       25.8       26.3        5.9     1012.5       29.9       15.3        0.0        0.0        0.0       0.00       96.3       0.65       2.15        0.0
18:52             257       11.3         25       27.0      122.8       27.0       26.2        5.3     1012.5       29.9       15.3        0.0        0.0        0.0       0.00       96.7       0.65       2.15        0.0
18:54             241       17.7         25       26.9      122.8       25.9       26.2        5.2     1012.5       29.9       15.3        0.0        0.0        0.0       0.00       97.1       0.65       2.15        0.0
18:56             246        8.0         26       26.8      122.8       26.8       26.2        5.7     1012.5       29.9       15.3        0.0        0.0        0.0       0.00       97.5       0.65       2.15        0.0
18:58             228       11.3         26       26.8      122.8       26.4       26.1        5.7     1012.5       29.9       15.3        0.0        0.0        0.0       0.00       97.8       0.65       2.15        0.0
19:00             218       14.5         26       26.7      122.8       26.4       26.1        5.6     1012.5       29.9       15.3        0.0        0.0        0.0       0.00       98.2       0.65       2.15        0.0
19:01             222       14.5         26       26.7      122.8       26.1       26.1        5.6     1012.6       29.9       15.3        0.0        0.0        0.0       0.00       98.5       0.65       2.20        0.0
19:04             225       14.5         26       26.6      122.8       25.8       26.0        5.5     1012.6       29.9       15.3        0.0        0.0        0.0       0.00       98.8       0.65       2.20        0.0
19:06             231       12.9         26       26.5      122.8       25.9       25.9        5.5     1012.5       29.9       15.3        0.0        0.0        0.0       0.00       99.2       0.65       2.20        0.0
19:08             236       17.7         27       26.4      122.8       25.1       25.9        6.0     1012.6       29.9       15.3        0.0        0.0        0.0       0.00       99.5       0.65       2.20        0.0
19:10             237        8.0         27       26.3      122.8       26.3       25.8        5.9     1012.5       29.9       15.3        0.0        0.0        0.0       0.00       99.8       0.65       2.20        0.0
19:12             233       11.3         27       26.2      122.8       25.6       25.7        5.8     1012.6       29.9       15.3        0.0        0.0        0.0       0.00      100.2       0.65       2.20        0.0
19:14             232       11.3         27       26.2      122.8       25.8       25.6        5.7     1012.6       29.9       15.3        0.0        0.0        0.0       0.00      100.4       0.65       2.20        0.0
19:16             231       11.3         27       26.1      122.8       25.7       25.6        5.7     1012.6       29.9       15.3        0.0        0.0        0.0       0.00      100.7       0.65       2.24        0.0
19:18             232       11.3         28       26.1      122.8       26.1       25.5        6.1     1012.6       29.9       15.3        0.0        0.0        0.0       0.00      101.0       0.65       2.24        0.0
19:20             231        6.4         28       25.9      122.8       25.9       25.4        6.0     1012.7       29.9       15.3        0.0        0.0        0.0       0.00      101.2       0.65       2.24        0.0
19:22             232        8.0         28       25.9      122.8       25.5       25.4        6.0     1012.6       29.9       15.3        0.0        0.0        0.0       0.00      101.4       0.65       2.24        0.0
19:24             226       14.5         28       25.8      122.8       24.4       25.3        6.0     1012.7       29.9       15.3        0.0        0.0        0.0       0.00      101.7       0.65       2.24        0.0
19:25             224       14.5         29       25.8      122.8       24.6       25.3        6.4     1012.8       29.9       15.3        0.0        0.0        0.0       0.00      102.1       0.65       2.24        0.0
19:28             229       14.5         29       25.7      122.8       24.2       25.2        6.3     1012.8       29.9       15.3        0.0        0.0        0.0       0.00      102.4       0.65       2.24        0.0
19:30             227       14.5         29       25.6      122.8       24.3       25.1        6.2     1012.8       29.9       15.3        0.0        0.0        0.0       0.00      102.7       0.65       2.24        0.0
19:32             227       11.3         30       25.5      122.8       24.5       25.0        6.7     1012.7       29.9       15.3        0.0        0.0        0.0       0.00      103.0       0.65       2.28        0.0
19:34             227        8.0         30       25.4      122.8       25.4       24.9        6.6     1012.7       29.9       15.3        0.0        0.0        0.0       0.00      103.3       0.65       2.28        0.0
19:36             226        9.7         30       25.3      122.8       24.6       24.8        6.5     1012.7       29.9       15.3        0.0        0.0        0.0       0.00      103.5       0.65       2.28        0.0
19:38             225        9.7         31       25.2      122.8       24.5       24.8        6.9     1012.7       29.9       15.3        0.0        0.0        0.0       0.00      103.8       0.65       2.28        0.0
19:40             225        8.0         31       25.2      122.8       25.2       24.8        6.9     1012.7       29.9       15.3        0.0        0.0        0.0       0.00      104.0       0.65       2.28        0.0
19:42             225        4.8         32       25.1      122.8       25.1       24.7        7.2     1012.7       29.9       15.3        0.0        0.0        0.0       0.00      104.2       0.65       2.28        0.0
19:44             225        4.8         32       25.0      122.8       25.0       24.6        7.2     1012.7       29.9       15.3        0.0        0.0        0.0       0.00      104.4       0.65       2.28        0.0
19:46             225        8.0         32       24.9      122.8       24.9       24.5        7.1     1012.7       29.9       15.3        0.0        0.0        0.0       0.00      104.5       0.65       2.31        0.0
19:48             225        4.8         32       24.8      122.8       24.8       24.5        7.0     1012.7       29.9       15.3        0.0        0.0        0.0       0.00      104.7       0.65       2.31        0.0
19:50             225        6.4         32       24.7      122.8       24.7       24.3        6.9     1012.6       29.9       15.3        0.0        0.0        0.0       0.00      104.9       0.65       2.31        0.0
19:51             225        8.0         32       24.7      122.8       24.2       24.3        6.9     1012.7       29.9       15.3        0.0        0.0        0.0       0.00      105.1       0.65       2.31        0.0
19:54             225        8.0         32       24.6      122.8       24.6       24.2        6.8     1012.7       29.9       15.3        0.0        0.0        0.0       0.00      105.3       0.65       2.31        0.0
19:56             225        8.0         31       24.5      122.8       24.0       24.1        6.3     1012.7       29.9       15.3        0.0        0.0        0.0       0.00      105.5       0.65       2.31        0.0
19:58             225        9.7         32       24.4      122.8       24.4       24.0        6.6     1012.7       29.9       15.3        0.0        0.0        0.0       0.00      105.7       0.65       2.31        0.0
20:00             225        6.4         32       24.3      122.8       24.3       24.0        6.6     1012.7       29.9       15.3        0.0        0.0        0.0       0.00      105.9       0.65       2.31        0.0
20:02             225        8.0         32       24.2      122.8       23.7       23.8        6.5     1012.8       29.9       15.3        0.0        0.0        0.0       0.00      106.1       0.65       2.34        0.0
20:04             225        8.0         32       24.2      122.8       23.7       23.8        6.4     1012.8       29.9       15.3        0.0        0.0        0.0       0.00      106.3       0.65       2.34        0.0
20:06             225        4.8         32       24.1      122.8       24.1       23.7        6.4     1012.8       29.9       15.3        0.0        0.0        0.0       0.00      106.4       0.65       2.34        0.0
20:08             225        4.8         32       24.1      122.8       24.1       23.7        6.4     1012.8       29.9       15.3        0.0        0.0        0.0       0.00      106.5       0.65       2.34        0.0
20:10             225        4.8         33       24.0      122.8       24.0       23.7        6.8     1012.8       29.9       15.3        0.0        0.0        0.0       0.00      106.7       0.65       2.34        0.0
20:12             225        3.2         33       23.9      122.8       23.9       23.6        6.7     1012.8       29.9       15.3        0.0        0.0        0.0       0.00      106.8       0.65       2.34        0.0
20:14             225        4.8         33       23.9      122.8       23.9       23.6        6.7     1012.8       29.9       15.3        0.0        0.0        0.0       0.00      106.9       0.65       2.34        0.0
20:16             225        8.0         33       23.8      122.8       23.8       23.5        6.6     1012.8       29.9       15.3        0.0        0.0        0.0       0.00      107.1       0.65       2.35        0.0
20:17             225        8.0         33       23.7      122.8       23.7       23.4        6.5     1012.8       29.9       15.3        0.0        0.0        0.0       0.00      107.3       0.65       2.35        0.0
20:20             225        6.4         33       23.7      122.8       23.7       23.3        6.5     1012.9       29.9       15.3        0.0        0.0        0.0       0.00      107.5       0.65       2.35        0.0
20:22             225        6.4         33       23.6      122.8       23.6       23.2        6.4     1012.9       29.9       15.3        0.0        0.0        0.0       0.00      107.7       0.65       2.35        0.0
20:24             225        8.0         34       23.5      122.8       23.5       23.2        6.7     1012.9       29.9       15.3        0.0        0.0        0.0       0.00      107.8       0.65       2.35        0.0
20:26             225        6.4         34       23.4      122.8       23.4       23.1        6.6     1012.9       29.9       15.3        0.0        0.0        0.0       0.00      108.0       0.65       2.35        0.0
20:28             225        3.2         34       23.3      122.8       23.3       23.0        6.6     1012.9       29.9       15.3        0.0        0.0        0.0       0.00      108.2       0.65       2.35        0.0
20:30             225        4.8         35       23.2      122.8       23.2       23.0        6.9     1012.9       29.9       15.3        0.0        0.0        0.0       0.00      108.3       0.65       2.35        0.0
20:32             225        6.4         35       23.2      122.8       23.2       22.9        6.9     1012.9       29.9       15.3        0.0        0.0        0.0       0.00      108.5       0.65       2.37        0.0
20:34             225        6.4         35       23.1      122.8       23.1       22.9        6.8     1013.0       29.9       15.3        0.0        0.0        0.0       0.00      108.6       0.65       2.37        0.0
20:36             225        4.8         36       23.1      122.8       23.1       22.8        7.2     1013.0       29.9       15.3        0.0        0.0        0.0       0.00      108.7       0.65       2.37        0.0
20:38             225        6.4         36       23.0      122.8       23.0       22.8        7.1     1013.1       29.9       15.3        0.0        0.0        0.0       0.00      108.8       0.65       2.37        0.0
20:40             225        8.0         35       22.9      122.8       22.9       22.6        6.6     1013.1       29.9       15.3        0.0        0.0        0.0       0.00      109.0       0.65       2.37        0.0
20:42             225        9.7         35       22.8      122.8       22.8       22.6        6.6     1013.1       29.9       15.3        0.0        0.0        0.0       0.00      109.2       0.65       2.37        0.0
20:44             225        8.0         34       22.7      122.8       22.7       22.4        6.1     1013.1       29.9       15.3        0.0        0.0        0.0       0.00      109.4       0.65       2.37        0.0
20:46             225        9.7         35       22.6      122.8       21.7       22.4        6.4     1013.2       29.9       15.3        0.0        0.0        0.0       0.00      109.6       0.65       2.37        0.0
20:47             225        6.4         35       22.5      122.8       22.5       22.2        6.3     1013.2       29.9       15.3        0.0        0.0        0.0       0.00      109.8       0.65       2.37        0.0
20:50             225        4.8         35       22.4      122.8       22.4       22.2        6.2     1013.3       29.9       15.3        0.0        0.0        0.0       0.00      110.0       0.65       2.37        0.0
20:52             225        3.2         35       22.3      122.8       22.3       22.1        6.1     1013.3       29.9       15.3        0.0        0.0        0.0       0.00      110.1       0.65       2.37        0.0
20:54             225        4.8         35       22.3      122.8       22.3       22.1        6.1     1013.4       29.9       15.3        0.0        0.0        0.0       0.00      110.2       0.65       2.37        0.0
20:56             225        4.8         35       22.2      122.8       22.2       22.0        6.0     1013.4       29.9       15.3        0.0        0.0        0.0       0.00      110.3       0.65       2.37        0.0
20:58             225        6.4         36       22.2      122.8       22.2       22.0        6.5     1013.4       29.9       15.3        0.0        0.0        0.0       0.00      110.5       0.65       2.37        0.0
21:00             225        3.2         36       22.2      122.8       22.2       22.0        6.4     1013.4       29.9       15.3        0.0        0.0        0.0       0.00      110.6       0.65       2.37        0.0
21:02             225        8.0         36       22.1      122.8       22.1       21.9        6.4     1013.5       29.9       15.3        0.0        0.0        0.0       0.00      110.8       0.65       2.38        0.0
21:04             225        6.4         37       22.0      122.8       22.0       21.8        6.7     1013.5       29.9       15.3        0.0        0.0        0.0       0.00      110.9       0.65       2.38        0.0
21:06             225        6.4         37       21.9      122.8       21.9       21.8        6.6     1013.6       29.9       15.3        0.0        0.0        0.0       0.00      111.1       0.65       2.38        0.0
21:08             225        4.8         37       21.9      122.8       21.9       21.7        6.6     1013.6       29.9       15.3        0.0        0.0        0.0       0.00      111.2       0.65       2.38        0.0
21:10             225        6.4         38       21.8      122.8       21.8       21.7        6.9     1013.5       29.9       15.3        0.0        0.0        0.0       0.00      111.3       0.65       2.38        0.0
21:11             225        3.2         38       21.7      122.8       21.7       21.6        6.8     1013.6       29.9       15.3        0.0        0.0        0.0       0.00      111.5       0.65       2.38        0.0
21:14             225        6.4         38       21.7      122.8       21.7       21.6        6.8     1013.5       29.9       15.3        0.0        0.0        0.0       0.00      111.6       0.65       2.38        0.0
21:16             225        4.8         38       21.7      122.8       21.7       21.5        6.7     1013.6       29.9       15.3        0.0        0.0        0.0       0.00      111.7       0.65       2.38        0.0
21:18             225        6.4         39       21.6      122.8       21.6       21.5        7.1     1013.7       29.9       15.3        0.0        0.0        0.0       0.00      111.8       0.65       2.38        0.0
21:20             225        6.4         39       21.6      122.8       21.6       21.5        7.0     1013.6       29.9       15.3        0.0        0.0        0.0       0.00      111.9       0.65       2.38        0.0
21:22             225        6.4         39       21.5      122.8       21.5       21.4        7.0     1013.8       29.9       15.3        0.0        0.0        0.0       0.00      112.0       0.65       2.38        0.0
21:24             225        3.2         40       21.5      122.8       21.5       21.5        7.3     1013.7       29.9       15.3        0.0        0.0        0.0       0.00      112.1       0.65       2.38        0.0
21:25             225        3.2         40       21.4      122.8       21.4       21.4        7.3     1013.7       29.9       15.3        0.0        0.0        0.0       0.00      112.2       0.65       2.38        0.0
21:28             225        3.2         40       21.4      122.8       21.4       21.3        7.2     1013.7       29.9       15.3        0.0        0.0        0.0       0.00      112.3       0.65       2.38        0.0
21:30             225        0.0         40       21.4      122.8       21.4       21.3        7.2     1013.8       29.9       15.3        0.0        0.0        0.0       0.00      112.3       0.65       2.38        0.0
21:32             225        0.0         41       21.3      122.8       21.3       21.3        7.6     1013.7       29.9       15.3        0.0        0.0        0.0       0.00      112.3       0.65       2.38        0.0
21:34             225        0.0         41       21.3      122.8       21.3       21.3        7.6     1013.7       29.9       15.3        0.0        0.0        0.0       0.00      112.3       0.65       2.38        0.0
21:36             225        4.8         42       21.3      122.8       21.3       21.3        7.9     1013.7       29.9       15.3        0.0        0.0        0.0       0.00      112.4       0.65       2.38        0.0
21:37             225        3.2         43       21.2      122.8       21.2       21.3        8.2     1013.8       29.9       15.3        0.0        0.0        0.0       0.00      112.4       0.65       2.38        0.0
21:40             225        1.6         43       21.2      122.8       21.2       21.3        8.1     1013.8       29.9       15.3        0.0        0.0        0.0       0.00      112.5       0.65       2.38        0.0
21:42             225        1.6         44       21.1      122.8       21.1       21.3        8.4     1013.8       29.9       15.3        0.0        0.0        0.0       0.00      112.5       0.65       2.38        0.0
21:44             225        3.2         44       21.1      122.8       21.1       21.2        8.3     1013.8       29.9       15.3        0.0        0.0        0.0       0.00      112.5       0.65       2.38        0.0
21:46             225        1.6         44       20.9      122.8       20.9       21.1        8.2     1013.8       29.9       15.3        0.0        0.0        0.0       0.00      112.6       0.65       2.38        0.0
21:48             225        4.8         44       20.9      122.8       20.9       21.0        8.2     1013.9       29.9       15.3        0.0        0.0        0.0       0.00      112.6       0.65       2.38        0.0
21:50             225        3.2         45       20.8      122.8       20.8       21.0        8.4     1013.9       29.9       15.3        0.0        0.0        0.0       0.00      112.7       0.65       2.38        0.0
21:52             225        6.4         45       20.7      122.8       20.7       20.9        8.3     1013.9       29.9       15.3        0.0        0.0        0.0       0.00      112.7       0.65       2.38        0.0
21:54             225        4.8         46       20.6      122.8       20.6       20.9        8.6     1013.9       29.9       15.3        0.0        0.0        0.0       0.00      112.9       0.65       2.38        0.0
21:56             225        4.8         47       20.5      122.8       20.5       20.8        8.8     1014.0       29.9       15.3        0.0        0.0        0.0       0.00      113.0       0.65       2.38        0.0
21:58             225        0.0         47       20.4      122.8       20.4       20.7        8.7     1013.9       29.9       15.3        0.0        0.0        0.0       0.00      113.0       0.65       2.38        0.0
22:00             225        0.0         48       20.3      122.8       20.3       20.6        8.9     1014.0       29.9       15.3        0.0        0.0        0.0       0.00      113.0       0.65       2.38        0.0
22:02             225        0.0         48       20.2      122.8       20.2       20.5        8.8     1014.0       29.9       15.3        0.0        0.0        0.0       0.00      113.0       0.65       2.38        0.0
22:03             225        3.2         48       20.0      122.8       20.0       20.3        8.7     1014.1       29.9       15.3        0.0        0.0        0.0       0.00      113.1       0.65       2.38        0.0
22:06             226        6.4         49       19.9      122.8       19.9       20.3        8.9     1014.0       29.9       15.3        0.0        0.0        0.0       0.00      113.2       0.65       2.38        0.0
22:08             226        6.4         49       19.8      122.8       19.8       20.2        8.8     1014.1       29.9       15.3        0.0        0.0        0.0       0.00      113.3       0.65       2.38        0.0
22:09             227        8.0         50       19.7      122.8       19.7       20.1        9.0     1014.1       29.9       15.3        0.0        0.0        0.0       0.00      113.5       0.65       2.38        0.0
22:12             227        4.8         50       19.6      122.8       19.6       20.0        8.9     1014.1       29.9       15.3        0.0        0.0        0.0       0.00      113.6       0.65       2.38        0.0
22:14             227        6.4         50       19.4      122.8       19.4       19.9        8.8     1014.1       29.9       15.3        0.0        0.0        0.0       0.00      113.7       0.65       2.38        0.0
22:16             227        6.4         50       19.3      122.8       19.3       19.8        8.7     1014.1       29.9       15.3        0.0        0.0        0.0       0.00      113.8       0.65       2.38        0.0
22:18             227        4.8         51       19.2      122.8       19.2       19.7        8.8     1014.0       29.9       15.3        0.0        0.0        0.0       0.00      113.9       0.65       2.38        0.0
22:20             227        8.0         51       19.1      122.8       19.1       19.6        8.7     1014.0       29.9       15.3        0.0        0.0        0.0       0.00      114.1       0.65       2.38        0.0
22:21             227        4.8         51       19.1      122.8       19.1       19.6        8.7     1014.0       29.9       15.3        0.0        0.0        0.0       0.00      114.2       0.65       2.38        0.0
22:24             227        4.8         51       18.9      122.8       18.9       19.4        8.6     1014.0       29.9       15.3        0.0        0.0        0.0       0.00      114.4       0.65       2.38        0.0
22:26             227        4.8         52       18.9      122.8       18.9       19.4        8.8     1014.2       29.9       15.3        0.0        0.0        0.0       0.00      114.5       0.65       2.38        0.0
22:28             227        6.4         52       18.8      122.8       18.8       19.4        8.8     1014.2       29.9       15.3        0.0        0.0        0.0       0.00      114.7       0.65       2.38        0.0
22:30             227        4.8         52       18.7      122.8       18.7       19.3        8.7     1014.1       29.9       15.3        0.0        0.0        0.0       0.00      114.8       0.65       2.38        0.0
22:32             227        4.8         53       18.6      122.8       18.6       19.2        8.9     1014.1       29.9       15.3        0.0        0.0        0.0       0.00      114.8       0.65       2.38        0.0
22:34             227        8.0         53       18.6      122.8       17.8       19.2        8.8     1014.2       29.9       15.3        0.0        0.0        0.0       0.00      115.0       0.65       2.38        0.0
22:35             227        4.8         54       18.4      122.8       18.4       19.1        9.0     1014.2       29.9       15.3        0.0        0.0        0.0       0.00      115.1       0.65       2.38        0.0
22:38             227        6.4         54       18.4      122.8       18.4       19.0        8.9     1014.2       29.9       15.3        0.0        0.0        0.0       0.00      115.2       0.65       2.38        0.0
22:40             227        3.2         55       18.3      122.8       18.3       19.0        9.1     1014.2       29.9       15.3        0.0        0.0        0.0       0.00      115.3       0.65       2.38        0.0
22:42             227        6.4         55       18.2      122.8       18.2       18.9        9.0     1014.2       29.9       15.3        0.0        0.0        0.0       0.00      115.4       0.65       2.38        0.0
22:44             227        3.2         56       18.2      122.8       18.2       18.9        9.3     1014.2       29.9       15.3        0.0        0.0        0.0       0.00      115.5       0.65       2.38        0.0
22:46             227        3.2         56       18.1      122.8       18.1       18.9        9.2     1014.2       29.9       15.3        0.0        0.0        0.0       0.00      115.6       0.65       2.38        0.0
22:48             227        3.2         56       18.1      122.8       18.1       18.8        9.2     1014.1       29.9       15.3        0.0        0.0        0.0       0.00      115.7       0.65       2.38        0.0
22:50             227        6.4         57       18.0      122.8       18.0       18.8        9.4     1014.2       29.9       15.3        0.0        0.0        0.0       0.00      115.8       0.65       2.38        0.0
22:52             227        4.8         58       17.9      122.8       17.9       18.8        9.6     1014.2       29.9       15.3        0.0        0.0        0.0       0.00      115.9       0.65       2.38        0.0
22:53             227        6.4         59       17.9      122.8       17.9       18.8        9.8     1014.2       29.9       15.3        0.0        0.0        0.0       0.00      116.1       0.65       2.38        0.0
22:56             228        6.4         61       17.8      122.8       17.8       18.9       10.2     1014.2       29.9       15.3        0.0        0.0        0.0       0.00      116.2       0.65       2.38        0.0
22:58             229        4.8         62       17.7      122.8       17.7       18.8       10.4     1014.2       29.9       15.3        0.0        0.0        0.0       0.00      116.3       0.65       2.38        0.0
23:00             229        4.8         64       17.7      122.8       17.7       18.9       10.8     1014.3       29.9       15.3        0.0        0.0        0.0       0.00      116.4       0.65       2.38        0.0
23:02             231        6.4         65       17.6      122.8       17.6       18.9       11.0     1014.2       29.9       15.3        0.0        0.0        0.0       0.00      116.6       0.66       2.38        0.0
23:04             231        6.4         65       17.5      122.8       17.5       18.8       10.9     1014.2       29.9       15.3        0.0        0.0        0.0       0.00      116.7       0.66       2.38        0.0
23:05             230        3.2         66       17.4      122.8       17.4       18.8       11.0     1014.2       29.9       15.3        0.0        0.0        0.0       0.00      116.8       0.66       2.38        0.0
23:08             230        3.2         66       17.3      122.8       17.3       18.7       10.9     1014.1       29.9       15.3        0.0        0.0        0.0       0.00      116.9       0.66       2.38        0.0
23:10             230        4.8         66       17.3      122.8       17.3       18.7       10.9     1014.1       29.9       15.3        0.0        0.0        0.0       0.00      117.1       0.66       2.38        0.0
23:11             230        6.4         67       17.2      122.8       17.2       18.6       11.0     1014.1       29.9       15.3        0.0        0.0        0.0       0.00      117.2       0.66       2.38        0.0
23:14             230        6.4         67       17.1      122.8       17.1       18.6       10.9     1014.2       29.9       15.3        0.0        0.0        0.0       0.00      117.4       0.66       2.38        0.0
23:15             229        3.2         67       17.0      122.8       17.0       18.4       10.8     1014.2       29.9       15.3        0.0        0.0        0.0       0.00      117.5       0.67       2.38        0.0
23:17             230        6.4         68       16.9      122.8       16.9       18.4       11.0     1014.1       29.9       15.3        0.0        0.0        0.0       0.00      117.6       0.67       2.38        0.0
23:20             230        4.8         69       16.8      122.8       16.8       18.4       11.1     1014.2       29.9       15.3        0.0        0.0        0.0       0.00      117.8       0.67       2.38        0.0
23:22             230        6.4         69       16.8      122.8       16.8       18.4       11.1     1014.1       29.9       15.3        0.0        0.0        0.0       0.00      117.9       0.67       2.38        0.0
23:24             230        6.4         70       16.7      122.8       16.7       18.3       11.2     1014.1       29.9       15.3        0.0        0.0        0.0       0.00      118.0       0.67       2.38        0.0
23:26             229        4.8         70       16.6      122.8       16.6       18.3       11.1     1014.0       29.9       15.3        0.0        0.0        0.0       0.00      118.2       0.67       2.38        0.0
23:28             227        4.8         71       16.6      122.8       16.6       18.3       11.3     1014.1       29.9       15.3        0.0        0.0        0.0       0.00      118.4       0.67       2.38        0.0
23:30             227        8.0         71       16.5      122.8       16.5       18.2       11.2     1014.0       29.9       15.3        0.0        0.0        0.0       0.00      118.5       0.67       2.38        0.0
23:32             226        4.8         72       16.4      122.8       16.4       18.2       11.3     1014.0       29.9       15.3        0.0        0.0        0.0       0.00      118.7       0.68       2.38        0.0
23:34             226        4.8         72       16.3      122.8       16.3       18.1       11.3     1014.0       29.9       15.3        0.0        0.0        0.0       0.00      118.8       0.68       2.38        0.0
23:36             226        6.4         73       16.3      122.8       16.3       18.1       11.4     1014.0       29.9       15.3        0.0        0.0        0.0       0.00      119.0       0.68       2.38        0.0
23:38             224        9.7         73       16.2      122.8       14.7       18.1       11.4     1014.0       29.9       15.3        0.0        0.0        0.0       0.00      119.1       0.68       2.38        0.0
23:40             221        9.7         73       16.2      122.8       16.2       18.0       11.3     1014.0       29.9       15.3        0.0        0.0        0.0       0.00      119.3       0.68       2.38        0.0
23:42             221        6.4         74       16.1      122.8       16.1       18.0       11.5     1014.0       29.9       15.3        0.0        0.0        0.0       0.00      119.4       0.68       2.38        0.0
23:43             221        4.8         74       16.1      122.8       16.1       18.0       11.4     1013.9       29.9       15.3        0.0        0.0        0.0       0.00      119.6       0.68       2.38        0.0
23:46             221        6.4         74       16.0      122.8       16.0       17.9       11.4     1014.0       29.9       15.3        0.0        0.0        0.0       0.00      119.6       0.70       2.38        0.0
23:48             221        4.8         75       16.0      122.8       16.0       18.0       11.6     1014.0       29.9       15.3        0.0        0.0        0.0       0.00      119.8       0.70       2.38        0.0
23:50             220        6.4         75       15.9      122.8       15.9       17.9       11.5     1014.0       29.9       15.3        0.0        0.0        0.0       0.00      119.9       0.70       2.38        0.0
23:52             221        6.4         75       15.9      122.8       15.9       17.9       11.5     1014.1       29.9       15.3        0.0        0.0        0.0       0.00      120.0       0.70       2.38        0.0
23:54             221        3.2         76       15.9      122.8       15.9       17.9       11.7     1014.0       29.9       15.3        0.0        0.0        0.0       0.00      120.1       0.70       2.38        0.0
23:55             222        3.2         76       15.9      122.8       15.9       17.9       11.7     1014.1       29.9       15.3        0.0        0.0        0.0       0.00      120.2       0.70       2.38        0.0
23:58             223        6.4         76       15.8      122.8       15.8       17.9       11.6     1014.1       29.9       15.3        0.0        0.0        0.0       0.00      120.4       0.70       2.38        0.0


Detalle de hace 2 das:

16/6/19
Time         Wind Dir  Wind Gust   Humidity       Temp   Tot Rain Wind Chill Heat Index  Dew Point   Barom SL Temp Out H Temp Out L  DailyRain   HourRain   24HrRain   RainRate   Wind Run   Deg Heat   Deg Cool  MonthRain
                          km/hr          %         C         mm         C         C         C         mb         C         C         mm         mm         mm      mm/hr         km         C         C         mm
0:00              224        6.4         68       17.9      122.8       17.9       19.4       11.9     1015.2       17.9       17.9        0.0        0.0        0.0       0.00      105.4       0.61       2.02        0.0
0:02              223        6.4         68       17.8      122.8       17.8       19.3       11.9     1015.2       17.9       17.8        0.0        0.0        0.0       0.00        0.2       0.00       0.00        0.0
0:04              223        6.4         69       17.8      122.8       17.8       19.4       12.0     1015.2       17.9       17.8        0.0        0.0        0.0       0.00        0.3       0.00       0.00        0.0
0:06              223        4.8         69       17.8      122.8       17.8       19.4       12.0     1015.2       17.9       17.8        0.0        0.0        0.0       0.00        0.4       0.00       0.00        0.0
0:07              223        4.8         69       17.7      122.8       17.7       19.3       12.0     1015.1       17.9       17.7        0.0        0.0        0.0       0.00        0.6       0.00       0.00        0.0
0:10              223        4.8         70       17.7      122.8       17.7       19.3       12.1     1015.1       17.9       17.7        0.0        0.0        0.0       0.00        0.7       0.00       0.00        0.0
0:12              223        3.2         70       17.6      122.8       17.6       19.3       12.1     1015.1       17.9       17.6        0.0        0.0        0.0       0.00        0.7       0.00       0.00        0.0
0:14              217        8.0         70       17.6      122.8       17.6       19.2       12.0     1015.1       17.9       17.6        0.0        0.0        0.0       0.00        0.9       0.00       0.00        0.0
0:15              211        6.4         70       17.6      122.8       17.6       19.2       12.0     1015.0       17.9       17.6        0.0        0.0        0.0       0.00        1.1       0.01       0.00        0.0
0:18              210        3.2         71       17.5      122.8       17.5       19.2       12.2     1014.9       17.9       17.5        0.0        0.0        0.0       0.00        1.2       0.01       0.00        0.0
0:20              210        3.2         71       17.4      122.8       17.4       19.2       12.1     1015.0       17.9       17.4        0.0        0.0        0.0       0.00        1.3       0.01       0.00        0.0
0:22              210        4.8         71       17.4      122.8       17.4       19.1       12.1     1014.9       17.9       17.4        0.0        0.0        0.0       0.00        1.4       0.01       0.00        0.0
0:24              209        4.8         71       17.3      122.8       17.3       19.0       12.0     1014.8       17.9       17.3        0.0        0.0        0.0       0.00        1.5       0.01       0.00        0.0
0:26              209        6.4         71       17.3      122.8       17.3       19.0       12.0     1014.9       17.9       17.3        0.0        0.0        0.0       0.00        1.6       0.01       0.00        0.0
0:28              206        8.0         71       17.3      122.8       17.3       19.0       12.0     1014.9       17.9       17.3        0.0        0.0        0.0       0.00        1.8       0.01       0.00        0.0
0:30              205        4.8         71       17.2      122.8       17.2       18.9       11.9     1014.8       17.9       17.2        0.0        0.0        0.0       0.00        2.0       0.01       0.00        0.0
0:32              205        4.8         71       17.2      122.8       17.2       18.9       11.9     1014.8       17.9       17.2        0.0        0.0        0.0       0.00        2.1       0.01       0.00        0.0
0:34              205        3.2         71       17.2      122.8       17.2       18.9       11.9     1014.8       17.9       17.2        0.0        0.0        0.0       0.00        2.2       0.01       0.00        0.0
0:36              205        3.2         72       17.1      122.8       17.1       18.9       12.0     1014.9       17.9       17.1        0.0        0.0        0.0       0.00        2.3       0.01       0.00        0.0
0:38              205        0.0         72       17.1      122.8       17.1       18.8       12.0     1014.8       17.9       17.1        0.0        0.0        0.0       0.00        2.3       0.01       0.00        0.0
0:39              205        0.0         72       17.1      122.8       17.1       18.8       12.0     1014.9       17.9       17.1        0.0        0.0        0.0       0.00        2.3       0.01       0.00        0.0
0:42              205        0.0         72       17.0      122.8       17.0       18.8       11.9     1015.0       17.9       17.0        0.0        0.0        0.0       0.00        2.3       0.01       0.00        0.0
0:43              205        1.6         72       17.0      122.8       17.0       18.8       11.9     1014.9       17.9       17.0        0.0        0.0        0.0       0.00        2.4       0.01       0.00        0.0
0:46              205        3.2         72       16.9      122.8       16.9       18.7       11.9     1015.0       17.9       16.9        0.0        0.0        0.0       0.00        2.4       0.02       0.00        0.0
0:48              204        8.0         72       16.9      122.8       16.9       18.7       11.8     1014.8       17.9       16.9        0.0        0.0        0.0       0.00        2.5       0.02       0.00        0.0
0:50              204        3.2         72       16.9      122.8       16.9       18.7       11.8     1014.9       17.9       16.9        0.0        0.0        0.0       0.00        2.7       0.02       0.00        0.0
0:52              204        0.0         73       16.8      122.8       16.8       18.7       12.0     1014.8       17.9       16.8        0.0        0.0        0.0       0.00        2.7       0.02       0.00        0.0
0:54              204        0.0         73       16.8      122.8       16.8       18.7       12.0     1014.8       17.9       16.8        0.0        0.0        0.0       0.00        2.7       0.02       0.00        0.0
0:56              204        4.8         73       16.8      122.8       16.8       18.7       12.0     1014.9       17.9       16.8        0.0        0.0        0.0       0.00        2.8       0.02       0.00        0.0
0:58              204        1.6         73       16.8      122.8       16.8       18.7       12.0     1014.8       17.9       16.8        0.0        0.0        0.0       0.00        2.9       0.02       0.00        0.0
1:00              204        1.6         73       16.8      122.8       16.8       18.6       11.9     1014.8       17.9       16.8        0.0        0.0        0.0       0.00        2.9       0.02       0.00        0.0
1:02              204        1.6         73       16.8      122.8       16.8       18.6       11.9     1014.9       17.9       16.8        0.0        0.0        0.0       0.00        3.0       0.04       0.00        0.0
1:04              204        3.2         73       16.7      122.8       16.7       18.6       11.9     1014.8       17.9       16.7        0.0        0.0        0.0       0.00        3.0       0.04       0.00        0.0
1:06              204        3.2         73       16.7      122.8       16.7       18.6       11.9     1014.7       17.9       16.7        0.0        0.0        0.0       0.00        3.1       0.04       0.00        0.0
1:08              204        3.2         73       16.7      122.8       16.7       18.5       11.8     1014.7       17.9       16.7        0.0        0.0        0.0       0.00        3.2       0.04       0.00        0.0
1:10              204        0.0         73       16.7      122.8       16.7       18.5       11.8     1014.7       17.9       16.7        0.0        0.0        0.0       0.00        3.2       0.04       0.00        0.0
1:11              204        0.0         73       16.7      122.8       16.7       18.5       11.8     1014.6       17.9       16.7        0.0        0.0        0.0       0.00        3.2       0.04       0.00        0.0
1:14              204        1.6         73       16.6      122.8       16.6       18.5       11.8     1014.7       17.9       16.6        0.0        0.0        0.0       0.00        3.2       0.04       0.00        0.0
1:15              204        0.0         73       16.6      122.8       16.6       18.5       11.8     1014.6       17.9       16.6        0.0        0.0        0.0       0.00        3.2       0.05       0.00        0.0
1:18              204        0.0         74       16.6      122.8       16.6       18.5       12.0     1014.7       17.9       16.6        0.0        0.0        0.0       0.00        3.2       0.05       0.00        0.0
1:20              204        0.0         74       16.6      122.8       16.6       18.5       12.0     1014.7       17.9       16.6        0.0        0.0        0.0       0.00        3.2       0.05       0.00        0.0
1:22              204        0.0         74       16.6      122.8       16.6       18.5       12.0     1014.6       17.9       16.6        0.0        0.0        0.0       0.00        3.2       0.05       0.00        0.0
1:24              204        0.0         74       16.6      122.8       16.6       18.5       12.0     1014.6       17.9       16.6        0.0        0.0        0.0       0.00        3.2       0.05       0.00        0.0
1:26              204        0.0         74       16.6      122.8       16.6       18.5       12.0     1014.6       17.9       16.6        0.0        0.0        0.0       0.00        3.2       0.05       0.00        0.0
1:28              204        0.0         74       16.6      122.8       16.6       18.5       12.0     1014.6       17.9       16.6        0.0        0.0        0.0       0.00        3.2       0.05       0.00        0.0
1:30              204        0.0         74       16.6      122.8       16.6       18.5       11.9     1014.5       17.9       16.6        0.0        0.0        0.0       0.00        3.2       0.05       0.00        0.0
1:32              204        0.0         74       16.6      122.8       16.6       18.5       11.9     1014.6       17.9       16.6        0.0        0.0        0.0       0.00        3.2       0.07       0.00        0.0
1:34              204        0.0         74       16.6      122.8       16.6       18.5       11.9     1014.6       17.9       16.6        0.0        0.0        0.0       0.00        3.2       0.07       0.00        0.0
1:36              204        0.0         74       16.6      122.8       16.6       18.5       11.9     1014.6       17.9       16.6        0.0        0.0        0.0       0.00        3.2       0.07       0.00        0.0
1:38              204        0.0         74       16.6      122.8       16.6       18.5       11.9     1014.6       17.9       16.6        0.0        0.0        0.0       0.00        3.2       0.07       0.00        0.0
1:40              204        0.0         75       16.5      122.8       16.5       18.5       12.1     1014.5       17.9       16.5        0.0        0.0        0.0       0.00        3.2       0.07       0.00        0.0
1:42              204        0.0         74       16.6      122.8       16.6       18.5       11.9     1014.5       17.9       16.5        0.0        0.0        0.0       0.00        3.2       0.07       0.00        0.0
1:44              204        0.0         74       16.6      122.8       16.6       18.5       11.9     1014.5       17.9       16.5        0.0        0.0        0.0       0.00        3.2       0.07       0.00        0.0
1:46              204        0.0         74       16.6      122.8       16.6       18.5       11.9     1014.5       17.9       16.5        0.0        0.0        0.0       0.00        3.2       0.08       0.00        0.0
1:48              204        0.0         74       16.5      122.8       16.5       18.4       11.9     1014.5       17.9       16.5        0.0        0.0        0.0       0.00        3.2       0.08       0.00        0.0
1:50              204        0.0         74       16.5      122.8       16.5       18.4       11.9     1014.5       17.9       16.5        0.0        0.0        0.0       0.00        3.2       0.08       0.00        0.0
1:52              204        0.0         75       16.5      122.8       16.5       18.5       12.1     1014.5       17.9       16.5        0.0        0.0        0.0       0.00        3.2       0.08       0.00        0.0
1:54              204        0.0         75       16.5      122.8       16.5       18.5       12.1     1014.6       17.9       16.5        0.0        0.0        0.0       0.00        3.2       0.08       0.00        0.0
1:56              204        0.0         75       16.5      122.8       16.5       18.5       12.1     1014.6       17.9       16.5        0.0        0.0        0.0       0.00        3.2       0.08       0.00        0.0
1:58              204        0.0         75       16.5      122.8       16.5       18.5       12.1     1014.4       17.9       16.5        0.0        0.0        0.0       0.00        3.2       0.08       0.00        0.0
2:00              204        0.0         75       16.5      122.8       16.5       18.5       12.1     1014.5       17.9       16.5        0.0        0.0        0.0       0.00        3.2       0.08       0.00        0.0
2:02              204        0.0         75       16.5      122.8       16.5       18.5       12.1     1014.4       17.9       16.5        0.0        0.0        0.0       0.00        3.2       0.10       0.00        0.0
2:04              204        0.0         75       16.5      122.8       16.5       18.5       12.1     1014.5       17.9       16.5        0.0        0.0        0.0       0.00        3.2       0.10       0.00        0.0
2:06              204        0.0         75       16.5      122.8       16.5       18.5       12.1     1014.5       17.9       16.5        0.0        0.0        0.0       0.00        3.2       0.10       0.00        0.0
2:08              204        0.0         75       16.5      122.8       16.5       18.5       12.1     1014.5       17.9       16.5        0.0        0.0        0.0       0.00        3.2       0.10       0.00        0.0
2:10              204        0.0         75       16.5      122.8       16.5       18.5       12.1     1014.4       17.9       16.5        0.0        0.0        0.0       0.00        3.2       0.10       0.00        0.0
2:11              204        0.0         75       16.5      122.8       16.5       18.5       12.1     1014.4       17.9       16.5        0.0        0.0        0.0       0.00        3.2       0.10       0.00        0.0
2:13              204        0.0         75       16.4      122.8       16.4       18.4       12.0     1014.5       17.9       16.4        0.0        0.0        0.0       0.00        3.2       0.10       0.00        0.0
2:16              204        0.0         75       16.4      122.8       16.4       18.4       12.0     1014.5       17.9       16.4        0.0        0.0        0.0       0.00        3.2       0.11       0.00        0.0
2:18              204        0.0         75       16.4      122.8       16.4       18.4       12.0     1014.5       17.9       16.4        0.0        0.0        0.0       0.00        3.2       0.11       0.00        0.0
2:19              204        0.0         75       16.4      122.8       16.4       18.4       12.0     1014.5       17.9       16.4        0.0        0.0        0.0       0.00        3.2       0.11       0.00        0.0
2:22              204        0.0         75       16.4      122.8       16.4       18.4       12.0     1014.4       17.9       16.4        0.0        0.0        0.0       0.00        3.2       0.11       0.00        0.0
2:23              204        0.0         75       16.5      122.8       16.5       18.5       12.1     1014.5       17.9       16.4        0.0        0.0        0.0       0.00        3.2       0.11       0.00        0.0
2:26              204        0.0         75       16.4      122.8       16.4       18.4       12.0     1014.4       17.9       16.4        0.0        0.0        0.0       0.00        3.2       0.11       0.00        0.0
2:28              204        0.0         75       16.4      122.8       16.4       18.4       12.0     1014.4       17.9       16.4        0.0        0.0        0.0       0.00        3.2       0.11       0.00        0.0
2:30              204        0.0         75       16.4      122.8       16.4       18.4       12.0     1014.5       17.9       16.4        0.0        0.0        0.0       0.00        3.2       0.11       0.00        0.0
2:32              204        0.0         75       16.4      122.8       16.4       18.4       12.0     1014.5       17.9       16.4        0.0        0.0        0.0       0.00        3.2       0.13       0.00        0.0
2:34              204        0.0         75       16.4      122.8       16.4       18.4       12.0     1014.5       17.9       16.4        0.0        0.0        0.0       0.00        3.2       0.13       0.00        0.0
2:36              204        0.0         75       16.4      122.8       16.4       18.4       12.0     1014.4       17.9       16.4        0.0        0.0        0.0       0.00        3.2       0.13       0.00        0.0
2:38              204        0.0         75       16.4      122.8       16.4       18.4       12.0     1014.4       17.9       16.4        0.0        0.0        0.0       0.00        3.2       0.13       0.00        0.0
2:40              204        0.0         75       16.4      122.8       16.4       18.4       12.0     1014.5       17.9       16.4        0.0        0.0        0.0       0.00        3.2       0.13       0.00        0.0
2:42              204        0.0         75       16.4      122.8       16.4       18.4       12.0     1014.4       17.9       16.4        0.0        0.0        0.0       0.00        3.2       0.13       0.00        0.0
2:44              204        0.0         75       16.4      122.8       16.4       18.4       12.0     1014.5       17.9       16.4        0.0        0.0        0.0       0.00        3.2       0.13       0.00        0.0
2:46              204        0.0         76       16.4      122.8       16.4       18.4       12.2     1014.5       17.9       16.4        0.0        0.0        0.0       0.00        3.2       0.15       0.00        0.0
2:48              204        0.0         76       16.4      122.8       16.4       18.4       12.2     1014.5       17.9       16.4        0.0        0.0        0.0       0.00        3.2       0.15       0.00        0.0
2:49              204        0.0         76       16.4      122.8       16.4       18.4       12.2     1014.5       17.9       16.4        0.0        0.0        0.0       0.00        3.2       0.15       0.00        0.0
2:51              204        0.0         76       16.4      122.8       16.4       18.4       12.2     1014.4       17.9       16.4        0.0        0.0        0.0       0.00        3.2       0.15       0.00        0.0
2:54              204        0.0         76       16.4      122.8       16.4       18.4       12.2     1014.4       17.9       16.4        0.0        0.0        0.0       0.00        3.2       0.15       0.00        0.0
2:55              204        0.0         76       16.4      122.8       16.4       18.4       12.2     1014.4       17.9       16.4        0.0        0.0        0.0       0.00        3.2       0.15       0.00        0.0
2:58              204        0.0         76       16.4      122.8       16.4       18.4       12.2     1014.4       17.9       16.4        0.0        0.0        0.0       0.00        3.2       0.15       0.00        0.0
3:00              204        0.0         76       16.4      122.8       16.4       18.4       12.2     1014.4       17.9       16.4        0.0        0.0        0.0       0.00        3.2       0.15       0.00        0.0
3:02              204        0.0         76       16.4      122.8       16.4       18.4       12.2     1014.3       17.9       16.4        0.0        0.0        0.0       0.00        3.2       0.16       0.00        0.0
3:04              204        0.0         76       16.4      122.8       16.4       18.4       12.2     1014.4       17.9       16.4        0.0        0.0        0.0       0.00        3.2       0.16       0.00        0.0
3:06              204        0.0         76       16.4      122.8       16.4       18.4       12.2     1014.3       17.9       16.4        0.0        0.0        0.0       0.00        3.2       0.16       0.00        0.0
3:08              204        0.0         76       16.4      122.8       16.4       18.4       12.2     1014.3       17.9       16.4        0.0        0.0        0.0       0.00        3.2       0.16       0.00        0.0
3:10              204        0.0         76       16.4      122.8       16.4       18.4       12.2     1014.3       17.9       16.4        0.0        0.0        0.0       0.00        3.2       0.16       0.00        0.0
3:12              204        0.0         76       16.4      122.8       16.4       18.4       12.2     1014.3       17.9       16.3        0.0        0.0        0.0       0.00        3.2       0.16       0.00        0.0
3:14              204        0.0         76       16.3      122.8       16.3       18.4       12.1     1014.3       17.9       16.3        0.0        0.0        0.0       0.00        3.2       0.16       0.00        0.0
3:16              204        0.0         76       16.3      122.8       16.3       18.4       12.1     1014.3       17.9       16.3        0.0        0.0        0.0       0.00        3.2       0.18       0.00        0.0
3:18              204        0.0         76       16.3      122.8       16.3       18.4       12.1     1014.3       17.9       16.3        0.0        0.0        0.0       0.00        3.2       0.18       0.00        0.0
3:20              204        0.0         76       16.3      122.8       16.3       18.4       12.1     1014.2       17.9       16.3        0.0        0.0        0.0       0.00        3.2       0.18       0.00        0.0
3:22              204        0.0         76       16.3      122.8       16.3       18.4       12.1     1014.2       17.9       16.3        0.0        0.0        0.0       0.00        3.2       0.18       0.00        0.0
3:24              204        0.0         76       16.3      122.8       16.3       18.4       12.1     1014.3       17.9       16.3        0.0        0.0        0.0       0.00        3.2       0.18       0.00        0.0
3:26              204        0.0         76       16.3      122.8       16.3       18.4       12.1     1014.3       17.9       16.3        0.0        0.0        0.0       0.00        3.2       0.18       0.00        0.0
3:28              204        0.0         77       16.3      122.8       16.3       18.5       12.3     1014.3       17.9       16.3        0.0        0.0        0.0       0.00        3.2       0.18       0.00        0.0
3:30              204        0.0         77       16.3      122.8       16.3       18.5       12.3     1014.2       17.9       16.3        0.0        0.0        0.0       0.00        3.2       0.18       0.00        0.0
3:32              204        0.0         77       16.3      122.8       16.3       18.5       12.3     1014.2       17.9       16.3        0.0        0.0        0.0       0.00        3.2       0.20       0.00        0.0
3:33              204        0.0         77       16.3      122.8       16.3       18.5       12.3     1014.2       17.9       16.3        0.0        0.0        0.0       0.00        3.2       0.20       0.00        0.0
3:35              204        0.0         76       16.3      122.8       16.3       18.4       12.1     1014.2       17.9       16.3        0.0        0.0        0.0       0.00        3.2       0.20       0.00        0.0
3:38              204        0.0         76       16.3      122.8       16.3       18.4       12.1     1014.2       17.9       16.3        0.0        0.0        0.0       0.00        3.2       0.20       0.00        0.0
3:40              204        0.0         76       16.3      122.8       16.3       18.3       12.0     1014.2       17.9       16.3        0.0        0.0        0.0       0.00        3.2       0.20       0.00        0.0
3:42              204        0.0         76       16.3      122.8       16.3       18.3       12.0     1014.3       17.9       16.3        0.0        0.0        0.0       0.00        3.2       0.20       0.00        0.0
3:43              204        0.0         77       16.3      122.8       16.3       18.4       12.2     1014.3       17.9       16.3        0.0        0.0        0.0       0.00        3.2       0.20       0.00        0.0
3:46              204        0.0         76       16.3      122.8       16.3       18.3       12.0     1014.3       17.9       16.3        0.0        0.0        0.0       0.00        3.2       0.22       0.00        0.0
3:48              204        0.0         77       16.3      122.8       16.3       18.4       12.2     1014.3       17.9       16.3        0.0        0.0        0.0       0.00        3.2       0.22       0.00        0.0
3:50              204        0.0         77       16.3      122.8       16.3       18.5       12.3     1014.2       17.9       16.3        0.0        0.0        0.0       0.00        3.2       0.22       0.00        0.0
3:52              204        0.0         77       16.3      122.8       16.3       18.5       12.3     1014.2       17.9       16.3        0.0        0.0        0.0       0.00        3.2       0.22       0.00        0.0
3:54              204        0.0         77       16.3      122.8       16.3       18.5       12.3     1014.4       17.9       16.3        0.0        0.0        0.0       0.00        3.2       0.22       0.00        0.0
3:56              204        0.0         77       16.3      122.8       16.3       18.5       12.3     1014.4       17.9       16.3        0.0        0.0        0.0       0.00        3.2       0.22       0.00        0.0
3:58              204        0.0         77       16.3      122.8       16.3       18.5       12.3     1014.4       17.9       16.3        0.0        0.0        0.0       0.00        3.2       0.22       0.00        0.0
4:00              204        0.0         77       16.3      122.8       16.3       18.5       12.3     1014.4       17.9       16.3        0.0        0.0        0.0       0.00        3.2       0.22       0.00        0.0
4:02              204        0.0         76       16.4      122.8       16.4       18.4       12.2     1014.4       17.9       16.3        0.0        0.0        0.0       0.00        3.2       0.23       0.00        0.0
4:04              204        0.0         76       16.4      122.8       16.4       18.4       12.2     1014.4       17.9       16.3        0.0        0.0        0.0       0.00        3.2       0.23       0.00        0.0
4:06              204        0.0         76       16.4      122.8       16.4       18.4       12.2     1014.4       17.9       16.3        0.0        0.0        0.0       0.00        3.2       0.23       0.00        0.0
4:08              204        0.0         76       16.4      122.8       16.4       18.4       12.2     1014.5       17.9       16.3        0.0        0.0        0.0       0.00        3.2       0.23       0.00        0.0
4:10              204        0.0         76       16.4      122.8       16.4       18.4       12.2     1014.4       17.9       16.3        0.0        0.0        0.0       0.00        3.2       0.23       0.00        0.0
4:12              204        0.0         76       16.4      122.8       16.4       18.4       12.2     1014.4       17.9       16.3        0.0        0.0        0.0       0.00        3.2       0.23       0.00        0.0
4:14              204        0.0         76       16.4      122.8       16.4       18.4       12.2     1014.5       17.9       16.3        0.0        0.0        0.0       0.00        3.2       0.23       0.00        0.0
4:16              204        0.0         76       16.4      122.8       16.4       18.4       12.2     1014.4       17.9       16.3        0.0        0.0        0.0       0.00        3.2       0.25       0.00        0.0
4:17              204        0.0         76       16.4      122.8       16.4       18.4       12.2     1014.4       17.9       16.3        0.0        0.0        0.0       0.00        3.2       0.25       0.00        0.0
4:20              204        0.0         76       16.4      122.8       16.4       18.4       12.2     1014.4       17.9       16.3        0.0        0.0        0.0       0.00        3.2       0.25       0.00        0.0
4:22              204        0.0         76       16.4      122.8       16.4       18.4       12.2     1014.4       17.9       16.3        0.0        0.0        0.0       0.00        3.2       0.25       0.00        0.0
4:24              204        0.0         76       16.4      122.8       16.4       18.5       12.2     1014.4       17.9       16.3        0.0        0.0        0.0       0.00        3.2       0.25       0.00        0.0
4:25              204        0.0         76       16.4      122.8       16.4       18.5       12.2     1014.4       17.9       16.3        0.0        0.0        0.0       0.00        3.2       0.25       0.00        0.0
4:28              204        0.0         76       16.4      122.8       16.4       18.5       12.2     1014.4       17.9       16.3        0.0        0.0        0.0       0.00        3.2       0.25       0.00        0.0
4:30              204        0.0         76       16.4      122.8       16.4       18.4       12.2     1014.4       17.9       16.3        0.0        0.0        0.0       0.00        3.2       0.25       0.00        0.0
4:31              204        0.0         76       16.4      122.8       16.4       18.4       12.2     1014.4       17.9       16.3        0.0        0.0        0.0       0.00        3.2       0.27       0.00        0.0
4:33              204        0.0         76       16.4      122.8       16.4       18.4       12.2     1014.4       17.9       16.3        0.0        0.0        0.0       0.00        3.2       0.27       0.00        0.0
4:35              204        0.0         76       16.4      122.8       16.4       18.4       12.2     1014.5       17.9       16.3        0.0        0.0        0.0       0.00        3.2       0.27       0.00        0.0
4:38              204        0.0         76       16.4      122.8       16.4       18.4       12.2     1014.5       17.9       16.3        0.0        0.0        0.0       0.00        3.2       0.27       0.00        0.0
4:40              204        0.0         75       16.4      122.8       16.4       18.4       12.0     1014.5       17.9       16.3        0.0        0.0        0.0       0.00        3.2       0.27       0.00        0.0
4:42              204        0.0         75       16.3      122.8       16.3       18.3       11.9     1014.5       17.9       16.3        0.0        0.0        0.0       0.00        3.2       0.27       0.00        0.0
4:43              204        0.0         75       16.3      122.8       16.3       18.3       11.9     1014.4       17.9       16.3        0.0        0.0        0.0       0.00        3.2       0.27       0.00        0.0
4:46              204        0.0         75       16.3      122.8       16.3       18.3       11.9     1014.6       17.9       16.3        0.0        0.0        0.0       0.00        3.2       0.28       0.00        0.0
4:48              204        0.0         75       16.3      122.8       16.3       18.3       11.9     1014.6       17.9       16.3        0.0        0.0        0.0       0.00        3.2       0.28       0.00        0.0
4:50              204        0.0         76       16.3      122.8       16.3       18.4       12.1     1014.6       17.9       16.3        0.0        0.0        0.0       0.00        3.2       0.28       0.00        0.0
4:52              204        0.0         76       16.3      122.8       16.3       18.3       12.0     1014.6       17.9       16.3        0.0        0.0        0.0       0.00        3.2       0.28       0.00        0.0
4:54              204        0.0         76       16.3      122.8       16.3       18.3       12.0     1014.6       17.9       16.3        0.0        0.0        0.0       0.00        3.2       0.28       0.00        0.0
4:55              204        0.0         76       16.3      122.8       16.3       18.4       12.1     1014.6       17.9       16.3        0.0        0.0        0.0       0.00        3.2       0.28       0.00        0.0
4:58              204        0.0         76       16.3      122.8       16.3       18.3       12.0     1014.6       17.9       16.3        0.0        0.0        0.0       0.00        3.2       0.28       0.00        0.0
5:00              204        0.0         76       16.3      122.8       16.3       18.3       12.0     1014.7       17.9       16.3        0.0        0.0        0.0       0.00        3.2       0.28       0.00        0.0
5:02              204        0.0         76       16.3      122.8       16.3       18.3       12.0     1014.8       17.9       16.3        0.0        0.0        0.0       0.00        3.2       0.30       0.00        0.0
5:04              204        0.0         76       16.3      122.8       16.3       18.3       12.0     1014.7       17.9       16.3        0.0        0.0        0.0       0.00        3.2       0.30       0.00        0.0
5:06              204        0.0         76       16.3      122.8       16.3       18.3       12.0     1014.8       17.9       16.3        0.0        0.0        0.0       0.00        3.2       0.30       0.00        0.0
5:07              204        0.0         76       16.3      122.8       16.3       18.3       12.0     1014.8       17.9       16.3        0.0        0.0        0.0       0.00        3.2       0.30       0.00        0.0
5:10              204        0.0         76       16.3      122.8       16.3       18.3       12.0     1014.7       17.9       16.3        0.0        0.0        0.0       0.00        3.2       0.30       0.00        0.0
5:12              204        0.0         76       16.3      122.8       16.3       18.3       12.0     1014.7       17.9       16.3        0.0        0.0        0.0       0.00        3.2       0.30       0.00        0.0
5:13              204        0.0         76       16.3      122.8       16.3       18.3       12.0     1014.8       17.9       16.3        0.0        0.0        0.0       0.00        3.2       0.30       0.00        0.0
5:16              204        0.0         76       16.2      122.8       16.2       18.3       12.0     1014.8       17.9       16.2        0.0        0.0        0.0       0.00        3.2       0.32       0.00        0.0
5:18              204        0.0         76       16.2      122.8       16.2       18.3       12.0     1014.9       17.9       16.2        0.0        0.0        0.0       0.00        3.2       0.32       0.00        0.0
5:20              204        0.0         76       16.2      122.8       16.2       18.3       12.0     1014.9       17.9       16.2        0.0        0.0        0.0       0.00        3.2       0.32       0.00        0.0
5:21              204        0.0         76       16.2      122.8       16.2       18.3       12.0     1014.8       17.9       16.2        0.0        0.0        0.0       0.00        3.2       0.32       0.00        0.0
5:24              204        0.0         76       16.2      122.8       16.2       18.2       11.9     1014.8       17.9       16.2        0.0        0.0        0.0       0.00        3.2       0.32       0.00        0.0
5:26              204        0.0         76       16.2      122.8       16.2       18.2       11.9     1014.9       17.9       16.2        0.0        0.0        0.0       0.00        3.2       0.32       0.00        0.0
5:27              204        0.0         76       16.2      122.8       16.2       18.2       11.9     1014.9       17.9       16.2        0.0        0.0        0.0       0.00        3.2       0.32       0.00        0.0
5:29              204        0.0         76       16.2      122.8       16.2       18.3       12.0     1014.9       17.9       16.2        0.0        0.0        0.0       0.00        3.2       0.32       0.00        0.0
5:32              204        0.0         76       16.2      122.8       16.2       18.3       12.0     1014.9       17.9       16.2        0.0        0.0        0.0       0.00        3.2       0.34       0.00        0.0
5:34              204        0.0         76       16.2      122.8       16.2       18.3       12.0     1014.8       17.9       16.2        0.0        0.0        0.0       0.00        3.2       0.34       0.00        0.0
5:36              204        1.6         77       16.3      122.8       16.3       18.4       12.2     1014.9       17.9       16.2        0.0        0.0        0.0       0.00        3.3       0.34       0.00        0.0
5:38              204        0.0         76       16.3      122.8       16.3       18.4       12.1     1015.0       17.9       16.2        0.0        0.0        0.0       0.00        3.3       0.34       0.00        0.0
5:40              204        0.0         77       16.3      122.8       16.3       18.5       12.3     1015.0       17.9       16.2        0.0        0.0        0.0       0.00        3.3       0.34       0.00        0.0
5:42              204        0.0         76       16.4      122.8       16.4       18.4       12.2     1014.9       17.9       16.2        0.0        0.0        0.0       0.00        3.3       0.34       0.00        0.0
5:44              204        0.0         76       16.4      122.8       16.4       18.4       12.2     1015.0       17.9       16.2        0.0        0.0        0.0       0.00        3.3       0.34       0.00        0.0
5:46              204        0.0         76       16.4      122.8       16.4       18.5       12.2     1014.9       17.9       16.2        0.0        0.0        0.0       0.00        3.3       0.36       0.00        0.0
5:48              204        0.0         76       16.5      122.8       16.5       18.6       12.3     1014.9       17.9       16.2        0.0        0.0        0.0       0.00        3.3       0.36       0.00        0.0
5:50              204        0.0         75       16.5      122.8       16.5       18.5       12.1     1015.0       17.9       16.2        0.0        0.0        0.0       0.00        3.3       0.36       0.00        0.0
5:52              204        0.0         75       16.5      122.8       16.5       18.5       12.1     1014.9       17.9       16.2        0.0        0.0        0.0       0.00        3.3       0.36       0.00        0.0
5:54              204        0.0         75       16.5      122.8       16.5       18.5       12.1     1015.0       17.9       16.2        0.0        0.0        0.0       0.00        3.3       0.36       0.00        0.0
5:56              204        1.6         75       16.5      122.8       16.5       18.5       12.1     1015.0       17.9       16.2        0.0        0.0        0.0       0.00        3.3       0.36       0.00        0.0
5:58              204        0.0         75       16.5      122.8       16.5       18.5       12.1     1015.0       17.9       16.2        0.0        0.0        0.0       0.00        3.3       0.36       0.00        0.0
6:00              204        0.0         75       16.5      122.8       16.5       18.5       12.1     1015.0       17.9       16.2        0.0        0.0        0.0       0.00        3.3       0.36       0.00        0.0
6:02              204        0.0         75       16.6      122.8       16.6       18.5       12.1     1015.0       17.9       16.2        0.0        0.0        0.0       0.00        3.3       0.37       0.00        0.0
6:04              204        0.0         74       16.6      122.8       16.6       18.5       11.9     1015.0       17.9       16.2        0.0        0.0        0.0       0.00        3.3       0.37       0.00        0.0
6:06              204        0.0         75       16.6      122.8       16.6       18.5       12.1     1015.1       17.9       16.2        0.0        0.0        0.0       0.00        3.3       0.37       0.00        0.0
6:08              204        0.0         75       16.6      122.8       16.6       18.5       12.1     1015.1       17.9       16.2        0.0        0.0        0.0       0.00        3.3       0.37       0.00        0.0
6:10              204        0.0         74       16.6      122.8       16.6       18.5       11.9     1015.0       17.9       16.2        0.0        0.0        0.0       0.00        3.3       0.37       0.00        0.0
6:12              204        0.0         74       16.6      122.8       16.6       18.5       12.0     1015.0       17.9       16.2        0.0        0.0        0.0       0.00        3.3       0.37       0.00        0.0
6:14              204        0.0         74       16.6      122.8       16.6       18.5       12.0     1015.1       17.9       16.2        0.0        0.0        0.0       0.00        3.3       0.37       0.00        0.0
6:16              204        0.0         74       16.6      122.8       16.6       18.5       12.0     1015.0       17.9       16.2        0.0        0.0        0.0       0.00        3.3       0.39       0.00        0.0
6:18              204        0.0         74       16.7      122.8       16.7       18.6       12.0     1015.1       17.9       16.2        0.0        0.0        0.0       0.00        3.3       0.39       0.00        0.0
6:19              204        0.0         74       16.7      122.8       16.7       18.6       12.1     1015.1       17.9       16.2        0.0        0.0        0.0       0.00        3.3       0.39       0.00        0.0
6:22              204        0.0         75       16.7      122.8       16.7       18.7       12.3     1015.1       17.9       16.2        0.0        0.0        0.0       0.00        3.3       0.39       0.00        0.0
6:24              204        0.0         74       16.8      122.8       16.8       18.7       12.1     1015.0       17.9       16.2        0.0        0.0        0.0       0.00        3.3       0.39       0.00        0.0
6:26              204        0.0         74       16.8      122.8       16.8       18.7       12.1     1015.1       17.9       16.2        0.0        0.0        0.0       0.00        3.3       0.39       0.00        0.0
6:28              204        0.0         74       16.8      122.8       16.8       18.7       12.2     1015.0       17.9       16.2        0.0        0.0        0.0       0.00        3.3       0.39       0.00        0.0
6:30              204        0.0         74       16.9      122.8       16.9       18.8       12.2     1015.1       17.9       16.2        0.0        0.0        0.0       0.00        3.3       0.39       0.00        0.0
6:32              204        0.0         74       16.9      122.8       16.9       18.8       12.2     1015.1       17.9       16.2        0.0        0.0        0.0       0.00        3.3       0.40       0.00        0.0
6:34              204        0.0         74       16.9      122.8       16.9       18.9       12.3     1015.1       17.9       16.2        0.0        0.0        0.0       0.00        3.3       0.40       0.00        0.0
6:36              204        0.0         74       17.0      122.8       17.0       18.9       12.3     1015.1       17.9       16.2        0.0        0.0        0.0       0.00        3.3       0.40       0.00        0.0
6:37              204        0.0         74       17.1      122.8       17.1       19.0       12.4     1015.1       17.9       16.2        0.0        0.0        0.0       0.00        3.3       0.40       0.00        0.0
6:40              204        0.0         73       17.2      122.8       17.2       19.0       12.3     1015.1       17.9       16.2        0.0        0.0        0.0       0.00        3.3       0.40       0.00        0.0
6:42              204        0.0         73       17.2      122.8       17.2       19.1       12.3     1015.1       17.9       16.2        0.0        0.0        0.0       0.00        3.3       0.40       0.00        0.0
6:44              204        0.0         73       17.3      122.8       17.3       19.1       12.4     1015.1       17.9       16.2        0.0        0.0        0.0       0.00        3.3       0.40       0.00        0.0
6:46              204        0.0         73       17.3      122.8       17.3       19.2       12.5     1015.1       17.9       16.2        0.0        0.0        0.0       0.00        3.3       0.41       0.00        0.0
6:48              204        0.0         73       17.4      122.8       17.4       19.2       12.5     1015.1       17.9       16.2        0.0        0.0        0.0       0.00        3.3       0.41       0.00        0.0
6:50              204        0.0         72       17.4      122.8       17.4       19.2       12.3     1015.1       17.9       16.2        0.0        0.0        0.0       0.00        3.3       0.41       0.00        0.0
6:52              204        0.0         72       17.5      122.8       17.5       19.3       12.4     1015.2       17.9       16.2        0.0        0.0        0.0       0.00        3.3       0.41       0.00        0.0
6:53              204        0.0         72       17.6      122.8       17.6       19.4       12.5     1015.2       17.9       16.2        0.0        0.0        0.0       0.00        3.3       0.41       0.00        0.0
6:56              204        0.0         71       17.7      122.8       17.7       19.4       12.3     1015.2       17.9       16.2        0.0        0.0        0.0       0.00        3.3       0.41       0.00        0.0
6:58              204        0.0         71       17.7      122.8       17.7       19.4       12.4     1015.2       17.9       16.2        0.0        0.0        0.0       0.00        3.3       0.41       0.00        0.0
7:00              204        0.0         71       17.8      122.8       17.8       19.5       12.5     1015.2       17.9       16.2        0.0        0.0        0.0       0.00        3.3       0.41       0.00        0.0
7:02              204        0.0         71       17.9      122.8       17.9       19.6       12.6     1015.4       17.9       16.2        0.0        0.0        0.0       0.00        3.3       0.41       0.00        0.0
7:04              204        0.0         70       17.9      122.8       17.9       19.6       12.4     1015.3       17.9       16.2        0.0        0.0        0.0       0.00        3.3       0.41       0.00        0.0
7:06              204        0.0         70       18.0      122.8       18.0       19.6       12.5     1015.5       18.0       16.2        0.0        0.0        0.0       0.00        3.3       0.41       0.00        0.0
7:07              204        0.0         70       18.1      122.8       18.1       19.7       12.5     1015.6       18.1       16.2        0.0        0.0        0.0       0.00        3.3       0.41       0.00        0.0
7:10              204        0.0         70       18.1      122.8       18.1       19.8       12.6     1015.6       18.1       16.2        0.0        0.0        0.0       0.00        3.3       0.41       0.00        0.0
7:12              204        0.0         70       18.2      122.8       18.2       19.9       12.7     1015.6       18.2       16.2        0.0        0.0        0.0       0.00        3.3       0.41       0.00        0.0
7:14              204        0.0         70       18.3      122.8       18.3       19.9       12.7     1015.7       18.3       16.2        0.0        0.0        0.0       0.00        3.3       0.41       0.00        0.0
7:16              204        0.0         69       18.3      122.8       18.3       19.9       12.6     1015.7       18.3       16.2        0.0        0.0        0.0       0.00        3.3       0.41       0.00        0.0
7:18              204        0.0         69       18.4      122.8       18.4       20.0       12.6     1015.8       18.4       16.2        0.0        0.0        0.0       0.00        3.3       0.41       0.00        0.0
7:20              204        0.0         69       18.5      122.8       18.5       20.1       12.7     1015.8       18.5       16.2        0.0        0.0        0.0       0.00        3.3       0.41       0.00        0.0
7:21              204        0.0         68       18.6      122.8       18.6       20.1       12.6     1015.9       18.6       16.2        0.0        0.0        0.0       0.00        3.3       0.41       0.00        0.0
7:24              204        0.0         68       18.7      122.8       18.7       20.2       12.6     1015.9       18.7       16.2        0.0        0.0        0.0       0.00        3.3       0.41       0.00        0.0
7:26              204        0.0         67       18.7      122.8       18.7       20.2       12.5     1015.9       18.7       16.2        0.0        0.0        0.0       0.00        3.3       0.41       0.00        0.0
7:27              204        0.0         67       18.8      122.8       18.8       20.3       12.6     1015.8       18.8       16.2        0.0        0.0        0.0       0.00        3.3       0.41       0.00        0.0
7:29              204        0.0         67       18.9      122.8       18.9       20.3       12.6     1015.9       18.9       16.2        0.0        0.0        0.0       0.00        3.3       0.41       0.00        0.0
7:32              204        0.0         67       19.0      122.8       19.0       20.4       12.7     1015.9       19.0       16.2        0.0        0.0        0.0       0.00        3.3       0.41       0.00        0.0
7:33              204        0.0         67       19.1      122.8       19.1       20.6       12.8     1015.9       19.1       16.2        0.0        0.0        0.0       0.00        3.3       0.41       0.00        0.0
7:36              204        0.0         66       19.2      122.8       19.2       20.6       12.7     1016.0       19.2       16.2        0.0        0.0        0.0       0.00        3.3       0.41       0.00        0.0
7:38              204        0.0         66       19.3      122.8       19.3       20.7       12.8     1016.0       19.3       16.2        0.0        0.0        0.0       0.00        3.3       0.41       0.00        0.0
7:40              204        0.0         66       19.4      122.8       19.4       20.8       12.9     1016.0       19.4       16.2        0.0        0.0        0.0       0.00        3.3       0.41       0.00        0.0
7:42              204        0.0         66       19.4      122.8       19.4       20.8       12.9     1016.0       19.4       16.2        0.0        0.0        0.0       0.00        3.3       0.41       0.00        0.0
7:44              204        0.0         66       19.6      122.8       19.6       20.9       13.0     1016.0       19.6       16.2        0.0        0.0        0.0       0.00        3.3       0.41       0.00        0.0
7:46              204        0.0         65       19.6      122.8       19.6       20.9       12.9     1016.0       19.6       16.2        0.0        0.0        0.0       0.00        3.3       0.41       0.00        0.0
7:48              204        0.0         65       19.7      122.8       19.7       21.0       13.0     1016.1       19.7       16.2        0.0        0.0        0.0       0.00        3.3       0.41       0.00        0.0
7:50              204        0.0         65       19.8      122.8       19.8       21.1       13.0     1016.2       19.8       16.2        0.0        0.0        0.0       0.00        3.3       0.41       0.00        0.0
7:52              204        0.0         64       19.8      122.8       19.8       21.1       12.8     1016.2       19.8       16.2        0.0        0.0        0.0       0.00        3.3       0.41       0.00        0.0
7:54              204        1.6         64       19.9      122.8       19.9       21.1       12.9     1016.2       19.9       16.2        0.0        0.0        0.0       0.00        3.4       0.41       0.00        0.0
7:56              204        3.2         64       19.9      122.8       19.9       21.1       12.9     1016.3       19.9       16.2        0.0        0.0        0.0       0.00        3.4       0.41       0.00        0.0
7:58              204        1.6         64       19.9      122.8       19.9       21.2       12.9     1016.2       19.9       16.2        0.0        0.0        0.0       0.00        3.5       0.41       0.00        0.0
8:00              204        0.0         64       20.0      122.8       20.0       21.3       13.0     1016.1       20.0       16.2        0.0        0.0        0.0       0.00        3.5       0.41       0.00        0.0
8:02              204        1.6         64       20.0      122.8       20.0       21.3       13.0     1016.4       20.0       16.2        0.0        0.0        0.0       0.00        3.5       0.41       0.00        0.0
8:04              204        0.0         64       20.1      122.8       20.1       21.3       13.0     1016.3       20.1       16.2        0.0        0.0        0.0       0.00        3.5       0.41       0.00        0.0
8:05              204        0.0         64       20.1      122.8       20.1       21.4       13.1     1016.2       20.1       16.2        0.0        0.0        0.0       0.00        3.5       0.41       0.00        0.0
8:08              204        0.0         63       20.1      122.8       20.1       21.3       12.9     1016.2       20.1       16.2        0.0        0.0        0.0       0.00        3.5       0.41       0.00        0.0
8:10              204        0.0         63       20.2      122.8       20.2       21.4       12.9     1016.2       20.2       16.2        0.0        0.0        0.0       0.00        3.5       0.41       0.00        0.0
8:11              204        0.0         63       20.2      122.8       20.2       21.4       12.9     1016.2       20.2       16.2        0.0        0.0        0.0       0.00        3.5       0.41       0.00        0.0
8:14              204        0.0         63       20.2      122.8       20.2       21.4       13.0     1016.2       20.2       16.2        0.0        0.0        0.0       0.00        3.5       0.41       0.00        0.0
8:15              204        0.0         63       20.2      122.8       20.2       21.4       13.0     1016.2       20.2       16.2        0.0        0.0        0.0       0.00        3.5       0.41       0.00        0.0
8:18              204        0.0         64       20.3      122.8       20.3       21.5       13.3     1016.1       20.3       16.2        0.0        0.0        0.0       0.00        3.5       0.41       0.00        0.0
8:19              204        0.0         63       20.3      122.8       20.3       21.5       13.1     1016.1       20.3       16.2        0.0        0.0        0.0       0.00        3.5       0.41       0.00        0.0
8:21              204        0.0         63       20.4      122.8       20.4       21.6       13.1     1016.2       20.4       16.2        0.0        0.0        0.0       0.00        3.5       0.41       0.00        0.0
8:23              204        0.0         63       20.5      122.8       20.5       21.7       13.2     1016.1       20.5       16.2        0.0        0.0        0.0       0.00        3.5       0.41       0.00        0.0
8:26              204        0.0         62       20.6      122.8       20.6       21.7       13.0     1016.1       20.6       16.2        0.0        0.0        0.0       0.00        3.5       0.41       0.00        0.0
8:28              204        0.0         62       20.7      122.8       20.7       21.8       13.1     1016.1       20.7       16.2        0.0        0.0        0.0       0.00        3.5       0.41       0.00        0.0
8:30              204        0.0         62       20.8      122.8       20.8       22.0       13.3     1016.2       20.8       16.2        0.0        0.0        0.0       0.00        3.5       0.41       0.00        0.0
8:32              204        0.0         62       20.9      122.8       20.9       22.1       13.4     1016.2       20.9       16.2        0.0        0.0        0.0       0.00        3.5       0.41       0.00        0.0
8:34              204        0.0         61       21.0      122.8       21.0       22.1       13.2     1016.1       21.0       16.2        0.0        0.0        0.0       0.00        3.5       0.41       0.00        0.0
8:36              204        0.0         61       21.1      122.8       21.1       22.2       13.3     1016.0       21.1       16.2        0.0        0.0        0.0       0.00        3.5       0.41       0.00        0.0
8:38              204        0.0         60       21.2      122.8       21.2       22.2       13.2     1016.0       21.2       16.2        0.0        0.0        0.0       0.00        3.5       0.41       0.00        0.0
8:40              204        0.0         60       21.3      122.8       21.3       22.3       13.3     1016.0       21.3       16.2        0.0        0.0        0.0       0.00        3.5       0.41       0.00        0.0
8:42              204        0.0         60       21.4      122.8       21.4       22.4       13.4     1016.0       21.4       16.2        0.0        0.0        0.0       0.00        3.5       0.41       0.00        0.0
8:44              204        0.0         59       21.5      122.8       21.5       22.4       13.2     1015.9       21.5       16.2        0.0        0.0        0.0       0.00        3.5       0.41       0.00        0.0
8:46              204        0.0         59       21.6      122.8       21.6       22.5       13.2     1015.9       21.6       16.2        0.0        0.0        0.0       0.00        3.5       0.41       0.00        0.0
8:48              204        0.0         58       21.6      122.8       21.6       22.5       13.0     1015.9       21.6       16.2        0.0        0.0        0.0       0.00        3.5       0.41       0.00        0.0
8:49              204        0.0         58       21.7      122.8       21.7       22.6       13.1     1015.9       21.7       16.2        0.0        0.0        0.0       0.00        3.5       0.41       0.00        0.0
8:52              204        0.0         57       21.7      122.8       21.7       22.6       12.8     1015.9       21.7       16.2        0.0        0.0        0.0       0.00        3.5       0.41       0.00        0.0
8:54              204        0.0         57       21.8      122.8       21.8       22.6       12.9     1016.0       21.8       16.2        0.0        0.0        0.0       0.00        3.5       0.41       0.00        0.0
8:55              204        0.0         57       21.8      122.8       21.8       22.7       12.9     1015.9       21.8       16.2        0.0        0.0        0.0       0.00        3.5       0.41       0.00        0.0
8:58              204        0.0         56       21.9      122.8       21.9       22.7       12.7     1015.9       21.9       16.2        0.0        0.0        0.0       0.00        3.5       0.41       0.00        0.0
9:00              204        0.0         56       21.9      122.8       21.9       22.7       12.8     1015.9       21.9       16.2        0.0        0.0        0.0       0.00        3.5       0.41       0.00        0.0
9:02              204        0.0         56       22.0      122.8       22.0       22.8       12.8     1016.0       22.0       16.2        0.0        0.0        0.0       0.00        3.5       0.41       0.00        0.0
9:04              204        0.0         55       22.1      122.8       22.1       22.8       12.6     1016.0       22.1       16.2        0.0        0.0        0.0       0.00        3.5       0.41       0.00        0.0
9:06              204        0.0         55       22.1      122.8       22.1       22.8       12.7     1016.0       22.1       16.2        0.0        0.0        0.0       0.00        3.5       0.41       0.00        0.0
9:08              204        0.0         56       22.1      122.8       22.1       22.9       12.9     1016.0       22.1       16.2        0.0        0.0        0.0       0.00        3.5       0.41       0.00        0.0
9:10              204        0.0         56       22.1      122.8       22.1       22.9       12.9     1016.0       22.1       16.2        0.0        0.0        0.0       0.00        3.5       0.41       0.00        0.0
9:11              204        0.0         56       22.2      122.8       22.2       22.9       13.0     1016.0       22.2       16.2        0.0        0.0        0.0       0.00        3.5       0.41       0.00        0.0
9:14              204        0.0         55       22.2      122.8       22.2       22.9       12.8     1015.9       22.2       16.2        0.0        0.0        0.0       0.00        3.5       0.41       0.00        0.0
9:16              204        0.0         55       22.3      122.8       22.3       23.0       12.8     1015.9       22.3       16.2        0.0        0.0        0.0       0.00        3.5       0.41       0.00        0.0
9:17              204        0.0         55       22.3      122.8       22.3       23.0       12.9     1015.9       22.3       16.2        0.0        0.0        0.0       0.00        3.5       0.41       0.00        0.0
9:19              204        0.0         55       22.3      122.8       22.3       23.0       12.9     1015.9       22.4       16.2        0.0        0.0        0.0       0.00        3.5       0.41       0.00        0.0
9:22              204        0.0         55       22.4      122.8       22.4       23.1       12.9     1015.9       22.4       16.2        0.0        0.0        0.0       0.00        3.5       0.41       0.00        0.0
9:23              204        0.0         55       22.4      122.8       22.4       23.2       13.0     1016.0       22.4       16.2        0.0        0.0        0.0       0.00        3.5       0.41       0.00        0.0
9:26              204        0.0         55       22.4      122.8       22.4       23.2       13.0     1016.0       22.4       16.2        0.0        0.0        0.0       0.00        3.5       0.41       0.00        0.0
9:28              204        0.0         55       22.5      122.8       22.5       23.2       13.0     1016.0       22.5       16.2        0.0        0.0        0.0       0.00        3.5       0.41       0.00        0.0
9:30              204        0.0         55       22.5      122.8       22.5       23.2       13.0     1015.9       22.5       16.2        0.0        0.0        0.0       0.00        3.5       0.41       0.00        0.0
9:32              204        0.0         55       22.6      122.8       22.6       23.3       13.1     1015.9       22.6       16.2        0.0        0.0        0.0       0.00        3.5       0.41       0.01        0.0
9:34              204       20.9         54       22.6      122.8       20.1       23.3       12.8     1016.0       22.6       16.2        0.0        0.0        0.0       0.00        3.6       0.41       0.01        0.0
9:36              204        4.8         54       22.6      122.8       22.6       23.2       12.8     1016.0       22.6       16.2        0.0        0.0        0.0       0.00        3.7       0.41       0.01        0.0
9:38              204        3.2         54       22.4      122.8       22.4       23.1       12.7     1016.0       22.6       16.2        0.0        0.0        0.0       0.00        3.8       0.41       0.01        0.0
9:39              204        1.6         54       22.3      122.8       22.3       23.0       12.6     1016.0       22.6       16.2        0.0        0.0        0.0       0.00        3.8       0.41       0.01        0.0
9:42              204        0.0         55       22.3      122.8       22.3       23.0       12.9     1016.0       22.6       16.2        0.0        0.0        0.0       0.00        3.8       0.41       0.01        0.0
9:44              204        0.0         55       22.3      122.8       22.3       23.0       12.8     1015.9       22.6       16.2        0.0        0.0        0.0       0.00        3.8       0.41       0.01        0.0
9:46              204        0.0         55       22.2      122.8       22.2       22.9       12.8     1016.0       22.6       16.2        0.0        0.0        0.0       0.00        3.8       0.41       0.01        0.0
9:48              204        0.0         56       22.2      122.8       22.2       23.0       13.0     1016.0       22.6       16.2        0.0        0.0        0.0       0.00        3.8       0.41       0.01        0.0
9:49              204        0.0         55       22.2      122.8       22.2       22.9       12.8     1015.9       22.6       16.2        0.0        0.0        0.0       0.00        3.8       0.41       0.01        0.0
9:51              204        0.0         55       22.3      122.8       22.3       23.0       12.8     1016.0       22.6       16.2        0.0        0.0        0.0       0.00        3.8       0.41       0.01        0.0
9:53              204        0.0         54       22.3      122.8       22.3       23.0       12.6     1016.0       22.6       16.2        0.0        0.0        0.0       0.00        3.8       0.41       0.01        0.0
9:55              204        0.0         54       22.3      122.8       22.3       23.0       12.6     1015.9       22.6       16.2        0.0        0.0        0.0       0.00        3.8       0.41       0.01        0.0
9:58              204        0.0         54       22.4      122.8       22.4       23.0       12.6     1016.0       22.6       16.2        0.0        0.0        0.0       0.00        3.8       0.41       0.01        0.0
10:00             204        0.0         54       22.4      122.8       22.4       23.0       12.6     1016.0       22.6       16.2        0.0        0.0        0.0       0.00        3.8       0.41       0.01        0.0
10:02             204        0.0         54       22.4      122.8       22.4       23.1       12.7     1016.1       22.6       16.2        0.0        0.0        0.0       0.00        3.8       0.41       0.01        0.0
10:03             204        0.0         54       22.5      122.8       22.5       23.2       12.7     1016.0       22.6       16.2        0.0        0.0        0.0       0.00        3.8       0.41       0.01        0.0
10:06             204        0.0         54       22.6      122.8       22.6       23.2       12.8     1016.0       22.6       16.2        0.0        0.0        0.0       0.00        3.8       0.41       0.01        0.0
10:08             204        0.0         53       22.7      122.8       22.7       23.3       12.6     1016.0       22.7       16.2        0.0        0.0        0.0       0.00        3.8       0.41       0.01        0.0
10:09             204        0.0         53       22.7      122.8       22.7       23.3       12.6     1016.1       22.7       16.2        0.0        0.0        0.0       0.00        3.8       0.41       0.01        0.0
10:12             204        0.0         52       22.7      122.8       22.7       23.2       12.3     1016.1       22.7       16.2        0.0        0.0        0.0       0.00        3.8       0.41       0.01        0.0
10:14             204        0.0         53       22.6      122.8       22.6       23.2       12.5     1016.1       22.7       16.2        0.0        0.0        0.0       0.00        3.8       0.41       0.01        0.0
10:16             204        6.4         53       22.6      122.8       22.6       23.2       12.5     1016.1       22.7       16.2        0.0        0.0        0.0       0.00        3.9       0.41       0.02        0.0
10:18             204        4.8         53       22.5      122.8       22.5       23.1       12.5     1016.1       22.7       16.2        0.0        0.0        0.0       0.00        3.9       0.41       0.02        0.0
10:20             204        4.8         53       22.5      122.8       22.5       23.1       12.5     1016.1       22.7       16.2        0.0        0.0        0.0       0.00        4.1       0.41       0.02        0.0
10:22             195        6.4         53       22.5      122.8       22.5       23.1       12.5     1016.2       22.7       16.2        0.0        0.0        0.0       0.00        4.3       0.41       0.02        0.0
10:24             195        4.8         52       22.5      122.8       22.5       23.1       12.2     1016.2       22.7       16.2        0.0        0.0        0.0       0.00        4.4       0.41       0.02        0.0
10:26             195        1.6         53       22.5      122.8       22.5       23.1       12.5     1016.2       22.7       16.2        0.0        0.0        0.0       0.00        4.5       0.41       0.02        0.0
10:28             195        6.4         53       22.6      122.8       22.6       23.2       12.5     1016.2       22.7       16.2        0.0        0.0        0.0       0.00        4.6       0.41       0.02        0.0
10:30             195        8.0         53       22.6      122.8       22.0       23.2       12.6     1016.2       22.7       16.2        0.0        0.0        0.0       0.00        4.7       0.41       0.02        0.0
10:32             195        1.6         53       22.6      122.8       22.6       23.2       12.6     1016.2       22.7       16.2        0.0        0.0        0.0       0.00        4.8       0.41       0.03        0.0
10:34             195       11.3         54       22.6      122.8       22.6       23.3       12.8     1016.2       22.7       16.2        0.0        0.0        0.0       0.00        4.9       0.41       0.03        0.0
10:35             195        4.8         53       22.6      122.8       22.6       23.2       12.6     1016.2       22.7       16.2        0.0        0.0        0.0       0.00        5.0       0.41       0.03        0.0
10:38             195        4.8         53       22.6      122.8       22.6       23.2       12.6     1016.2       22.7       16.2        0.0        0.0        0.0       0.00        5.1       0.41       0.03        0.0
10:40             195        6.4         53       22.6      122.8       22.6       23.2       12.6     1016.2       22.7       16.2        0.0        0.0        0.0       0.00        5.2       0.41       0.03        0.0
10:41             194        6.4         53       22.6      122.8       22.6       23.2       12.6     1016.2       22.7       16.2        0.0        0.0        0.0       0.00        5.4       0.41       0.03        0.0
10:44             195        3.2         53       22.6      122.8       22.6       23.2       12.6     1016.2       22.7       16.2        0.0        0.0        0.0       0.00        5.5       0.41       0.03        0.0
10:46             194        3.2         52       22.7      122.8       22.7       23.2       12.3     1016.3       22.7       16.2        0.0        0.0        0.0       0.00        5.6       0.41       0.03        0.0
10:47             194        3.2         52       22.7      122.8       22.7       23.3       12.4     1016.3       22.7       16.2        0.0        0.0        0.0       0.00        5.7       0.41       0.03        0.0
10:50             195        8.0         52       22.7      122.8       22.7       23.3       12.4     1016.2       22.7       16.2        0.0        0.0        0.0       0.00        5.9       0.41       0.03        0.0
10:52             196        3.2         52       22.8      122.8       22.8       23.3       12.4     1016.3       22.8       16.2        0.0        0.0        0.0       0.00        6.0       0.41       0.03        0.0
10:53             195        4.8         53       22.8      122.8       22.8       23.4       12.7     1016.3       22.8       16.2        0.0        0.0        0.0       0.00        6.1       0.41       0.03        0.0
10:56             194        6.4         53       22.8      122.8       22.8       23.4       12.8     1016.4       22.8       16.2        0.0        0.0        0.0       0.00        6.3       0.41       0.03        0.0
10:58             194       11.3         53       22.9      122.8       22.3       23.5       12.8     1016.3       22.9       16.2        0.0        0.0        0.0       0.00        6.5       0.41       0.03        0.0
11:00             191       11.3         53       23.0      122.8       22.1       23.6       12.9     1016.3       23.0       16.2        0.0        0.0        0.0       0.00        6.8       0.41       0.03        0.0
11:02             190        3.2         53       23.1      122.8       23.1       23.7       13.0     1016.3       23.1       16.2        0.0        0.0        0.0       0.00        6.9       0.41       0.04        0.0
11:04             189        9.7         53       23.3      122.8       23.3       23.9       13.2     1016.3       23.3       16.2        0.0        0.0        0.0       0.00        7.1       0.41       0.04        0.0
11:05             186        6.4         50       23.4      122.8       23.4       23.9       12.4     1016.3       23.4       16.2        0.0        0.0        0.0       0.00        7.4       0.41       0.04        0.0
11:08             187        4.8         50       23.6      122.8       23.6       24.1       12.6     1016.3       23.6       16.2        0.0        0.0        0.0       0.00        7.6       0.41       0.04        0.0
11:10             188        4.8         50       23.7      122.8       23.7       24.1       12.6     1016.3       23.7       16.2        0.0        0.0        0.0       0.00        7.8       0.41       0.04        0.0
11:12             194       11.3         50       23.7      122.8       23.2       24.2       12.7     1016.3       23.7       16.2        0.0        0.0        0.0       0.00        8.0       0.41       0.04        0.0
11:14             200       14.5         49       23.7      122.8       23.7       24.1       12.4     1016.2       23.7       16.2        0.0        0.0        0.0       0.00        8.3       0.41       0.04        0.0
11:16             199        4.8         48       23.8      122.8       23.8       24.1       12.1     1016.3       23.8       16.2        0.0        0.0        0.0       0.00        8.5       0.41       0.06        0.0
11:18             206       14.5         48       23.8      122.8       22.9       24.1       12.1     1016.2       23.8       16.2        0.0        0.0        0.0       0.00        8.7       0.41       0.06        0.0
11:20             207        4.8         47       23.8      122.8       23.8       24.1       11.8     1016.3       23.8       16.2        0.0        0.0        0.0       0.00        8.9       0.41       0.06        0.0
11:22             198        8.0         47       23.8      122.8       23.8       24.1       11.8     1016.3       23.8       16.2        0.0        0.0        0.0       0.00        9.2       0.41       0.06        0.0
11:24             196        6.4         47       23.8      122.8       23.8       24.1       11.8     1016.2       23.8       16.2        0.0        0.0        0.0       0.00        9.5       0.41       0.06        0.0
11:25             194       14.5         48       23.8      122.8       23.8       24.1       12.1     1016.3       23.8       16.2        0.0        0.0        0.0       0.00        9.7       0.41       0.06        0.0
11:28             195        6.4         48       23.8      122.8       23.8       24.2       12.2     1016.2       23.8       16.2        0.0        0.0        0.0       0.00        9.9       0.41       0.06        0.0
11:30             189       16.1         48       23.8      122.8       21.6       24.2       12.2     1016.3       23.8       16.2        0.0        0.0        0.0       0.00       10.2       0.41       0.06        0.0
11:31             189       12.9         48       23.8      122.8       23.3       24.2       12.2     1016.3       23.8       16.2        0.0        0.0        0.0       0.00       10.4       0.41       0.08        0.0
11:34             190        6.4         48       23.8      122.8       23.8       24.2       12.2     1016.3       23.8       16.2        0.0        0.0        0.0       0.00       10.6       0.41       0.08        0.0
11:36             201        6.4         48       23.8      122.8       23.8       24.2       12.2     1016.3       23.8       16.2        0.0        0.0        0.0       0.00       10.8       0.41       0.08        0.0
11:38             199       12.9         48       23.8      122.8       22.7       24.2       12.2     1016.3       23.8       16.2        0.0        0.0        0.0       0.00       11.1       0.41       0.08        0.0
11:40             196        4.8         49       23.8      122.8       23.8       24.2       12.5     1016.2       23.8       16.2        0.0        0.0        0.0       0.00       11.4       0.41       0.08        0.0
11:42             194        9.7         50       23.8      122.8       23.0       24.3       12.8     1016.1       23.8       16.2        0.0        0.0        0.0       0.00       11.5       0.41       0.08        0.0
11:44             192        6.4         50       23.9      122.8       23.9       24.3       12.8     1016.2       23.9       16.2        0.0        0.0        0.0       0.00       11.7       0.41       0.08        0.0
11:46             187       11.3         49       24.0      122.8       23.2       24.4       12.6     1016.2       24.0       16.2        0.0        0.0        0.0       0.00       12.1       0.41       0.10        0.0
11:48             186       16.1         49       24.1      122.8       22.3       24.5       12.7     1016.2       24.1       16.2        0.0        0.0        0.0       0.00       12.3       0.41       0.10        0.0
11:49             190       11.3         48       24.3      122.8       23.9       24.7       12.6     1016.2       24.3       16.2        0.0        0.0        0.0       0.00       12.6       0.41       0.10        0.0
11:52             203       12.9         48       24.4      122.8       23.0       24.7       12.7     1016.2       24.4       16.2        0.0        0.0        0.0       0.00       12.8       0.41       0.10        0.0
11:54             201       14.5         47       24.4      122.8       24.4       24.7       12.4     1016.2       24.4       16.2        0.0        0.0        0.0       0.00       13.1       0.41       0.10        0.0
11:56             202       14.5         47       24.5      122.8       23.7       24.8       12.5     1016.1       24.5       16.2        0.0        0.0        0.0       0.00       13.3       0.41       0.10        0.0
11:58             210       12.9         47       24.6      122.8       24.2       24.9       12.6     1016.3       24.6       16.2        0.0        0.0        0.0       0.00       13.7       0.41       0.10        0.0
12:00             210       11.3         47       24.7      122.8       24.7       25.0       12.7     1016.2       24.7       16.2        0.0        0.0        0.0       0.00       13.9       0.41       0.10        0.0
12:02             205       16.1         46       24.8      122.8       24.8       25.0       12.4     1016.2       24.8       16.2        0.0        0.0        0.0       0.00       14.2       0.41       0.13        0.0
12:04             208        8.0         47       24.9      122.8       24.9       25.2       12.8     1016.3       24.9       16.2        0.0        0.0        0.0       0.00       14.5       0.41       0.13        0.0
12:06             209       12.9         47       24.9      122.8       24.1       25.2       12.8     1016.2       24.9       16.2        0.0        0.0        0.0       0.00       14.8       0.41       0.13        0.0
12:07             210       11.3         47       25.0      122.8       24.3       25.3       12.9     1016.2       25.0       16.2        0.0        0.0        0.0       0.00       15.0       0.41       0.13        0.0
12:10             211        6.4         47       25.1      122.8       25.1       25.4       13.0     1016.1       25.1       16.2        0.0        0.0        0.0       0.00       15.3       0.41       0.13        0.0
12:12             210       16.1         46       25.2      122.8       24.2       25.5       12.8     1016.1       25.2       16.2        0.0        0.0        0.0       0.00       15.5       0.41       0.13        0.0
12:14             207        9.7         45       25.4      122.8       25.4       25.6       12.6     1016.1       25.4       16.2        0.0        0.0        0.0       0.00       15.8       0.41       0.13        0.0
12:15             208       12.9         44       25.5      122.8       25.5       25.6       12.4     1016.0       25.5       16.2        0.0        0.0        0.0       0.00       16.1       0.41       0.17        0.0
12:18             209        9.7         44       25.7      122.8       25.7       25.8       12.5     1016.0       25.7       16.2        0.0        0.0        0.0       0.00       16.4       0.41       0.17        0.0
12:19             209       14.5         44       25.8      122.8       24.6       25.9       12.6     1016.0       25.8       16.2        0.0        0.0        0.0       0.00       16.6       0.41       0.17        0.0
12:21             208        6.4         44       25.8      122.8       25.8       26.0       12.7     1016.0       25.8       16.2        0.0        0.0        0.0       0.00       16.8       0.41       0.17        0.0
12:24             209        9.7         45       25.9      122.8       25.2       26.1       13.1     1015.9       25.9       16.2        0.0        0.0        0.0       0.00       17.0       0.41       0.17        0.0
12:26             209        8.0         46       25.9      122.8       25.9       26.1       13.4     1015.9       25.9       16.2        0.0        0.0        0.0       0.00       17.2       0.41       0.17        0.0
12:28             215       12.9         45       26.0      122.8       25.1       26.2       13.2     1015.9       26.0       16.2        0.0        0.0        0.0       0.00       17.5       0.41       0.17        0.0
12:29             217        6.4         44       25.9      122.8       25.9       26.1       12.8     1016.0       26.0       16.2        0.0        0.0        0.0       0.00       17.7       0.41       0.17        0.0
12:32             217        0.0         46       25.9      122.8       25.9       26.1       13.4     1015.9       26.0       16.2        0.0        0.0        0.0       0.00       17.8       0.41       0.21        0.0
12:33             217       11.3         45       25.9      122.8       25.9       26.1       13.1     1015.9       26.0       16.2        0.0        0.0        0.0       0.00       18.0       0.41       0.21        0.0
12:36             220        3.2         46       26.1      122.8       26.1       26.3       13.5     1015.8       26.1       16.2        0.0        0.0        0.0       0.00       18.2       0.41       0.21        0.0
12:38             220        6.4         45       26.1      122.8       26.1       26.3       13.3     1015.8       26.1       16.2        0.0        0.0        0.0       0.00       18.4       0.41       0.21        0.0
12:39             220        9.7         45       26.3      122.8       26.3       26.5       13.4     1015.8       26.3       16.2        0.0        0.0        0.0       0.00       18.6       0.41       0.21        0.0
12:42             220        8.0         46       26.4      122.8       26.4       26.7       13.9     1015.8       26.4       16.2        0.0        0.0        0.0       0.00       18.8       0.41       0.21        0.0
12:44             217        6.4         45       26.6      122.8       26.6       26.7       13.7     1015.7       26.6       16.2        0.0        0.0        0.0       0.00       18.9       0.41       0.21        0.0
12:46             216        8.0         45       26.7      122.8       26.7       26.9       13.8     1015.7       26.7       16.2        0.0        0.0        0.0       0.00       19.1       0.41       0.26        0.0
12:48             215        9.7         45       26.8      122.8       26.8       27.0       13.9     1015.7       26.8       16.2        0.0        0.0        0.0       0.00       19.3       0.41       0.26        0.0
12:50             215        4.8         43       27.1      122.8       27.1       27.1       13.4     1015.7       27.1       16.2        0.0        0.0        0.0       0.00       19.5       0.41       0.26        0.0
12:52             215        3.2         43       27.2      122.8       27.2       27.1       13.5     1015.7       27.2       16.2        0.0        0.0        0.0       0.00       19.6       0.41       0.26        0.0
12:54             216        6.4         43       27.2      122.8       27.2       27.2       13.6     1015.7       27.2       16.2        0.0        0.0        0.0       0.00       19.7       0.41       0.26        0.0
12:56             216        8.0         44       27.3      122.8       27.0       27.3       14.0     1015.6       27.3       16.2        0.0        0.0        0.0       0.00       19.9       0.41       0.26        0.0
12:58             217        1.6         44       27.3      122.8       27.3       27.3       14.0     1015.6       27.3       16.2        0.0        0.0        0.0       0.00       19.9       0.41       0.26        0.0
13:00             212       12.9         44       27.3      122.8       26.4       27.3       14.0     1015.6       27.3       16.2        0.0        0.0        0.0       0.00       20.1       0.41       0.26        0.0
13:02             186       12.9         43       27.5      122.8       27.0       27.4       13.8     1015.6       27.5       16.2        0.0        0.0        0.0       0.00       20.5       0.41       0.31        0.0
13:04             181        8.0         43       27.6      122.8       27.3       27.5       13.9     1015.6       27.6       16.2        0.0        0.0        0.0       0.00       20.9       0.41       0.31        0.0
13:05             177       11.3         43       27.7      122.8       27.2       27.6       14.0     1015.6       27.7       16.2        0.0        0.0        0.0       0.00       21.0       0.41       0.31        0.0
13:08             166       19.3         43       27.9      122.8       26.5       27.8       14.2     1015.6       27.9       16.2        0.0        0.0        0.0       0.00       21.3       0.41       0.31        0.0
13:10             166       17.7         43       28.1      122.8       26.8       27.9       14.3     1015.6       28.1       16.2        0.0        0.0        0.0       0.00       21.6       0.41       0.31        0.0
13:11             173       14.5         43       28.2      122.8       27.6       28.1       14.5     1015.6       28.2       16.2        0.0        0.0        0.0       0.00       22.0       0.41       0.31        0.0
13:14             171        9.7         43       28.3      122.8       28.3       28.2       14.6     1015.5       28.3       16.2        0.0        0.0        0.0       0.00       22.3       0.41       0.31        0.0
13:16             167       12.9         43       28.4      122.8       28.4       28.3       14.7     1015.5       28.4       16.2        0.0        0.0        0.0       0.00       22.7       0.41       0.38        0.0
13:17             167       22.5         43       28.6      122.8       27.7       28.4       14.8     1015.5       28.6       16.2        0.0        0.0        0.0       0.00       23.1       0.41       0.38        0.0
13:20             167        9.7         44       28.6      122.8       28.6       28.6       15.2     1015.4       28.6       16.2        0.0        0.0        0.0       0.00       23.5       0.41       0.38        0.0
13:22             184       17.7         44       28.7      122.8       27.5       28.6       15.2     1015.4       28.7       16.2        0.0        0.0        0.0       0.00       23.8       0.41       0.38        0.0
13:23             196       14.5         44       28.7      122.8       28.1       28.6       15.2     1015.4       28.7       16.2        0.0        0.0        0.0       0.00       24.2       0.41       0.38        0.0
13:26             185       11.3         43       28.6      122.8       28.6       28.5       14.8     1015.5       28.7       16.2        0.0        0.0        0.0       0.00       24.5       0.41       0.38        0.0
13:28             181       12.9         43       28.6      122.8       28.2       28.5       14.8     1015.4       28.7       16.2        0.0        0.0        0.0       0.00       24.8       0.41       0.38        0.0
13:30             202        8.0         43       28.6      122.8       28.6       28.4       14.8     1015.4       28.7       16.2        0.0        0.0        0.0       0.00       25.0       0.41       0.38        0.0
13:32             202        1.6         44       28.4      122.8       28.4       28.4       15.0     1015.3       28.7       16.2        0.0        0.0        0.0       0.00       25.1       0.41       0.45        0.0
13:34             180        6.4         44       28.4      122.8       28.4       28.3       15.0     1015.3       28.7       16.2        0.0        0.0        0.0       0.00       25.5       0.41       0.45        0.0
13:36             181        6.4         44       28.4      122.8       28.4       28.4       15.0     1015.1       28.7       16.2        0.0        0.0        0.0       0.00       25.6       0.41       0.45        0.0
13:38             161       20.9         43       28.6      122.8       27.8       28.4       14.8     1015.1       28.7       16.2        0.0        0.0        0.0       0.00       26.0       0.41       0.45        0.0
13:40             171       12.9         43       28.7      122.8       27.9       28.5       14.9     1015.2       28.7       16.2        0.0        0.0        0.0       0.00       26.4       0.41       0.45        0.0
13:42             217        8.0         43       28.8      122.8       28.8       28.7       15.0     1015.1       28.8       16.2        0.0        0.0        0.0       0.00       26.8       0.41       0.45        0.0
13:44             216        4.8         43       28.8      122.8       28.8       28.7       15.0     1015.1       28.8       16.2        0.0        0.0        0.0       0.00       27.0       0.41       0.45        0.0
13:46             244       22.5         42       28.8      122.8       27.8       28.6       14.6     1015.1       28.8       16.2        0.0        0.0        0.0       0.00       27.3       0.41       0.52        0.0
13:48             207       17.7         41       28.7      122.8       27.6       28.4       14.2     1015.1       28.8       16.2        0.0        0.0        0.0       0.00       27.8       0.41       0.52        0.0
13:50             194       16.1         43       28.7      122.8       27.9       28.5       14.9     1015.2       28.8       16.2        0.0        0.0        0.0       0.00       28.1       0.41       0.52        0.0
13:52             161       25.7         44       28.7      122.8       27.1       28.6       15.2     1014.9       28.8       16.2        0.0        0.0        0.0       0.00       28.6       0.41       0.52        0.0
13:54             203       24.1         43       28.7      122.8       27.6       28.5       14.9     1015.1       28.8       16.2        0.0        0.0        0.0       0.00       29.3       0.41       0.52        0.0
13:55             178       14.5         42       28.7      122.8       28.3       28.4       14.5     1015.2       28.8       16.2        0.0        0.0        0.0       0.00       29.9       0.41       0.52        0.0
13:58             190       19.3         42       28.7      122.8       27.6       28.5       14.6     1015.1       28.8       16.2        0.0        0.0        0.0       0.00       30.4       0.41       0.52        0.0
14:00             172       20.9         39       28.7      122.8       27.4       28.2       13.4     1015.0       28.8       16.2        0.0        0.0        0.0       0.00       30.9       0.41       0.52        0.0
14:01             202       19.3         41       28.7      122.8       27.9       28.4       14.2     1015.1       28.8       16.2        0.0        0.0        0.0       0.00       31.3       0.41       0.59        0.0
14:04             212       12.9         40       28.8      122.8       28.1       28.4       13.9     1015.2       28.8       16.2        0.0        0.0        0.0       0.00       31.8       0.41       0.59        0.0
14:06             180       12.9         37       28.8      122.8       28.2       28.1       12.7     1015.2       28.8       16.2        0.0        0.0        0.0       0.00       32.1       0.41       0.59        0.0
14:07             192       16.1         35       28.7      122.8       28.2       28.0       11.8     1015.2       28.8       16.2        0.0        0.0        0.0       0.00       32.5       0.41       0.59        0.0
14:10             202       16.1         35       28.8      122.8       27.8       28.0       11.8     1015.1       28.8       16.2        0.0        0.0        0.0       0.00       32.9       0.41       0.59        0.0
14:12             175       14.5         34       28.8      122.8       28.3       28.0       11.4     1015.2       28.8       16.2        0.0        0.0        0.0       0.00       33.4       0.41       0.59        0.0
14:13             174       17.7         34       28.9      122.8       28.4       28.1       11.5     1015.1       28.9       16.2        0.0        0.0        0.0       0.00       34.0       0.41       0.59        0.0
14:16             202       11.3         34       29.0      122.8       29.0       28.1       11.6     1015.2       29.0       16.2        0.0        0.0        0.0       0.00       34.3       0.41       0.66        0.0
14:18             204       14.5         35       29.0      122.8       28.6       28.2       12.0     1015.1       29.1       16.2        0.0        0.0        0.0       0.00       34.6       0.41       0.66        0.0
14:20             160       14.5         35       29.0      122.8       28.5       28.2       12.0     1015.2       29.1       16.2        0.0        0.0        0.0       0.00       35.0       0.41       0.66        0.0
14:22             212       16.1         35       29.1      122.8       29.1       28.2       12.1     1015.1       29.1       16.2        0.0        0.0        0.0       0.00       35.5       0.41       0.66        0.0
14:24             188       14.5         36       29.1      122.8       28.8       28.4       12.5     1015.2       29.1       16.2        0.0        0.0        0.0       0.00       35.8       0.41       0.66        0.0
14:26             177       11.3         36       29.2      122.8       28.9       28.5       12.6     1015.3       29.2       16.2        0.0        0.0        0.0       0.00       36.2       0.41       0.66        0.0
14:28             188        9.7         36       29.2      122.8       29.2       28.5       12.6     1015.2       29.3       16.2        0.0        0.0        0.0       0.00       36.5       0.41       0.66        0.0
14:30             211       20.9         34       29.3      122.8       28.4       28.4       11.8     1015.1       29.3       16.2        0.0        0.0        0.0       0.00       36.8       0.41       0.66        0.0
14:32             188       14.5         32       29.3      122.8       28.8       28.2       10.9     1015.2       29.3       16.2        0.0        0.0        0.0       0.00       37.4       0.41       0.74        0.0
14:33             202       16.1         33       29.2      122.8       28.4       28.2       11.3     1015.2       29.3       16.2        0.0        0.0        0.0       0.00       37.7       0.41       0.74        0.0
14:36             177       19.3         32       29.2      122.8       28.3       28.1       10.8     1015.1       29.3       16.2        0.0        0.0        0.0       0.00       38.2       0.41       0.74        0.0
14:38             175       12.9         31       29.2      122.8       29.2       28.1       10.3     1015.2       29.3       16.2        0.0        0.0        0.0       0.00       38.7       0.41       0.74        0.0
14:39             232       14.5         33       29.2      122.8       28.9       28.3       11.3     1015.1       29.3       16.2        0.0        0.0        0.0       0.00       39.0       0.41       0.74        0.0
14:42             175       20.9         33       29.2      122.8       28.2       28.3       11.3     1015.1       29.3       16.2        0.0        0.0        0.0       0.00       39.4       0.41       0.74        0.0
14:44             185       25.7         31       29.2      122.8       28.1       28.1       10.4     1015.1       29.3       16.2        0.0        0.0        0.0       0.00       39.9       0.41       0.74        0.0
14:45             209       17.7         32       29.3      122.8       28.8       28.2       10.9     1015.0       29.3       16.2        0.0        0.0        0.0       0.00       40.4       0.41       0.81        0.0
14:48             233       19.3         31       29.4      122.8       28.9       28.3       10.5     1015.1       29.4       16.2        0.0        0.0        0.0       0.00       40.8       0.41       0.81        0.0
14:50             219       14.5         30       29.3      122.8       28.9       28.2       10.0     1015.2       29.4       16.2        0.0        0.0        0.0       0.00       41.3       0.41       0.81        0.0
14:52             219       14.5         31       29.3      122.8       28.6       28.2       10.5     1015.1       29.4       16.2        0.0        0.0        0.0       0.00       41.7       0.41       0.81        0.0
14:54             218        8.0         32       29.3      122.8       29.3       28.3       10.9     1015.1       29.4       16.2        0.0        0.0        0.0       0.00       42.0       0.41       0.81        0.0
14:56             182       14.5         31       29.3      122.8       28.7       28.2       10.5     1015.1       29.4       16.2        0.0        0.0        0.0       0.00       42.3       0.41       0.81        0.0
14:57             223       12.9         31       29.4      122.8       29.2       28.3       10.5     1015.1       29.4       16.2        0.0        0.0        0.0       0.00       42.5       0.41       0.81        0.0
15:00             216       12.9         32       29.4      122.8       29.0       28.4       11.0     1015.1       29.4       16.2        0.0        0.0        0.0       0.00       42.9       0.41       0.81        0.0
15:02             213       17.7         32       29.4      122.8       29.1       28.3       11.0     1015.0       29.4       16.2        0.0        0.0        0.0       0.00       43.4       0.41       0.89        0.0
15:03             221        9.7         32       29.3      122.8       29.3       28.3       10.9     1014.9       29.4       16.2        0.0        0.0        0.0       0.00       43.7       0.41       0.89        0.0
15:06             207       17.7         33       29.3      122.8       28.4       28.4       11.4     1014.9       29.4       16.2        0.0        0.0        0.0       0.00       44.0       0.41       0.89        0.0
15:08             190       17.7         32       29.4      122.8       28.5       28.3       11.0     1014.8       29.4       16.2        0.0        0.0        0.0       0.00       44.3       0.41       0.89        0.0
15:09             207       11.3         31       29.4      122.8       29.1       28.3       10.6     1014.8       29.4       16.2        0.0        0.0        0.0       0.00       44.8       0.41       0.89        0.0
15:11             207       14.5         32       29.5      122.8       28.8       28.4       11.1     1015.0       29.5       16.2        0.0        0.0        0.0       0.00       45.1       0.41       0.89        0.0
15:14             188       25.7         33       29.6      122.8       28.5       28.6       11.6     1014.9       29.6       16.2        0.0        0.0        0.0       0.00       45.5       0.41       0.89        0.0
15:16             190       20.9         33       29.6      122.8       29.2       28.6       11.6     1014.8       29.6       16.2        0.0        0.0        0.0       0.00       46.0       0.41       0.97        0.0
15:18             186       25.7         33       29.6      122.8       28.6       28.6       11.6     1014.8       29.6       16.2        0.0        0.0        0.0       0.00       46.6       0.41       0.97        0.0
15:20             188       14.5         33       29.6      122.8       29.0       28.6       11.6     1015.0       29.6       16.2        0.0        0.0        0.0       0.00       47.1       0.41       0.97        0.0
15:22             189       16.1         34       29.6      122.8       28.7       28.6       12.1     1014.9       29.6       16.2        0.0        0.0        0.0       0.00       47.5       0.41       0.97        0.0
15:24             190       25.7         33       29.6      122.8       28.7       28.6       11.6     1014.9       29.6       16.2        0.0        0.0        0.0       0.00       48.1       0.41       0.97        0.0
15:26             176       19.3         32       29.5      122.8       28.8       28.4       11.1     1015.0       29.6       16.2        0.0        0.0        0.0       0.00       48.5       0.41       0.97        0.0
15:28             213       20.9         32       29.5      122.8       29.5       28.4       11.1     1015.0       29.6       16.2        0.0        0.0        0.0       0.00       49.0       0.41       0.97        0.0
15:30             187       24.1         33       29.4      122.8       28.9       28.5       11.5     1014.9       29.6       16.2        0.0        0.0        0.0       0.00       49.5       0.41       0.97        0.0
15:32             176        6.4         33       29.4      122.8       29.4       28.4       11.5     1015.0       29.6       16.2        0.0        0.0        0.0       0.00       49.9       0.41       1.05        0.0
15:34             234       17.7         33       29.4      122.8       28.5       28.4       11.5     1014.9       29.6       16.2        0.0        0.0        0.0       0.00       50.2       0.41       1.05        0.0
15:35             246       19.3         32       29.3      122.8       28.4       28.3       10.9     1014.9       29.6       16.2        0.0        0.0        0.0       0.00       50.7       0.41       1.05        0.0
15:37             240       16.1         33       29.2      122.8       28.9       28.3       11.3     1014.9       29.6       16.2        0.0        0.0        0.0       0.00       51.0       0.41       1.05        0.0
15:40             208       11.3         33       29.2      122.8       28.7       28.3       11.3     1014.9       29.6       16.2        0.0        0.0        0.0       0.00       51.2       0.41       1.05        0.0
15:41             215       14.5         33       29.3      122.8       28.8       28.3       11.4     1014.9       29.6       16.2        0.0        0.0        0.0       0.00       51.5       0.41       1.05        0.0
15:44             185       19.3         32       29.3      122.8       28.7       28.3       10.9     1015.0       29.6       16.2        0.0        0.0        0.0       0.00       52.0       0.41       1.05        0.0
15:46             207       12.9         32       29.3      122.8       29.3       28.3       10.9     1015.1       29.6       16.2        0.0        0.0        0.0       0.00       52.4       0.41       1.12        0.0
15:47             217       14.5         32       29.3      122.8       28.7       28.2       10.9     1015.0       29.6       16.2        0.0        0.0        0.0       0.00       52.7       0.41       1.12        0.0
15:50             223       14.5         31       29.3      122.8       29.1       28.2       10.4     1015.0       29.6       16.2        0.0        0.0        0.0       0.00       53.1       0.41       1.12        0.0
15:52             234       16.1         32       29.1      122.8       29.1       28.1       10.7     1015.0       29.6       16.2        0.0        0.0        0.0       0.00       53.5       0.41       1.12        0.0
15:54             230       17.7         33       29.1      122.8       28.0       28.1       11.2     1015.2       29.6       16.2        0.0        0.0        0.0       0.00       53.9       0.41       1.12        0.0
15:56             219       11.3         33       29.0      122.8       28.5       28.1       11.1     1015.0       29.6       16.2        0.0        0.0        0.0       0.00       54.1       0.41       1.12        0.0
15:58             243       16.1         33       29.0      122.8       28.2       28.1       11.1     1014.9       29.6       16.2        0.0        0.0        0.0       0.00       54.5       0.41       1.12        0.0
16:00             234       24.1         33       29.1      122.8       28.3       28.1       11.2     1015.1       29.6       16.2        0.0        0.0        0.0       0.00       55.0       0.41       1.12        0.0
16:02             232       19.3         32       28.9      122.8       28.7       27.9       10.6     1015.0       29.6       16.2        0.0        0.0        0.0       0.00       55.5       0.41       1.20        0.0
16:04             234       17.7         33       28.9      122.8       27.9       28.0       11.0     1015.0       29.6       16.2        0.0        0.0        0.0       0.00       55.8       0.41       1.20        0.0
16:06             236        8.0         33       28.9      122.8       28.9       28.0       11.0     1014.9       29.6       16.2        0.0        0.0        0.0       0.00       56.2       0.41       1.20        0.0
16:08             200       24.1         33       28.9      122.8       27.8       28.0       11.0     1015.0       29.6       16.2        0.0        0.0        0.0       0.00       56.6       0.41       1.20        0.0
16:10             192       19.3         32       28.9      122.8       28.1       27.9       10.6     1015.0       29.6       16.2        0.0        0.0        0.0       0.00       57.1       0.41       1.20        0.0
16:12             205        8.0         32       28.9      122.8       28.7       27.9       10.6     1014.9       29.6       16.2        0.0        0.0        0.0       0.00       57.4       0.41       1.20        0.0
16:14             207       11.3         32       29.0      122.8       29.0       28.0       10.7     1014.8       29.6       16.2        0.0        0.0        0.0       0.00       57.6       0.41       1.20        0.0
16:16             217       12.9         32       29.1      122.8       29.1       28.1       10.7     1014.8       29.6       16.2        0.0        0.0        0.0       0.00       58.0       0.41       1.27        0.0
16:18             219        6.4         32       29.2      122.8       29.2       28.2       10.8     1014.9       29.6       16.2        0.0        0.0        0.0       0.00       58.3       0.41       1.27        0.0
16:19             214       17.7         32       29.3      122.8       28.3       28.2       10.9     1014.9       29.6       16.2        0.0        0.0        0.0       0.00       58.8       0.41       1.27        0.0
16:22             228       12.9         33       29.2      122.8       28.5       28.2       11.3     1015.0       29.6       16.2        0.0        0.0        0.0       0.00       59.2       0.41       1.27        0.0
16:24             232       24.1         33       29.1      122.8       27.8       28.2       11.2     1015.1       29.6       16.2        0.0        0.0        0.0       0.00       59.6       0.41       1.27        0.0
16:25             251       25.7         33       29.0      122.8       28.2       28.1       11.1     1015.0       29.6       16.2        0.0        0.0        0.0       0.00       60.2       0.41       1.27        0.0
16:28             238       30.6         33       28.9      122.8       27.7       28.0       11.0     1014.9       29.6       16.2        0.0        0.0        0.0       0.00       60.7       0.41       1.27        0.0
16:30             222       19.3         33       28.8      122.8       27.7       27.9       10.9     1015.0       29.6       16.2        0.0        0.0        0.0       0.00       61.3       0.41       1.27        0.0
16:31             240       20.9         33       28.7      122.8       28.0       27.8       10.9     1015.0       29.6       16.2        0.0        0.0        0.0       0.00       61.7       0.41       1.34        0.0
16:34             229       19.3         32       28.7      122.8       28.0       27.8       10.4     1015.0       29.6       16.2        0.0        0.0        0.0       0.00       62.2       0.41       1.34        0.0
16:36             246       16.1         32       28.7      122.8       28.2       27.8       10.4     1015.0       29.6       16.2        0.0        0.0        0.0       0.00       62.7       0.41       1.34        0.0
16:37             227       14.5         33       28.7      122.8       28.3       27.8       10.9     1015.0       29.6       16.2        0.0        0.0        0.0       0.00       63.0       0.41       1.34        0.0
16:40             213       17.7         32       28.8      122.8       28.2       27.8       10.5     1015.0       29.6       16.2        0.0        0.0        0.0       0.00       63.4       0.41       1.34        0.0
16:42             235       16.1         32       28.8      122.8       28.5       27.8       10.5     1014.9       29.6       16.2        0.0        0.0        0.0       0.00       63.8       0.41       1.34        0.0
16:44             241       22.5         31       28.8      122.8       27.9       27.7       10.0     1015.0       29.6       16.2        0.0        0.0        0.0       0.00       64.4       0.41       1.34        0.0
16:46             273       11.3         31       28.7      122.8       28.7       27.7        9.9     1015.1       29.6       16.2        0.0        0.0        0.0       0.00       64.8       0.41       1.41        0.0
16:48             205       14.5         32       28.7      122.8       28.3       27.8       10.4     1014.9       29.6       16.2        0.0        0.0        0.0       0.00       65.1       0.41       1.41        0.0
16:50             230       19.3         31       28.7      122.8       27.5       27.7        9.9     1015.0       29.6       16.2        0.0        0.0        0.0       0.00       65.6       0.41       1.41        0.0
16:52             210       17.7         31       28.8      122.8       28.2       27.7       10.0     1015.0       29.6       16.2        0.0        0.0        0.0       0.00       66.0       0.41       1.41        0.0
16:54             211       19.3         31       28.8      122.8       27.9       27.7       10.0     1014.9       29.6       16.2        0.0        0.0        0.0       0.00       66.5       0.41       1.41        0.0
16:56             199       14.5         32       28.8      122.8       28.3       27.9       10.5     1014.9       29.6       16.2        0.0        0.0        0.0       0.00       66.9       0.41       1.41        0.0
16:58             217       17.7         31       28.9      122.8       28.9       27.8       10.1     1014.9       29.6       16.2        0.0        0.0        0.0       0.00       67.3       0.41       1.41        0.0
17:00             208       14.5         31       28.9      122.8       28.5       27.8       10.1     1014.9       29.6       16.2        0.0        0.0        0.0       0.00       67.7       0.41       1.41        0.0
17:02             207       19.3         32       28.9      122.8       28.1       27.9       10.6     1015.0       29.6       16.2        0.0        0.0        0.0       0.00       68.1       0.41       1.48        0.0
17:03             209       14.5         32       28.9      122.8       28.4       27.9       10.6     1014.9       29.6       16.2        0.0        0.0        0.0       0.00       68.5       0.41       1.48        0.0
17:06             205       11.3         32       29.0      122.8       29.0       28.0       10.7     1014.9       29.6       16.2        0.0        0.0        0.0       0.00       68.9       0.41       1.48        0.0
17:08             232       11.3         32       29.0      122.8       29.0       28.0       10.7     1014.8       29.6       16.2        0.0        0.0        0.0       0.00       69.2       0.41       1.48        0.0
17:09             234       16.1         32       29.0      122.8       28.0       28.0       10.7     1014.9       29.6       16.2        0.0        0.0        0.0       0.00       69.5       0.41       1.48        0.0
17:12             207       16.1         32       29.0      122.8       28.3       28.0       10.7     1014.8       29.6       16.2        0.0        0.0        0.0       0.00       70.0       0.41       1.48        0.0
17:14             229       16.1         32       29.1      122.8       28.8       28.0       10.7     1014.8       29.6       16.2        0.0        0.0        0.0       0.00       70.4       0.41       1.48        0.0
17:16             223       14.5         33       29.0      122.8       28.8       28.1       11.1     1014.9       29.6       16.2        0.0        0.0        0.0       0.00       70.8       0.41       1.55        0.0
17:18             223       22.5         33       28.9      122.8       27.7       28.0       11.1     1014.8       29.6       16.2        0.0        0.0        0.0       0.00       71.2       0.41       1.55        0.0
17:20             224       12.9         33       28.8      122.8       28.8       27.9       11.0     1015.0       29.6       16.2        0.0        0.0        0.0       0.00       71.6       0.41       1.55        0.0
17:21             238        9.7         33       28.7      122.8       28.7       27.8       10.9     1014.8       29.6       16.2        0.0        0.0        0.0       0.00       72.0       0.41       1.55        0.0
17:24             227       19.3         33       28.6      122.8       28.0       27.7       10.8     1014.9       29.6       16.2        0.0        0.0        0.0       0.00       72.4       0.41       1.55        0.0
17:26             241       20.9         33       28.5      122.8       28.3       27.6       10.7     1014.9       29.6       16.2        0.0        0.0        0.0       0.00       72.9       0.41       1.55        0.0
17:27             226       16.1         33       28.4      122.8       27.9       27.6       10.6     1014.8       29.6       16.2        0.0        0.0        0.0       0.00       73.4       0.41       1.55        0.0
17:29             240       17.7         33       28.3      122.8       28.1       27.5       10.5     1014.9       29.6       16.2        0.0        0.0        0.0       0.00       73.7       0.41       1.55        0.0
17:32             228       12.9         33       28.3      122.8       28.0       27.5       10.5     1014.9       29.6       16.2        0.0        0.0        0.0       0.00       74.1       0.41       1.62        0.0
17:34             213       22.5         33       28.3      122.8       27.3       27.5       10.5     1014.9       29.6       16.2        0.0        0.0        0.0       0.00       74.5       0.41       1.62        0.0
17:36             220       12.9         33       28.3      122.8       28.0       27.5       10.5     1014.9       29.6       16.2        0.0        0.0        0.0       0.00       75.0       0.41       1.62        0.0
17:38             223       11.3         33       28.3      122.8       27.8       27.5       10.5     1014.9       29.6       16.2        0.0        0.0        0.0       0.00       75.3       0.41       1.62        0.0
17:40             217       20.9         33       28.3      122.8       27.0       27.5       10.5     1014.8       29.6       16.2        0.0        0.0        0.0       0.00       75.7       0.41       1.62        0.0
17:42             211       19.3         33       28.3      122.8       27.4       27.5       10.5     1014.8       29.6       16.2        0.0        0.0        0.0       0.00       76.1       0.41       1.62        0.0
17:44             200       12.9         32       28.3      122.8       27.8       27.4       10.0     1014.9       29.6       16.2        0.0        0.0        0.0       0.00       76.5       0.41       1.62        0.0
17:45             193        8.0         32       28.3      122.8       28.3       27.4       10.0     1014.9       29.6       16.2        0.0        0.0        0.0       0.00       76.8       0.41       1.69        0.0
17:48             212       17.7         33       28.3      122.8       27.6       27.5       10.5     1014.9       29.6       16.2        0.0        0.0        0.0       0.00       77.1       0.41       1.69        0.0
17:50             217       17.7         32       28.3      122.8       27.1       27.4       10.1     1014.9       29.6       16.2        0.0        0.0        0.0       0.00       77.5       0.41       1.69        0.0
17:52             218        8.0         32       28.2      122.8       28.2       27.4       10.0     1015.0       29.6       16.2        0.0        0.0        0.0       0.00       77.8       0.41       1.69        0.0
17:53             220       12.9         32       28.2      122.8       28.0       27.4       10.0     1014.9       29.6       16.2        0.0        0.0        0.0       0.00       78.1       0.41       1.69        0.0
17:56             242        8.0         32       28.1      122.8       28.1       27.3        9.9     1014.9       29.6       16.2        0.0        0.0        0.0       0.00       78.4       0.41       1.69        0.0
17:58             257       12.9         31       28.1      122.8       27.2       27.2        9.4     1014.9       29.6       16.2        0.0        0.0        0.0       0.00       78.7       0.41       1.69        0.0
18:00             248       14.5         32       27.9      122.8       27.9       27.2        9.7     1015.0       29.6       16.2        0.0        0.0        0.0       0.00       79.1       0.41       1.69        0.0
18:02             186       14.5         32       27.9      122.8       27.2       27.1        9.7     1014.9       29.6       16.2        0.0        0.0        0.0       0.00       79.4       0.41       1.75        0.0
18:04             199       16.1         32       27.9      122.8       27.0       27.1        9.7     1014.9       29.6       16.2        0.0        0.0        0.0       0.00       79.8       0.41       1.75        0.0
18:06             203        9.7         32       27.9      122.8       27.9       27.1        9.7     1014.9       29.6       16.2        0.0        0.0        0.0       0.00       80.1       0.41       1.75        0.0
18:08             217       14.5         33       27.9      122.8       27.3       27.2       10.2     1015.0       29.6       16.2        0.0        0.0        0.0       0.00       80.3       0.41       1.75        0.0
18:10             227       17.7         32       28.0      122.8       27.2       27.2        9.8     1015.0       29.6       16.2        0.0        0.0        0.0       0.00       80.7       0.41       1.75        0.0
18:12             230       14.5         32       27.9      122.8       27.3       27.2        9.7     1015.1       29.6       16.2        0.0        0.0        0.0       0.00       81.1       0.41       1.75        0.0
18:14             225       14.5         33       27.9      122.8       27.0       27.2       10.1     1015.0       29.6       16.2        0.0        0.0        0.0       0.00       81.5       0.41       1.75        0.0
18:16             220       14.5         33       27.8      122.8       27.6       27.1       10.1     1015.0       29.6       16.2        0.0        0.0        0.0       0.00       81.8       0.41       1.81        0.0
18:17             233       17.7         33       27.7      122.8       27.2       27.0       10.0     1014.9       29.6       16.2        0.0        0.0        0.0       0.00       82.3       0.41       1.81        0.0
18:20             227       14.5         33       27.7      122.8       27.4       27.0       10.0     1014.9       29.6       16.2        0.0        0.0        0.0       0.00       82.7       0.41       1.81        0.0
18:22             216       14.5         33       27.6      122.8       26.7       27.0        9.9     1015.0       29.6       16.2        0.0        0.0        0.0       0.00       83.1       0.41       1.81        0.0
18:24             223       16.1         33       27.6      122.8       26.7       26.9        9.9     1014.9       29.6       16.2        0.0        0.0        0.0       0.00       83.6       0.41       1.81        0.0
18:26             234        9.7         33       27.5      122.8       27.0       26.9        9.8     1015.0       29.6       16.2        0.0        0.0        0.0       0.00       84.0       0.41       1.81        0.0
18:28             237       19.3         33       27.4      122.8       25.9       26.8        9.8     1015.0       29.6       16.2        0.0        0.0        0.0       0.00       84.4       0.41       1.81        0.0
18:30             226       14.5         33       27.4      122.8       27.1       26.8        9.7     1015.0       29.6       16.2        0.0        0.0        0.0       0.00       85.0       0.41       1.81        0.0
18:31             224       16.1         34       27.3      122.8       26.3       26.8       10.1     1015.0       29.6       16.2        0.0        0.0        0.0       0.00       85.4       0.41       1.87        0.0
18:34             253       16.1         34       27.2      122.8       27.2       26.7       10.0     1015.0       29.6       16.2        0.0        0.0        0.0       0.00       85.8       0.41       1.87        0.0
18:36             229       12.9         34       27.2      122.8       26.2       26.7       10.0     1015.0       29.6       16.2        0.0        0.0        0.0       0.00       86.2       0.41       1.87        0.0
18:38             232       16.1         34       27.2      122.8       26.6       26.7       10.0     1015.1       29.6       16.2        0.0        0.0        0.0       0.00       86.5       0.41       1.87        0.0
18:40             234        8.0         33       27.1      122.8       27.1       26.6        9.5     1015.1       29.6       16.2        0.0        0.0        0.0       0.00       86.9       0.41       1.87        0.0
18:42             222       14.5         33       27.1      122.8       26.4       26.6        9.5     1015.1       29.6       16.2        0.0        0.0        0.0       0.00       87.3       0.41       1.87        0.0
18:43             229       17.7         33       27.1      122.8       25.9       26.6        9.5     1015.1       29.6       16.2        0.0        0.0        0.0       0.00       87.7       0.41       1.87        0.0
18:46             228       16.1         33       27.0      122.8       26.0       26.5        9.4     1015.1       29.6       16.2        0.0        0.0        0.0       0.00       88.1       0.41       1.92        0.0
18:48             225        9.7         33       26.9      122.8       26.4       26.5        9.3     1015.2       29.6       16.2        0.0        0.0        0.0       0.00       88.4       0.41       1.92        0.0
18:49             225       11.3         34       26.9      122.8       26.9       26.5        9.7     1015.2       29.6       16.2        0.0        0.0        0.0       0.00       88.6       0.41       1.92        0.0
18:52             221       11.3         34       26.9      122.8       26.6       26.5        9.8     1015.2       29.6       16.2        0.0        0.0        0.0       0.00       88.9       0.41       1.92        0.0
18:54             221        8.0         33       26.9      122.8       26.9       26.5        9.3     1015.2       29.6       16.2        0.0        0.0        0.0       0.00       89.1       0.41       1.92        0.0
18:55             221        9.7         33       26.9      122.8       26.9       26.5        9.3     1015.3       29.6       16.2        0.0        0.0        0.0       0.00       89.4       0.41       1.92        0.0
18:58             222       14.5         33       26.8      122.8       26.3       26.4        9.2     1015.3       29.6       16.2        0.0        0.0        0.0       0.00       89.6       0.41       1.92        0.0
19:00             221        6.4         33       26.8      122.8       26.8       26.4        9.2     1015.2       29.6       16.2        0.0        0.0        0.0       0.00       89.9       0.41       1.92        0.0
19:01             223       11.3         32       26.7      122.8       25.9       26.3        8.6     1015.3       29.6       16.2        0.0        0.0        0.0       0.00       90.3       0.41       1.97        0.0
19:04             223       12.9         33       26.6      122.8       26.0       26.3        9.0     1015.3       29.6       16.2        0.0        0.0        0.0       0.00       90.6       0.41       1.97        0.0
19:06             223       11.3         33       26.5      122.8       25.7       26.2        8.9     1015.4       29.6       16.2        0.0        0.0        0.0       0.00       90.9       0.41       1.97        0.0
19:07             223        9.7         33       26.4      122.8       25.8       26.1        8.9     1015.3       29.6       16.2        0.0        0.0        0.0       0.00       91.2       0.41       1.97        0.0
19:10             224       14.5         33       26.3      122.8       26.0       26.0        8.8     1015.3       29.6       16.2        0.0        0.0        0.0       0.00       91.4       0.41       1.97        0.0
19:12             222       12.9         33       26.2      122.8       25.9       25.9        8.7     1015.4       29.6       16.2        0.0        0.0        0.0       0.00       91.8       0.41       1.97        0.0
19:14             222       12.9         33       26.2      122.8       25.0       25.8        8.6     1015.5       29.6       16.2        0.0        0.0        0.0       0.00       92.1       0.41       1.97        0.0
19:16             221       12.9         33       26.1      122.8       25.7       25.7        8.5     1015.5       29.6       16.2        0.0        0.0        0.0       0.00       92.5       0.41       2.01        0.0
19:18             221        9.7         34       26.0      122.8       25.6       25.7        8.9     1015.5       29.6       16.2        0.0        0.0        0.0       0.00       92.7       0.41       2.01        0.0
19:20             221        9.7         34       25.9      122.8       25.9       25.6        8.9     1015.5       29.6       16.2        0.0        0.0        0.0       0.00       93.0       0.41       2.01        0.0
19:22             221       11.3         34       25.9      122.8       25.2       25.6        8.8     1015.5       29.6       16.2        0.0        0.0        0.0       0.00       93.3       0.41       2.01        0.0
19:24             221        8.0         34       25.8      122.8       25.8       25.5        8.8     1015.5       29.6       16.2        0.0        0.0        0.0       0.00       93.5       0.41       2.01        0.0
19:26             221        9.7         34       25.7      122.8       25.7       25.4        8.7     1015.5       29.6       16.2        0.0        0.0        0.0       0.00       93.8       0.41       2.01        0.0
19:28             221        9.7         34       25.7      122.8       25.0       25.4        8.6     1015.5       29.6       16.2        0.0        0.0        0.0       0.00       94.1       0.41       2.01        0.0
19:29             221       11.3         34       25.6      122.8       25.6       25.3        8.6     1015.5       29.6       16.2        0.0        0.0        0.0       0.00       94.4       0.41       2.01        0.0
19:32             222       12.9         34       25.6      122.8       24.3       25.3        8.5     1015.5       29.6       16.2        0.0        0.0        0.0       0.00       94.6       0.41       2.05        0.0
19:33             223       14.5         34       25.5      122.8       24.8       25.2        8.5     1015.6       29.6       16.2        0.0        0.0        0.0       0.00       94.9       0.41       2.05        0.0
19:36             223       12.9         35       25.4      122.8       25.4       25.1        8.8     1015.5       29.6       16.2        0.0        0.0        0.0       0.00       95.2       0.41       2.05        0.0
19:38             223        9.7         35       25.3      122.8       24.6       25.1        8.8     1015.5       29.6       16.2        0.0        0.0        0.0       0.00       95.4       0.41       2.05        0.0
19:39             223        8.0         35       25.2      122.8       24.8       25.0        8.7     1015.6       29.6       16.2        0.0        0.0        0.0       0.00       95.7       0.41       2.05        0.0
19:42             223        6.4         35       25.1      122.8       25.1       24.9        8.6     1015.5       29.6       16.2        0.0        0.0        0.0       0.00       95.8       0.41       2.05        0.0
19:44             223        8.0         35       25.1      122.8       24.6       24.8        8.5     1015.6       29.6       16.2        0.0        0.0        0.0       0.00       96.0       0.41       2.05        0.0
19:45             223        8.0         35       25.0      122.8       25.0       24.7        8.5     1015.5       29.6       16.2        0.0        0.0        0.0       0.00       96.2       0.41       2.08        0.0
19:48             223        6.4         36       24.9      122.8       24.9       24.7        8.8     1015.6       29.6       16.2        0.0        0.0        0.0       0.00       96.3       0.41       2.08        0.0
19:50             223        8.0         36       24.8      122.8       24.8       24.6        8.8     1015.5       29.6       16.2        0.0        0.0        0.0       0.00       96.5       0.41       2.08        0.0
19:52             223        8.0         36       24.8      122.8       24.8       24.6        8.7     1015.5       29.6       16.2        0.0        0.0        0.0       0.00       96.7       0.41       2.08        0.0
19:54             223        4.8         36       24.7      122.8       24.7       24.5        8.7     1015.5       29.6       16.2        0.0        0.0        0.0       0.00       96.8       0.41       2.08        0.0
19:56             223        4.8         36       24.6      122.8       24.6       24.4        8.6     1015.5       29.6       16.2        0.0        0.0        0.0       0.00       97.0       0.41       2.08        0.0
19:57             223        6.4         36       24.6      122.8       24.6       24.3        8.5     1015.7       29.6       16.2        0.0        0.0        0.0       0.00       97.2       0.41       2.08        0.0
20:00             223        6.4         36       24.5      122.8       24.5       24.3        8.5     1015.6       29.6       16.2        0.0        0.0        0.0       0.00       97.4       0.41       2.08        0.0
20:02             223        9.7         36       24.4      122.8       24.0       24.2        8.4     1015.7       29.6       16.2        0.0        0.0        0.0       0.00       97.6       0.41       2.11        0.0
20:04             223        9.7         37       24.4      122.8       23.6       24.2        8.8     1015.7       29.6       16.2        0.0        0.0        0.0       0.00       97.8       0.41       2.11        0.0
20:06             223        8.0         37       24.3      122.8       24.3       24.1        8.7     1015.7       29.6       16.2        0.0        0.0        0.0       0.00       98.0       0.41       2.11        0.0
20:08             223        9.7         37       24.2      122.8       24.2       24.1        8.6     1015.7       29.6       16.2        0.0        0.0        0.0       0.00       98.2       0.41       2.11        0.0
20:10             223        6.4         37       24.1      122.8       24.1       23.9        8.5     1015.7       29.6       16.2        0.0        0.0        0.0       0.00       98.4       0.41       2.11        0.0
20:12             223        6.4         38       24.1      122.8       24.1       23.9        8.9     1015.7       29.6       16.2        0.0        0.0        0.0       0.00       98.6       0.41       2.11        0.0
20:14             223        4.8         38       24.0      122.8       24.0       23.9        8.8     1015.7       29.6       16.2        0.0        0.0        0.0       0.00       98.9       0.41       2.11        0.0
20:16             223        8.0         38       23.9      122.8       23.9       23.8        8.7     1015.7       29.6       16.2        0.0        0.0        0.0       0.00       99.1       0.41       2.13        0.0
20:18             223       11.3         38       23.8      122.8       23.8       23.7        8.7     1015.7       29.6       16.2        0.0        0.0        0.0       0.00       99.4       0.41       2.13        0.0
20:20             223        9.7         38       23.7      122.8       23.2       23.6        8.6     1015.8       29.6       16.2        0.0        0.0        0.0       0.00       99.6       0.41       2.13        0.0
20:22             223        9.7         39       23.7      122.8       23.2       23.6        8.9     1016.0       29.6       16.2        0.0        0.0        0.0       0.00       99.8       0.41       2.13        0.0
20:23             223       11.3         39       23.6      122.8       22.7       23.5        8.9     1015.9       29.6       16.2        0.0        0.0        0.0       0.00      100.0       0.41       2.13        0.0
20:26             222        9.7         40       23.5      122.8       23.5       23.5        9.1     1015.8       29.6       16.2        0.0        0.0        0.0       0.00      100.3       0.41       2.13        0.0
20:28             222        9.7         40       23.4      122.8       23.4       23.4        9.1     1016.0       29.6       16.2        0.0        0.0        0.0       0.00      100.5       0.41       2.13        0.0
20:30             222        4.8         40       23.3      122.8       23.3       23.3        9.0     1016.0       29.6       16.2        0.0        0.0        0.0       0.00      100.7       0.41       2.13        0.0
20:32             222        8.0         41       23.3      122.8       23.3       23.3        9.3     1016.1       29.6       16.2        0.0        0.0        0.0       0.00      100.8       0.41       2.14        0.0
20:34             222        4.8         41       23.2      122.8       23.2       23.2        9.2     1016.2       29.6       16.2        0.0        0.0        0.0       0.00      101.0       0.41       2.14        0.0
20:35             222        9.7         41       23.1      122.8       23.1       23.1        9.2     1016.1       29.6       16.2        0.0        0.0        0.0       0.00      101.2       0.41       2.14        0.0
20:38             222        8.0         42       23.0      122.8       22.5       23.1        9.4     1016.2       29.6       16.2        0.0        0.0        0.0       0.00      101.4       0.41       2.14        0.0
20:40             222       12.9         43       22.9      122.8       22.9       23.0        9.7     1016.2       29.6       16.2        0.0        0.0        0.0       0.00      101.7       0.41       2.14        0.0
20:42             223       11.3         43       22.8      122.8       22.3       22.9        9.6     1016.2       29.6       16.2        0.0        0.0        0.0       0.00      101.9       0.41       2.14        0.0
20:44             222        9.7         44       22.7      122.8       22.7       22.9        9.9     1016.2       29.6       16.2        0.0        0.0        0.0       0.00      102.1       0.41       2.14        0.0
20:46             222        6.4         44       22.6      122.8       22.6       22.8        9.8     1016.2       29.6       16.2        0.0        0.0        0.0       0.00      102.3       0.41       2.15        0.0
20:48             222        9.7         44       22.5      122.8       22.5       22.6        9.7     1016.3       29.6       16.2        0.0        0.0        0.0       0.00      102.5       0.41       2.15        0.0
20:50             222        8.0         45       22.4      122.8       22.4       22.6        9.9     1016.3       29.6       16.2        0.0        0.0        0.0       0.00      102.7       0.41       2.15        0.0
20:52             222        9.7         45       22.3      122.8       22.3       22.5        9.8     1016.3       29.6       16.2        0.0        0.0        0.0       0.00      102.9       0.41       2.15        0.0
20:54             222        4.8         46       22.2      122.8       22.2       22.4       10.0     1016.3       29.6       16.2        0.0        0.0        0.0       0.00      103.0       0.41       2.15        0.0
20:56             222        9.7         46       22.1      122.8       22.1       22.4       10.0     1016.3       29.6       16.2        0.0        0.0        0.0       0.00      103.2       0.41       2.15        0.0
20:58             222        6.4         46       22.0      122.8       22.0       22.2        9.9     1016.3       29.6       16.2        0.0        0.0        0.0       0.00      103.4       0.41       2.15        0.0
21:00             222        4.8         47       21.9      122.8       21.9       22.2       10.1     1016.3       29.6       16.2        0.0        0.0        0.0       0.00      103.6       0.41       2.15        0.0
21:02             222        6.4         47       21.8      122.8       21.8       22.1       10.0     1016.4       29.6       16.2        0.0        0.0        0.0       0.00      103.7       0.41       2.15        0.0
21:04             222        8.0         48       21.8      122.8       21.8       22.1       10.3     1016.5       29.6       16.2        0.0        0.0        0.0       0.00      103.9       0.41       2.15        0.0
21:05             222        4.8         48       21.7      122.8       21.7       22.0       10.2     1016.4       29.6       16.2        0.0        0.0        0.0       0.00      104.0       0.41       2.15        0.0
21:07             222        4.8         49       21.6      122.8       21.6       21.9       10.4     1016.6       29.6       16.2        0.0        0.0        0.0       0.00      104.2       0.41       2.15        0.0
21:10             222        6.4         49       21.4      122.8       21.4       21.8       10.3     1016.6       29.6       16.2        0.0        0.0        0.0       0.00      104.4       0.41       2.15        0.0
21:12             222        8.0         50       21.4      122.8       20.8       21.8       10.5     1016.6       29.6       16.2        0.0        0.0        0.0       0.00      104.6       0.41       2.15        0.0
21:13             222        6.4         51       21.3      122.8       21.3       21.8       10.7     1016.6       29.6       16.2        0.0        0.0        0.0       0.00      104.7       0.41       2.15        0.0
21:16             222        8.0         51       21.2      122.8       20.5       21.7       10.6     1016.7       29.6       16.2        0.0        0.0        0.0       0.00      104.9       0.41       2.15        0.0
21:18             222        4.8         51       21.1      122.8       21.1       21.6       10.6     1016.7       29.6       16.2        0.0        0.0        0.0       0.00      105.0       0.41       2.15        0.0
21:20             222        6.4         52       21.1      122.8       21.1       21.6       10.8     1016.7       29.6       16.2        0.0        0.0        0.0       0.00      105.2       0.41       2.15        0.0
21:22             222        8.0         52       20.9      122.8       20.3       21.5       10.7     1016.7       29.6       16.2        0.0        0.0        0.0       0.00      105.4       0.41       2.15        0.0
21:24             222        8.0         52       20.8      122.8       20.2       21.4       10.6     1016.8       29.6       16.2        0.0        0.0        0.0       0.00      105.6       0.41       2.15        0.0
21:25             222        6.4         53       20.8      122.8       20.8       21.4       10.9     1016.8       29.6       16.2        0.0        0.0        0.0       0.00      105.7       0.41       2.15        0.0
21:28             222        6.4         53       20.7      122.8       20.7       21.3       10.8     1016.8       29.6       16.2        0.0        0.0        0.0       0.00      105.9       0.41       2.15        0.0
21:30             222        6.4         53       20.6      122.8       20.6       21.2       10.7     1016.8       29.6       16.2        0.0        0.0        0.0       0.00      106.1       0.41       2.15        0.0
21:32             222        4.8         54       20.6      122.8       20.6       21.2       10.9     1016.9       29.6       16.2        0.0        0.0        0.0       0.00      106.3       0.41       2.15        0.0
21:34             222        6.4         54       20.4      122.8       20.4       21.1       10.8     1016.9       29.6       16.2        0.0        0.0        0.0       0.00      106.4       0.41       2.15        0.0
21:36             222        8.0         55       20.4      122.8       19.7       21.1       11.1     1016.9       29.6       16.2        0.0        0.0        0.0       0.00      106.6       0.41       2.15        0.0
21:37             222        8.0         55       20.3      122.8       20.3       21.0       11.0     1017.0       29.6       16.2        0.0        0.0        0.0       0.00      106.8       0.41       2.15        0.0
21:40             222        6.4         55       20.2      122.8       20.2       20.9       10.8     1017.0       29.6       16.2        0.0        0.0        0.0       0.00      107.0       0.41       2.15        0.0
21:42             222        8.0         55       20.1      122.8       20.1       20.8       10.8     1016.9       29.6       16.2        0.0        0.0        0.0       0.00      107.2       0.41       2.15        0.0
21:44             222        3.2         56       20.1      122.8       20.1       20.8       11.0     1017.0       29.6       16.2        0.0        0.0        0.0       0.00      107.3       0.41       2.15        0.0
21:46             222        6.4         56       20.0      122.8       20.0       20.8       11.0     1017.0       29.6       16.2        0.0        0.0        0.0       0.00      107.4       0.41       2.15        0.0
21:48             223        4.8         56       19.9      122.8       19.9       20.7       10.9     1017.0       29.6       16.2        0.0        0.0        0.0       0.00      107.6       0.41       2.15        0.0
21:50             223        4.8         56       19.8      122.8       19.8       20.6       10.8     1017.0       29.6       16.2        0.0        0.0        0.0       0.00      107.7       0.41       2.15        0.0
21:52             223        4.8         56       19.8      122.8       19.8       20.6       10.8     1017.0       29.6       16.2        0.0        0.0        0.0       0.00      107.8       0.41       2.15        0.0
21:54             223        8.0         56       19.7      122.8       19.7       20.5       10.7     1017.0       29.6       16.2        0.0        0.0        0.0       0.00      108.0       0.41       2.15        0.0
21:56             223        4.8         56       19.7      122.8       19.7       20.5       10.7     1017.1       29.6       16.2        0.0        0.0        0.0       0.00      108.2       0.41       2.15        0.0
21:58             223        4.8         56       19.6      122.8       19.6       20.4       10.6     1017.1       29.6       16.2        0.0        0.0        0.0       0.00      108.3       0.41       2.15        0.0
22:00             223        4.8         56       19.6      122.8       19.6       20.3       10.6     1017.0       29.6       16.2        0.0        0.0        0.0       0.00      108.4       0.41       2.15        0.0
22:02             223        6.4         56       19.6      122.8       19.6       20.3       10.6     1016.9       29.6       16.2        0.0        0.0        0.0       0.00      108.5       0.41       2.15        0.0
22:03             223        6.4         56       19.5      122.8       19.5       20.3       10.5     1017.1       29.6       16.2        0.0        0.0        0.0       0.00      108.7       0.41       2.15        0.0
22:06             223        3.2         56       19.5      122.8       19.5       20.3       10.5     1016.9       29.6       16.2        0.0        0.0        0.0       0.00      108.7       0.41       2.15        0.0
22:07             223        0.0         57       19.4      122.8       19.4       20.3       10.7     1017.1       29.6       16.2        0.0        0.0        0.0       0.00      108.7       0.41       2.15        0.0
22:10             223        0.0         56       19.4      122.8       19.4       20.2       10.4     1017.0       29.6       16.2        0.0        0.0        0.0       0.00      108.7       0.41       2.15        0.0
22:12             223        1.6         57       19.4      122.8       19.4       20.2       10.7     1017.1       29.6       16.2        0.0        0.0        0.0       0.00      108.7       0.41       2.15        0.0
22:14             223        3.2         57       19.3      122.8       19.3       20.2       10.6     1017.1       29.6       16.2        0.0        0.0        0.0       0.00      108.8       0.41       2.15        0.0
22:15             223        3.2         57       19.3      122.8       19.3       20.2       10.6     1017.1       29.6       16.2        0.0        0.0        0.0       0.00      108.9       0.41       2.15        0.0
22:18             223        4.8         57       19.3      122.8       19.3       20.1       10.6     1017.0       29.6       16.2        0.0        0.0        0.0       0.00      109.0       0.41       2.15        0.0
22:20             223        4.8         57       19.2      122.8       19.2       20.1       10.5     1017.1       29.6       16.2        0.0        0.0        0.0       0.00      109.2       0.41       2.15        0.0
22:22             223        3.2         57       19.2      122.8       19.2       20.0       10.5     1017.1       29.6       16.2        0.0        0.0        0.0       0.00      109.2       0.41       2.15        0.0
22:24             223        6.4         57       19.1      122.8       19.1       19.9       10.4     1017.1       29.6       16.2        0.0        0.0        0.0       0.00      109.3       0.41       2.15        0.0
22:26             223        3.2         57       19.1      122.8       19.1       19.9       10.3     1017.2       29.6       16.2        0.0        0.0        0.0       0.00      109.4       0.41       2.15        0.0
22:28             223        3.2         57       19.0      122.8       19.0       19.8       10.3     1017.1       29.6       16.2        0.0        0.0        0.0       0.00      109.5       0.41       2.15        0.0
22:30             223        0.0         57       19.0      122.8       19.0       19.8       10.3     1017.1       29.6       16.2        0.0        0.0        0.0       0.00      109.6       0.41       2.15        0.0
22:32             223        0.0         57       18.9      122.8       18.9       19.7       10.2     1017.1       29.6       16.2        0.0        0.0        0.0       0.00      109.6       0.41       2.15        0.0
22:34             222        6.4         58       18.9      122.8       18.9       19.8       10.5     1017.2       29.6       16.2        0.0        0.0        0.0       0.00      109.7       0.41       2.15        0.0
22:36             222        4.8         58       18.8      122.8       18.8       19.7       10.4     1017.1       29.6       16.2        0.0        0.0        0.0       0.00      109.8       0.41       2.15        0.0
22:38             223        6.4         58       18.8      122.8       18.8       19.7       10.3     1017.2       29.6       16.2        0.0        0.0        0.0       0.00      109.9       0.41       2.15        0.0
22:40             223        6.4         58       18.7      122.8       18.7       19.6       10.3     1017.2       29.6       16.2        0.0        0.0        0.0       0.00      110.0       0.41       2.15        0.0
22:42             223        6.4         59       18.7      122.8       18.7       19.6       10.5     1017.3       29.6       16.2        0.0        0.0        0.0       0.00      110.2       0.41       2.15        0.0
22:44             223        1.6         59       18.6      122.8       18.6       19.6       10.4     1017.2       29.6       16.2        0.0        0.0        0.0       0.00      110.2       0.41       2.15        0.0
22:46             223        1.6         59       18.6      122.8       18.6       19.5       10.4     1017.1       29.6       16.2        0.0        0.0        0.0       0.00      110.3       0.41       2.15        0.0
22:48             223        3.2         59       18.5      122.8       18.5       19.4       10.3     1017.2       29.6       16.2        0.0        0.0        0.0       0.00      110.4       0.41       2.15        0.0
22:50             223        1.6         60       18.4      122.8       18.4       19.4       10.5     1017.1       29.6       16.2        0.0        0.0        0.0       0.00      110.5       0.41       2.15        0.0
22:52             223        3.2         60       18.4      122.8       18.4       19.4       10.5     1017.1       29.6       16.2        0.0        0.0        0.0       0.00      110.6       0.41       2.15        0.0
22:54             224        3.2         60       18.3      122.8       18.3       19.3       10.4     1017.0       29.6       16.2        0.0        0.0        0.0       0.00      110.7       0.41       2.15        0.0
22:56             223        3.2         60       18.3      122.8       18.3       19.3       10.4     1017.0       29.6       16.2        0.0        0.0        0.0       0.00      110.8       0.41       2.15        0.0
22:58             223        3.2         60       18.3      122.8       18.3       19.3       10.4     1017.0       29.6       16.2        0.0        0.0        0.0       0.00      110.8       0.41       2.15        0.0
23:00             223        3.2         61       18.2      122.8       18.2       19.3       10.6     1017.0       29.6       16.2        0.0        0.0        0.0       0.00      110.9       0.41       2.15        0.0
23:02             223        4.8         61       18.2      122.8       18.2       19.2       10.5     1017.0       29.6       16.2        0.0        0.0        0.0       0.00      111.0       0.41       2.15        0.0
23:04             223        3.2         61       18.1      122.8       18.1       19.2       10.5     1017.0       29.6       16.2        0.0        0.0        0.0       0.00      111.0       0.41       2.15        0.0
23:05             223        4.8         61       18.1      122.8       18.1       19.1       10.4     1017.0       29.6       16.2        0.0        0.0        0.0       0.00      111.1       0.41       2.15        0.0
23:08             223        1.6         62       18.0      122.8       18.0       19.1       10.6     1017.1       29.6       16.2        0.0        0.0        0.0       0.00      111.1       0.41       2.15        0.0
23:10             223        3.2         62       17.9      122.8       17.9       19.1       10.6     1017.0       29.6       16.2        0.0        0.0        0.0       0.00      111.2       0.41       2.15        0.0
23:12             223        0.0         62       17.9      122.8       17.9       19.0       10.5     1017.0       29.6       16.2        0.0        0.0        0.0       0.00      111.2       0.41       2.15        0.0
23:14             223        0.0         63       17.8      122.8       17.8       19.0       10.7     1017.0       29.6       16.2        0.0        0.0        0.0       0.00      111.2       0.41       2.15        0.0
23:16             223        4.8         63       17.8      122.8       17.8       19.0       10.6     1017.1       29.6       16.2        0.0        0.0        0.0       0.00      111.3       0.41       2.15        0.0
23:17             223        3.2         63       17.7      122.8       17.7       18.9       10.6     1017.0       29.6       16.2        0.0        0.0        0.0       0.00      111.4       0.41       2.15        0.0
23:20             224        6.4         63       17.7      122.8       17.7       18.9       10.5     1017.1       29.6       16.2        0.0        0.0        0.0       0.00      111.5       0.41       2.15        0.0
23:22             224        3.2         64       17.6      122.8       17.6       18.9       10.7     1017.1       29.6       16.2        0.0        0.0        0.0       0.00      111.6       0.41       2.15        0.0
23:24             225        6.4         64       17.6      122.8       17.6       18.8       10.7     1017.1       29.6       16.2        0.0        0.0        0.0       0.00      111.7       0.41       2.15        0.0
23:26             225        4.8         64       17.6      122.8       17.6       18.8       10.7     1017.1       29.6       16.2        0.0        0.0        0.0       0.00      111.8       0.41       2.15        0.0
23:28             225        4.8         64       17.5      122.8       17.5       18.8       10.6     1017.0       29.6       16.2        0.0        0.0        0.0       0.00      111.9       0.41       2.15        0.0
23:30             225        4.8         65       17.4      122.8       17.4       18.8       10.8     1017.1       29.6       16.2        0.0        0.0        0.0       0.00      112.0       0.41       2.15        0.0
23:31             225        4.8         65       17.4      122.8       17.4       18.7       10.7     1016.9       29.6       16.2        0.0        0.0        0.0       0.00      112.1       0.42       2.15        0.0
23:34             226        3.2         65       17.3      122.8       17.3       18.6       10.7     1016.9       29.6       16.2        0.0        0.0        0.0       0.00      112.2       0.42       2.15        0.0
23:36             226        3.2         66       17.2      122.8       17.2       18.6       10.8     1016.9       29.6       16.2        0.0        0.0        0.0       0.00      112.3       0.42       2.15        0.0
23:37             226        3.2         67       17.2      122.8       17.2       18.6       11.0     1017.0       29.6       16.2        0.0        0.0        0.0       0.00      112.4       0.42       2.15        0.0
23:40             226        3.2         67       17.1      122.8       17.1       18.6       10.9     1016.9       29.6       16.2        0.0        0.0        0.0       0.00      112.4       0.42       2.15        0.0
23:42             226        1.6         67       17.1      122.8       17.1       18.5       10.9     1016.9       29.6       16.2        0.0        0.0        0.0       0.00      112.5       0.42       2.15        0.0
23:44             226        1.6         67       17.0      122.8       17.0       18.4       10.8     1016.9       29.6       16.2        0.0        0.0        0.0       0.00      112.5       0.42       2.15        0.0
23:46             225        3.2         68       17.0      122.8       17.0       18.5       11.1     1016.9       29.6       16.2        0.0        0.0        0.0       0.00      112.5       0.43       2.15        0.0
23:48             226        6.4         68       16.9      122.8       16.9       18.5       11.0     1016.8       29.6       16.2        0.0        0.0        0.0       0.00      112.6       0.43       2.15        0.0
23:49             225        3.2         69       16.9      122.8       16.9       18.5       11.2     1016.9       29.6       16.2        0.0        0.0        0.0       0.00      112.7       0.43       2.15        0.0
23:52             225        3.2         69       16.8      122.8       16.8       18.4       11.1     1016.8       29.6       16.2        0.0        0.0        0.0       0.00      112.7       0.43       2.15        0.0
23:54             226        4.8         69       16.8      122.8       16.8       18.4       11.1     1016.8       29.6       16.2        0.0        0.0        0.0       0.00      112.8       0.43       2.15        0.0
23:56             226        4.8         70       16.8      122.8       16.8       18.4       11.3     1016.8       29.6       16.2        0.0        0.0        0.0       0.00      112.9       0.43       2.15        0.0
23:58             226        4.8         70       16.8      122.8       16.8       18.4       11.3     1016.8       29.6       16.2        0.0        0.0        0.0       0.00      113.0       0.43       2.15        0.0